<?xml version="1.0" encoding="UTF-8" standalone="no" ?>
<gpx xmlns="http://www.topografix.com/GPX/1/1" xmlns:xsi="http://www.w3.org/2001/XMLSchema-instance" xsi:schemaLocation="http://www.topografix.com/GPX/1/1 http://www.topografix.com/GPX/1/1/gpx.xsd" version="1.1" creator="VisuGPX - https://www.visugpx.com">
  <metadata>
    <name>2019-05-23 15:56:14</name>
    <desc><![CDATA[

]]></desc>
  </metadata>
  <trk>
    <name><![CDATA[2019-05-23 15:56:14]]></name>
    <trkseg>
      <trkpt lat="40.39099" lon="-8.45053">
        <ele>48.2</ele>
        <time>2019-05-23T06:09:47Z</time>
      </trkpt>
      <trkpt lat="40.39098" lon="-8.45054">
        <ele>48.2</ele>
        <time>2019-05-23T06:09:48Z</time>
      </trkpt>
      <trkpt lat="40.39087" lon="-8.45057">
        <ele>48.2</ele>
        <time>2019-05-23T06:10:01Z</time>
      </trkpt>
      <trkpt lat="40.39085" lon="-8.45056">
        <ele>48.2</ele>
        <time>2019-05-23T06:10:03Z</time>
      </trkpt>
      <trkpt lat="40.39076" lon="-8.45056">
        <ele>48.2</ele>
        <time>2019-05-23T06:10:13Z</time>
      </trkpt>
      <trkpt lat="40.3907" lon="-8.45055">
        <ele>48.68</ele>
        <time>2019-05-23T06:10:19Z</time>
      </trkpt>
      <trkpt lat="40.39055" lon="-8.45057">
        <ele>49.16</ele>
        <time>2019-05-23T06:10:33Z</time>
      </trkpt>
      <trkpt lat="40.39039" lon="-8.4506">
        <ele>49.16</ele>
        <time>2019-05-23T06:10:49Z</time>
      </trkpt>
      <trkpt lat="40.39029" lon="-8.4506">
        <ele>49.65</ele>
        <time>2019-05-23T06:10:58Z</time>
      </trkpt>
      <trkpt lat="40.39025" lon="-8.45056">
        <ele>49.65</ele>
        <time>2019-05-23T06:11:03Z</time>
      </trkpt>
      <trkpt lat="40.3902" lon="-8.45045">
        <ele>49.65</ele>
        <time>2019-05-23T06:11:16Z</time>
      </trkpt>
      <trkpt lat="40.39021" lon="-8.45032">
        <ele>50.13</ele>
        <time>2019-05-23T06:11:31Z</time>
      </trkpt>
      <trkpt lat="40.39021" lon="-8.4503">
        <ele>50.13</ele>
        <time>2019-05-23T06:11:34Z</time>
      </trkpt>
      <trkpt lat="40.39027" lon="-8.45013">
        <ele>50.13</ele>
        <time>2019-05-23T06:11:49Z</time>
      </trkpt>
      <trkpt lat="40.39035" lon="-8.44995">
        <ele>50.61</ele>
        <time>2019-05-23T06:12:04Z</time>
      </trkpt>
      <trkpt lat="40.39046" lon="-8.44976">
        <ele>49.65</ele>
        <time>2019-05-23T06:12:21Z</time>
      </trkpt>
      <trkpt lat="40.39056" lon="-8.4496">
        <ele>49.16</ele>
        <time>2019-05-23T06:12:35Z</time>
      </trkpt>
      <trkpt lat="40.39057" lon="-8.44958">
        <ele>49.16</ele>
        <time>2019-05-23T06:12:36Z</time>
      </trkpt>
      <trkpt lat="40.39066" lon="-8.44946">
        <ele>49.65</ele>
        <time>2019-05-23T06:12:48Z</time>
      </trkpt>
      <trkpt lat="40.39075" lon="-8.4493">
        <ele>48.68</ele>
        <time>2019-05-23T06:13:00Z</time>
      </trkpt>
      <trkpt lat="40.39081" lon="-8.44921">
        <ele>49.16</ele>
        <time>2019-05-23T06:13:15Z</time>
      </trkpt>
      <trkpt lat="40.39085" lon="-8.44915">
        <ele>49.16</ele>
        <time>2019-05-23T06:13:33Z</time>
      </trkpt>
      <trkpt lat="40.39087" lon="-8.44913">
        <ele>49.16</ele>
        <time>2019-05-23T06:13:46Z</time>
      </trkpt>
      <trkpt lat="40.39095" lon="-8.44909">
        <ele>49.16</ele>
        <time>2019-05-23T06:14:00Z</time>
      </trkpt>
      <trkpt lat="40.39107" lon="-8.44899">
        <ele>48.68</ele>
        <time>2019-05-23T06:14:12Z</time>
      </trkpt>
      <trkpt lat="40.39126" lon="-8.44888">
        <ele>49.16</ele>
        <time>2019-05-23T06:14:29Z</time>
      </trkpt>
      <trkpt lat="40.3914" lon="-8.44884">
        <ele>49.65</ele>
        <time>2019-05-23T06:14:44Z</time>
      </trkpt>
      <trkpt lat="40.39153" lon="-8.44881">
        <ele>50.61</ele>
        <time>2019-05-23T06:14:57Z</time>
      </trkpt>
      <trkpt lat="40.39162" lon="-8.44877">
        <ele>51.09</ele>
        <time>2019-05-23T06:15:09Z</time>
      </trkpt>
      <trkpt lat="40.3917" lon="-8.44877">
        <ele>52.05</ele>
        <time>2019-05-23T06:15:17Z</time>
      </trkpt>
      <trkpt lat="40.39175" lon="-8.4487">
        <ele>52.05</ele>
        <time>2019-05-23T06:15:26Z</time>
      </trkpt>
      <trkpt lat="40.39181" lon="-8.44844">
        <ele>53.49</ele>
        <time>2019-05-23T06:15:42Z</time>
      </trkpt>
      <trkpt lat="40.39186" lon="-8.44833">
        <ele>55.41</ele>
        <time>2019-05-23T06:15:56Z</time>
      </trkpt>
      <trkpt lat="40.39194" lon="-8.44819">
        <ele>56.37</ele>
        <time>2019-05-23T06:16:10Z</time>
      </trkpt>
      <trkpt lat="40.39201" lon="-8.44794">
        <ele>56.86</ele>
        <time>2019-05-23T06:16:25Z</time>
      </trkpt>
      <trkpt lat="40.39206" lon="-8.44781">
        <ele>57.34</ele>
        <time>2019-05-23T06:16:37Z</time>
      </trkpt>
      <trkpt lat="40.3921" lon="-8.44771">
        <ele>57.34</ele>
        <time>2019-05-23T06:16:45Z</time>
      </trkpt>
      <trkpt lat="40.39213" lon="-8.44763">
        <ele>57.34</ele>
        <time>2019-05-23T06:16:51Z</time>
      </trkpt>
      <trkpt lat="40.39222" lon="-8.44743">
        <ele>57.34</ele>
        <time>2019-05-23T06:17:05Z</time>
      </trkpt>
      <trkpt lat="40.39231" lon="-8.44721">
        <ele>57.82</ele>
        <time>2019-05-23T06:17:21Z</time>
      </trkpt>
      <trkpt lat="40.39242" lon="-8.44697">
        <ele>57.82</ele>
        <time>2019-05-23T06:17:38Z</time>
      </trkpt>
      <trkpt lat="40.39251" lon="-8.44677">
        <ele>57.34</ele>
        <time>2019-05-23T06:17:53Z</time>
      </trkpt>
      <trkpt lat="40.39256" lon="-8.44668">
        <ele>57.34</ele>
        <time>2019-05-23T06:18:06Z</time>
      </trkpt>
      <trkpt lat="40.39266" lon="-8.4465">
        <ele>57.82</ele>
        <time>2019-05-23T06:18:20Z</time>
      </trkpt>
      <trkpt lat="40.39269" lon="-8.44644">
        <ele>57.34</ele>
        <time>2019-05-23T06:18:24Z</time>
      </trkpt>
      <trkpt lat="40.39281" lon="-8.44621">
        <ele>57.34</ele>
        <time>2019-05-23T06:18:42Z</time>
      </trkpt>
      <trkpt lat="40.39292" lon="-8.44604">
        <ele>57.34</ele>
        <time>2019-05-23T06:18:56Z</time>
      </trkpt>
      <trkpt lat="40.39303" lon="-8.44588">
        <ele>58.3</ele>
        <time>2019-05-23T06:19:10Z</time>
      </trkpt>
      <trkpt lat="40.39307" lon="-8.44584">
        <ele>57.34</ele>
        <time>2019-05-23T06:19:17Z</time>
      </trkpt>
      <trkpt lat="40.39322" lon="-8.44565">
        <ele>58.3</ele>
        <time>2019-05-23T06:19:35Z</time>
      </trkpt>
      <trkpt lat="40.39335" lon="-8.44547">
        <ele>56.86</ele>
        <time>2019-05-23T06:19:51Z</time>
      </trkpt>
      <trkpt lat="40.39347" lon="-8.44524">
        <ele>57.82</ele>
        <time>2019-05-23T06:20:08Z</time>
      </trkpt>
      <trkpt lat="40.3935" lon="-8.44517">
        <ele>57.82</ele>
        <time>2019-05-23T06:20:15Z</time>
      </trkpt>
      <trkpt lat="40.39354" lon="-8.44509">
        <ele>58.3</ele>
        <time>2019-05-23T06:20:21Z</time>
      </trkpt>
      <trkpt lat="40.39358" lon="-8.44501">
        <ele>58.3</ele>
        <time>2019-05-23T06:20:26Z</time>
      </trkpt>
      <trkpt lat="40.39365" lon="-8.44478">
        <ele>58.78</ele>
        <time>2019-05-23T06:20:41Z</time>
      </trkpt>
      <trkpt lat="40.39374" lon="-8.44451">
        <ele>59.26</ele>
        <time>2019-05-23T06:20:59Z</time>
      </trkpt>
      <trkpt lat="40.39375" lon="-8.44447">
        <ele>59.74</ele>
        <time>2019-05-23T06:21:02Z</time>
      </trkpt>
      <trkpt lat="40.39384" lon="-8.44426">
        <ele>60.22</ele>
        <time>2019-05-23T06:21:18Z</time>
      </trkpt>
      <trkpt lat="40.39389" lon="-8.44423">
        <ele>60.22</ele>
        <time>2019-05-23T06:21:28Z</time>
      </trkpt>
      <trkpt lat="40.39412" lon="-8.44422">
        <ele>61.66</ele>
        <time>2019-05-23T06:21:48Z</time>
      </trkpt>
      <trkpt lat="40.39425" lon="-8.44421">
        <ele>61.18</ele>
        <time>2019-05-23T06:22:01Z</time>
      </trkpt>
      <trkpt lat="40.39439" lon="-8.44418">
        <ele>61.18</ele>
        <time>2019-05-23T06:22:15Z</time>
      </trkpt>
      <trkpt lat="40.39454" lon="-8.44413">
        <ele>61.66</ele>
        <time>2019-05-23T06:22:27Z</time>
      </trkpt>
      <trkpt lat="40.3946" lon="-8.44408">
        <ele>61.18</ele>
        <time>2019-05-23T06:22:40Z</time>
      </trkpt>
      <trkpt lat="40.39477" lon="-8.44395">
        <ele>61.66</ele>
        <time>2019-05-23T06:22:56Z</time>
      </trkpt>
      <trkpt lat="40.39495" lon="-8.44383">
        <ele>61.18</ele>
        <time>2019-05-23T06:23:13Z</time>
      </trkpt>
      <trkpt lat="40.3951" lon="-8.44371">
        <ele>61.66</ele>
        <time>2019-05-23T06:23:28Z</time>
      </trkpt>
      <trkpt lat="40.39524" lon="-8.44359">
        <ele>62.62</ele>
        <time>2019-05-23T06:23:42Z</time>
      </trkpt>
      <trkpt lat="40.39536" lon="-8.44341">
        <ele>62.62</ele>
        <time>2019-05-23T06:23:57Z</time>
      </trkpt>
      <trkpt lat="40.39547" lon="-8.44326">
        <ele>63.1</ele>
        <time>2019-05-23T06:24:11Z</time>
      </trkpt>
      <trkpt lat="40.39552" lon="-8.44303">
        <ele>64.07</ele>
        <time>2019-05-23T06:24:28Z</time>
      </trkpt>
      <trkpt lat="40.39555" lon="-8.44291">
        <ele>64.07</ele>
        <time>2019-05-23T06:24:42Z</time>
      </trkpt>
      <trkpt lat="40.39555" lon="-8.4429">
        <ele>64.07</ele>
        <time>2019-05-23T06:24:43Z</time>
      </trkpt>
      <trkpt lat="40.39559" lon="-8.44272">
        <ele>65.03</ele>
        <time>2019-05-23T06:24:55Z</time>
      </trkpt>
      <trkpt lat="40.39566" lon="-8.44251">
        <ele>64.55</ele>
        <time>2019-05-23T06:25:12Z</time>
      </trkpt>
      <trkpt lat="40.39578" lon="-8.44243">
        <ele>65.03</ele>
        <time>2019-05-23T06:25:27Z</time>
      </trkpt>
      <trkpt lat="40.39595" lon="-8.44241">
        <ele>66.47</ele>
        <time>2019-05-23T06:25:42Z</time>
      </trkpt>
      <trkpt lat="40.39601" lon="-8.44242">
        <ele>66.95</ele>
        <time>2019-05-23T06:25:48Z</time>
      </trkpt>
      <trkpt lat="40.39627" lon="-8.4425">
        <ele>67.43</ele>
        <time>2019-05-23T06:26:06Z</time>
      </trkpt>
      <trkpt lat="40.39641" lon="-8.44254">
        <ele>66.95</ele>
        <time>2019-05-23T06:26:20Z</time>
      </trkpt>
      <trkpt lat="40.39642" lon="-8.44255">
        <ele>66.95</ele>
        <time>2019-05-23T06:26:21Z</time>
      </trkpt>
      <trkpt lat="40.39644" lon="-8.44256">
        <ele>66.95</ele>
        <time>2019-05-23T06:26:23Z</time>
      </trkpt>
      <trkpt lat="40.3965" lon="-8.44261">
        <ele>65.99</ele>
        <time>2019-05-23T06:26:29Z</time>
      </trkpt>
      <trkpt lat="40.39664" lon="-8.44281">
        <ele>64.55</ele>
        <time>2019-05-23T06:26:46Z</time>
      </trkpt>
      <trkpt lat="40.3967" lon="-8.44291">
        <ele>63.58</ele>
        <time>2019-05-23T06:26:54Z</time>
      </trkpt>
      <trkpt lat="40.39683" lon="-8.44306">
        <ele>62.62</ele>
        <time>2019-05-23T06:27:08Z</time>
      </trkpt>
      <trkpt lat="40.39701" lon="-8.44315">
        <ele>62.62</ele>
        <time>2019-05-23T06:27:24Z</time>
      </trkpt>
      <trkpt lat="40.3972" lon="-8.44315">
        <ele>64.55</ele>
        <time>2019-05-23T06:27:40Z</time>
      </trkpt>
      <trkpt lat="40.39739" lon="-8.44303">
        <ele>65.03</ele>
        <time>2019-05-23T06:27:57Z</time>
      </trkpt>
      <trkpt lat="40.39746" lon="-8.44298">
        <ele>63.58</ele>
        <time>2019-05-23T06:28:14Z</time>
      </trkpt>
      <trkpt lat="40.39746" lon="-8.44298">
        <ele>63.58</ele>
        <time>2019-05-23T06:28:48Z</time>
      </trkpt>
      <trkpt lat="40.39748" lon="-8.44297">
        <ele>63.1</ele>
        <time>2019-05-23T06:29:26Z</time>
      </trkpt>
      <trkpt lat="40.39749" lon="-8.44297">
        <ele>63.58</ele>
        <time>2019-05-23T06:29:57Z</time>
      </trkpt>
      <trkpt lat="40.39749" lon="-8.44296">
        <ele>63.58</ele>
        <time>2019-05-23T06:30:30Z</time>
      </trkpt>
      <trkpt lat="40.39748" lon="-8.44299">
        <ele>63.58</ele>
        <time>2019-05-23T06:30:41Z</time>
      </trkpt>
      <trkpt lat="40.39749" lon="-8.443">
        <ele>64.07</ele>
        <time>2019-05-23T06:31:06Z</time>
      </trkpt>
      <trkpt lat="40.39746" lon="-8.443">
        <ele>64.07</ele>
        <time>2019-05-23T06:31:26Z</time>
      </trkpt>
      <trkpt lat="40.39745" lon="-8.443">
        <ele>64.55</ele>
        <time>2019-05-23T06:31:42Z</time>
      </trkpt>
      <trkpt lat="40.39746" lon="-8.44301">
        <ele>59.74</ele>
        <time>2019-05-23T06:31:47Z</time>
      </trkpt>
      <trkpt lat="40.39745" lon="-8.44302">
        <ele>69.83</ele>
        <time>2019-05-23T06:31:48Z</time>
      </trkpt>
      <trkpt lat="40.39745" lon="-8.44301">
        <ele>64.55</ele>
        <time>2019-05-23T06:31:49Z</time>
      </trkpt>
      <trkpt lat="40.39752" lon="-8.44293">
        <ele>64.55</ele>
        <time>2019-05-23T06:32:03Z</time>
      </trkpt>
      <trkpt lat="40.39754" lon="-8.4429">
        <ele>64.07</ele>
        <time>2019-05-23T06:32:06Z</time>
      </trkpt>
      <trkpt lat="40.39757" lon="-8.44288">
        <ele>64.07</ele>
        <time>2019-05-23T06:32:09Z</time>
      </trkpt>
      <trkpt lat="40.39766" lon="-8.44278">
        <ele>63.58</ele>
        <time>2019-05-23T06:32:21Z</time>
      </trkpt>
      <trkpt lat="40.39768" lon="-8.44276">
        <ele>63.58</ele>
        <time>2019-05-23T06:32:24Z</time>
      </trkpt>
      <trkpt lat="40.39782" lon="-8.44262">
        <ele>62.62</ele>
        <time>2019-05-23T06:32:42Z</time>
      </trkpt>
      <trkpt lat="40.39794" lon="-8.44263">
        <ele>63.58</ele>
        <time>2019-05-23T06:32:55Z</time>
      </trkpt>
      <trkpt lat="40.39806" lon="-8.44272">
        <ele>64.55</ele>
        <time>2019-05-23T06:33:08Z</time>
      </trkpt>
      <trkpt lat="40.39822" lon="-8.44281">
        <ele>66.47</ele>
        <time>2019-05-23T06:33:22Z</time>
      </trkpt>
      <trkpt lat="40.39832" lon="-8.44292">
        <ele>65.99</ele>
        <time>2019-05-23T06:33:33Z</time>
      </trkpt>
      <trkpt lat="40.3984" lon="-8.44299">
        <ele>66.47</ele>
        <time>2019-05-23T06:33:45Z</time>
      </trkpt>
      <trkpt lat="40.39845" lon="-8.44305">
        <ele>65.99</ele>
        <time>2019-05-23T06:33:58Z</time>
      </trkpt>
      <trkpt lat="40.39847" lon="-8.44307">
        <ele>66.47</ele>
        <time>2019-05-23T06:34:01Z</time>
      </trkpt>
      <trkpt lat="40.3985" lon="-8.44308">
        <ele>65.51</ele>
        <time>2019-05-23T06:34:03Z</time>
      </trkpt>
      <trkpt lat="40.39867" lon="-8.44321">
        <ele>65.03</ele>
        <time>2019-05-23T06:34:19Z</time>
      </trkpt>
      <trkpt lat="40.39872" lon="-8.44328">
        <ele>64.55</ele>
        <time>2019-05-23T06:34:24Z</time>
      </trkpt>
      <trkpt lat="40.39884" lon="-8.44338">
        <ele>64.55</ele>
        <time>2019-05-23T06:34:36Z</time>
      </trkpt>
      <trkpt lat="40.39894" lon="-8.44346">
        <ele>64.07</ele>
        <time>2019-05-23T06:34:46Z</time>
      </trkpt>
      <trkpt lat="40.39899" lon="-8.44345">
        <ele>64.07</ele>
        <time>2019-05-23T06:34:50Z</time>
      </trkpt>
      <trkpt lat="40.39916" lon="-8.44343">
        <ele>63.58</ele>
        <time>2019-05-23T06:35:04Z</time>
      </trkpt>
      <trkpt lat="40.39931" lon="-8.44346">
        <ele>64.07</ele>
        <time>2019-05-23T06:35:18Z</time>
      </trkpt>
      <trkpt lat="40.39932" lon="-8.44347">
        <ele>63.58</ele>
        <time>2019-05-23T06:35:19Z</time>
      </trkpt>
      <trkpt lat="40.39951" lon="-8.44366">
        <ele>65.51</ele>
        <time>2019-05-23T06:35:38Z</time>
      </trkpt>
      <trkpt lat="40.39958" lon="-8.44378">
        <ele>64.55</ele>
        <time>2019-05-23T06:35:53Z</time>
      </trkpt>
      <trkpt lat="40.39965" lon="-8.44393">
        <ele>63.1</ele>
        <time>2019-05-23T06:36:05Z</time>
      </trkpt>
      <trkpt lat="40.39971" lon="-8.44405">
        <ele>62.14</ele>
        <time>2019-05-23T06:36:14Z</time>
      </trkpt>
      <trkpt lat="40.39984" lon="-8.44411">
        <ele>60.7</ele>
        <time>2019-05-23T06:36:29Z</time>
      </trkpt>
      <trkpt lat="40.39985" lon="-8.44412">
        <ele>60.7</ele>
        <time>2019-05-23T06:36:30Z</time>
      </trkpt>
      <trkpt lat="40.4001" lon="-8.44406">
        <ele>60.7</ele>
        <time>2019-05-23T06:36:46Z</time>
      </trkpt>
      <trkpt lat="40.40026" lon="-8.44412">
        <ele>60.7</ele>
        <time>2019-05-23T06:37:00Z</time>
      </trkpt>
      <trkpt lat="40.40034" lon="-8.44416">
        <ele>60.22</ele>
        <time>2019-05-23T06:37:07Z</time>
      </trkpt>
      <trkpt lat="40.40043" lon="-8.44433">
        <ele>60.7</ele>
        <time>2019-05-23T06:37:20Z</time>
      </trkpt>
      <trkpt lat="40.40049" lon="-8.44451">
        <ele>61.66</ele>
        <time>2019-05-23T06:37:33Z</time>
      </trkpt>
      <trkpt lat="40.4005" lon="-8.44452">
        <ele>61.18</ele>
        <time>2019-05-23T06:37:34Z</time>
      </trkpt>
      <trkpt lat="40.4006" lon="-8.44465">
        <ele>62.62</ele>
        <time>2019-05-23T06:37:47Z</time>
      </trkpt>
      <trkpt lat="40.40071" lon="-8.44476">
        <ele>62.62</ele>
        <time>2019-05-23T06:38:00Z</time>
      </trkpt>
      <trkpt lat="40.40087" lon="-8.44484">
        <ele>63.1</ele>
        <time>2019-05-23T06:38:15Z</time>
      </trkpt>
      <trkpt lat="40.4011" lon="-8.4448">
        <ele>63.58</ele>
        <time>2019-05-23T06:38:31Z</time>
      </trkpt>
      <trkpt lat="40.40111" lon="-8.44481">
        <ele>63.1</ele>
        <time>2019-05-23T06:38:32Z</time>
      </trkpt>
      <trkpt lat="40.40116" lon="-8.44484">
        <ele>63.1</ele>
        <time>2019-05-23T06:38:46Z</time>
      </trkpt>
      <trkpt lat="40.40117" lon="-8.44486">
        <ele>63.58</ele>
        <time>2019-05-23T06:38:59Z</time>
      </trkpt>
      <trkpt lat="40.40123" lon="-8.44504">
        <ele>62.62</ele>
        <time>2019-05-23T06:39:11Z</time>
      </trkpt>
      <trkpt lat="40.40126" lon="-8.44512">
        <ele>62.14</ele>
        <time>2019-05-23T06:39:16Z</time>
      </trkpt>
      <trkpt lat="40.40141" lon="-8.44534">
        <ele>61.66</ele>
        <time>2019-05-23T06:39:34Z</time>
      </trkpt>
      <trkpt lat="40.4015" lon="-8.44548">
        <ele>61.66</ele>
        <time>2019-05-23T06:39:45Z</time>
      </trkpt>
      <trkpt lat="40.40156" lon="-8.44558">
        <ele>61.18</ele>
        <time>2019-05-23T06:39:52Z</time>
      </trkpt>
      <trkpt lat="40.40157" lon="-8.44561">
        <ele>61.18</ele>
        <time>2019-05-23T06:39:54Z</time>
      </trkpt>
      <trkpt lat="40.40163" lon="-8.44576">
        <ele>60.22</ele>
        <time>2019-05-23T06:40:05Z</time>
      </trkpt>
      <trkpt lat="40.40165" lon="-8.44585">
        <ele>60.22</ele>
        <time>2019-05-23T06:40:10Z</time>
      </trkpt>
      <trkpt lat="40.40174" lon="-8.44602">
        <ele>60.22</ele>
        <time>2019-05-23T06:40:22Z</time>
      </trkpt>
      <trkpt lat="40.40179" lon="-8.44615">
        <ele>59.26</ele>
        <time>2019-05-23T06:40:34Z</time>
      </trkpt>
      <trkpt lat="40.40181" lon="-8.44617">
        <ele>60.22</ele>
        <time>2019-05-23T06:40:37Z</time>
      </trkpt>
      <trkpt lat="40.40182" lon="-8.44619">
        <ele>60.22</ele>
        <time>2019-05-23T06:40:38Z</time>
      </trkpt>
      <trkpt lat="40.40184" lon="-8.44623">
        <ele>59.74</ele>
        <time>2019-05-23T06:40:41Z</time>
      </trkpt>
      <trkpt lat="40.40185" lon="-8.44624">
        <ele>59.74</ele>
        <time>2019-05-23T06:40:42Z</time>
      </trkpt>
      <trkpt lat="40.40186" lon="-8.44627">
        <ele>58.78</ele>
        <time>2019-05-23T06:40:44Z</time>
      </trkpt>
      <trkpt lat="40.40186" lon="-8.44629">
        <ele>59.26</ele>
        <time>2019-05-23T06:40:45Z</time>
      </trkpt>
      <trkpt lat="40.40187" lon="-8.44631">
        <ele>59.26</ele>
        <time>2019-05-23T06:40:46Z</time>
      </trkpt>
      <trkpt lat="40.40196" lon="-8.44646">
        <ele>58.78</ele>
        <time>2019-05-23T06:40:58Z</time>
      </trkpt>
      <trkpt lat="40.40204" lon="-8.44668">
        <ele>59.74</ele>
        <time>2019-05-23T06:41:11Z</time>
      </trkpt>
      <trkpt lat="40.40205" lon="-8.44671">
        <ele>59.74</ele>
        <time>2019-05-23T06:41:13Z</time>
      </trkpt>
      <trkpt lat="40.40205" lon="-8.44672">
        <ele>58.78</ele>
        <time>2019-05-23T06:41:14Z</time>
      </trkpt>
      <trkpt lat="40.40206" lon="-8.44674">
        <ele>59.26</ele>
        <time>2019-05-23T06:41:15Z</time>
      </trkpt>
      <trkpt lat="40.40206" lon="-8.44675">
        <ele>58.78</ele>
        <time>2019-05-23T06:41:16Z</time>
      </trkpt>
      <trkpt lat="40.40207" lon="-8.44677">
        <ele>59.26</ele>
        <time>2019-05-23T06:41:17Z</time>
      </trkpt>
      <trkpt lat="40.40217" lon="-8.44696">
        <ele>58.3</ele>
        <time>2019-05-23T06:41:30Z</time>
      </trkpt>
      <trkpt lat="40.4022" lon="-8.44701">
        <ele>58.3</ele>
        <time>2019-05-23T06:41:35Z</time>
      </trkpt>
      <trkpt lat="40.40221" lon="-8.44703">
        <ele>57.82</ele>
        <time>2019-05-23T06:41:36Z</time>
      </trkpt>
      <trkpt lat="40.40222" lon="-8.44704">
        <ele>57.82</ele>
        <time>2019-05-23T06:41:37Z</time>
      </trkpt>
      <trkpt lat="40.40226" lon="-8.4471">
        <ele>59.26</ele>
        <time>2019-05-23T06:41:42Z</time>
      </trkpt>
      <trkpt lat="40.40226" lon="-8.44712">
        <ele>58.78</ele>
        <time>2019-05-23T06:41:43Z</time>
      </trkpt>
      <trkpt lat="40.40227" lon="-8.44714">
        <ele>58.78</ele>
        <time>2019-05-23T06:41:44Z</time>
      </trkpt>
      <trkpt lat="40.40227" lon="-8.44715">
        <ele>58.78</ele>
        <time>2019-05-23T06:41:45Z</time>
      </trkpt>
      <trkpt lat="40.40228" lon="-8.44717">
        <ele>59.26</ele>
        <time>2019-05-23T06:41:46Z</time>
      </trkpt>
      <trkpt lat="40.40229" lon="-8.44719">
        <ele>58.3</ele>
        <time>2019-05-23T06:41:47Z</time>
      </trkpt>
      <trkpt lat="40.40229" lon="-8.44721">
        <ele>58.3</ele>
        <time>2019-05-23T06:41:48Z</time>
      </trkpt>
      <trkpt lat="40.4023" lon="-8.44722">
        <ele>58.78</ele>
        <time>2019-05-23T06:41:49Z</time>
      </trkpt>
      <trkpt lat="40.40233" lon="-8.44728">
        <ele>58.78</ele>
        <time>2019-05-23T06:41:53Z</time>
      </trkpt>
      <trkpt lat="40.40242" lon="-8.44748">
        <ele>59.26</ele>
        <time>2019-05-23T06:42:08Z</time>
      </trkpt>
      <trkpt lat="40.40247" lon="-8.44768">
        <ele>59.74</ele>
        <time>2019-05-23T06:42:20Z</time>
      </trkpt>
      <trkpt lat="40.40247" lon="-8.44769">
        <ele>60.22</ele>
        <time>2019-05-23T06:42:21Z</time>
      </trkpt>
      <trkpt lat="40.40247" lon="-8.44771">
        <ele>58.78</ele>
        <time>2019-05-23T06:42:22Z</time>
      </trkpt>
      <trkpt lat="40.40248" lon="-8.44774">
        <ele>59.26</ele>
        <time>2019-05-23T06:42:24Z</time>
      </trkpt>
      <trkpt lat="40.40248" lon="-8.44775">
        <ele>59.74</ele>
        <time>2019-05-23T06:42:25Z</time>
      </trkpt>
      <trkpt lat="40.40249" lon="-8.44777">
        <ele>59.74</ele>
        <time>2019-05-23T06:42:26Z</time>
      </trkpt>
      <trkpt lat="40.40253" lon="-8.44797">
        <ele>59.74</ele>
        <time>2019-05-23T06:42:39Z</time>
      </trkpt>
      <trkpt lat="40.40254" lon="-8.44802">
        <ele>59.26</ele>
        <time>2019-05-23T06:42:42Z</time>
      </trkpt>
      <trkpt lat="40.40255" lon="-8.44803">
        <ele>59.26</ele>
        <time>2019-05-23T06:42:43Z</time>
      </trkpt>
      <trkpt lat="40.40258" lon="-8.44809">
        <ele>58.78</ele>
        <time>2019-05-23T06:42:59Z</time>
      </trkpt>
      <trkpt lat="40.40257" lon="-8.44821">
        <ele>59.26</ele>
        <time>2019-05-23T06:43:23Z</time>
      </trkpt>
      <trkpt lat="40.40259" lon="-8.44828">
        <ele>58.78</ele>
        <time>2019-05-23T06:43:36Z</time>
      </trkpt>
      <trkpt lat="40.40258" lon="-8.44831">
        <ele>58.3</ele>
        <time>2019-05-23T06:43:52Z</time>
      </trkpt>
      <trkpt lat="40.40259" lon="-8.44832">
        <ele>58.78</ele>
        <time>2019-05-23T06:44:16Z</time>
      </trkpt>
      <trkpt lat="40.40274" lon="-8.44824">
        <ele>56.86</ele>
        <time>2019-05-23T06:44:29Z</time>
      </trkpt>
      <trkpt lat="40.40286" lon="-8.44818">
        <ele>54.93</ele>
        <time>2019-05-23T06:44:41Z</time>
      </trkpt>
      <trkpt lat="40.40292" lon="-8.44816">
        <ele>55.41</ele>
        <time>2019-05-23T06:44:55Z</time>
      </trkpt>
      <trkpt lat="40.40304" lon="-8.44811">
        <ele>53.49</ele>
        <time>2019-05-23T06:45:04Z</time>
      </trkpt>
      <trkpt lat="40.4032" lon="-8.4481">
        <ele>51.57</ele>
        <time>2019-05-23T06:45:15Z</time>
      </trkpt>
      <trkpt lat="40.40321" lon="-8.4481">
        <ele>52.53</ele>
        <time>2019-05-23T06:45:16Z</time>
      </trkpt>
      <trkpt lat="40.40323" lon="-8.44811">
        <ele>52.05</ele>
        <time>2019-05-23T06:45:17Z</time>
      </trkpt>
      <trkpt lat="40.40324" lon="-8.44811">
        <ele>51.57</ele>
        <time>2019-05-23T06:45:18Z</time>
      </trkpt>
      <trkpt lat="40.40334" lon="-8.44813">
        <ele>50.61</ele>
        <time>2019-05-23T06:45:31Z</time>
      </trkpt>
      <trkpt lat="40.40337" lon="-8.44811">
        <ele>50.13</ele>
        <time>2019-05-23T06:45:34Z</time>
      </trkpt>
      <trkpt lat="40.40341" lon="-8.44808">
        <ele>49.65</ele>
        <time>2019-05-23T06:45:37Z</time>
      </trkpt>
      <trkpt lat="40.40342" lon="-8.44808">
        <ele>50.13</ele>
        <time>2019-05-23T06:45:38Z</time>
      </trkpt>
      <trkpt lat="40.40343" lon="-8.44807">
        <ele>49.65</ele>
        <time>2019-05-23T06:45:39Z</time>
      </trkpt>
      <trkpt lat="40.40356" lon="-8.44788">
        <ele>50.13</ele>
        <time>2019-05-23T06:45:54Z</time>
      </trkpt>
      <trkpt lat="40.40359" lon="-8.44776">
        <ele>50.13</ele>
        <time>2019-05-23T06:46:08Z</time>
      </trkpt>
      <trkpt lat="40.40358" lon="-8.44778">
        <ele>49.65</ele>
        <time>2019-05-23T06:46:31Z</time>
      </trkpt>
      <trkpt lat="40.40358" lon="-8.44773">
        <ele>49.65</ele>
        <time>2019-05-23T06:46:50Z</time>
      </trkpt>
      <trkpt lat="40.40362" lon="-8.44756">
        <ele>49.65</ele>
        <time>2019-05-23T06:47:04Z</time>
      </trkpt>
      <trkpt lat="40.40365" lon="-8.4473">
        <ele>49.65</ele>
        <time>2019-05-23T06:47:20Z</time>
      </trkpt>
      <trkpt lat="40.4037" lon="-8.44703">
        <ele>50.13</ele>
        <time>2019-05-23T06:47:36Z</time>
      </trkpt>
      <trkpt lat="40.40377" lon="-8.44681">
        <ele>50.61</ele>
        <time>2019-05-23T06:47:51Z</time>
      </trkpt>
      <trkpt lat="40.40377" lon="-8.4468">
        <ele>50.13</ele>
        <time>2019-05-23T06:47:52Z</time>
      </trkpt>
      <trkpt lat="40.40378" lon="-8.44679">
        <ele>50.61</ele>
        <time>2019-05-23T06:47:53Z</time>
      </trkpt>
      <trkpt lat="40.40378" lon="-8.44677">
        <ele>49.65</ele>
        <time>2019-05-23T06:47:54Z</time>
      </trkpt>
      <trkpt lat="40.40379" lon="-8.44676">
        <ele>49.65</ele>
        <time>2019-05-23T06:47:55Z</time>
      </trkpt>
      <trkpt lat="40.4038" lon="-8.44674">
        <ele>49.65</ele>
        <time>2019-05-23T06:47:56Z</time>
      </trkpt>
      <trkpt lat="40.40381" lon="-8.44673">
        <ele>49.65</ele>
        <time>2019-05-23T06:47:57Z</time>
      </trkpt>
      <trkpt lat="40.40381" lon="-8.44671">
        <ele>49.65</ele>
        <time>2019-05-23T06:47:58Z</time>
      </trkpt>
      <trkpt lat="40.40388" lon="-8.44647">
        <ele>50.61</ele>
        <time>2019-05-23T06:48:13Z</time>
      </trkpt>
      <trkpt lat="40.40398" lon="-8.44622">
        <ele>51.09</ele>
        <time>2019-05-23T06:48:30Z</time>
      </trkpt>
      <trkpt lat="40.404" lon="-8.44619">
        <ele>50.61</ele>
        <time>2019-05-23T06:48:33Z</time>
      </trkpt>
      <trkpt lat="40.40401" lon="-8.44618">
        <ele>50.61</ele>
        <time>2019-05-23T06:48:34Z</time>
      </trkpt>
      <trkpt lat="40.40402" lon="-8.44617">
        <ele>50.61</ele>
        <time>2019-05-23T06:48:35Z</time>
      </trkpt>
      <trkpt lat="40.40403" lon="-8.44617">
        <ele>51.09</ele>
        <time>2019-05-23T06:48:36Z</time>
      </trkpt>
      <trkpt lat="40.40404" lon="-8.44616">
        <ele>50.13</ele>
        <time>2019-05-23T06:48:37Z</time>
      </trkpt>
      <trkpt lat="40.40414" lon="-8.44614">
        <ele>50.13</ele>
        <time>2019-05-23T06:48:51Z</time>
      </trkpt>
      <trkpt lat="40.40423" lon="-8.44612">
        <ele>49.65</ele>
        <time>2019-05-23T06:49:08Z</time>
      </trkpt>
      <trkpt lat="40.40424" lon="-8.44612">
        <ele>49.65</ele>
        <time>2019-05-23T06:49:09Z</time>
      </trkpt>
      <trkpt lat="40.40426" lon="-8.44612">
        <ele>49.65</ele>
        <time>2019-05-23T06:49:10Z</time>
      </trkpt>
      <trkpt lat="40.40427" lon="-8.44611">
        <ele>50.13</ele>
        <time>2019-05-23T06:49:11Z</time>
      </trkpt>
      <trkpt lat="40.40428" lon="-8.44611">
        <ele>49.16</ele>
        <time>2019-05-23T06:49:12Z</time>
      </trkpt>
      <trkpt lat="40.40445" lon="-8.44612">
        <ele>49.65</ele>
        <time>2019-05-23T06:49:26Z</time>
      </trkpt>
      <trkpt lat="40.40464" lon="-8.44613">
        <ele>49.65</ele>
        <time>2019-05-23T06:49:41Z</time>
      </trkpt>
      <trkpt lat="40.40469" lon="-8.44613">
        <ele>49.65</ele>
        <time>2019-05-23T06:49:45Z</time>
      </trkpt>
      <trkpt lat="40.40471" lon="-8.44613">
        <ele>49.16</ele>
        <time>2019-05-23T06:49:47Z</time>
      </trkpt>
      <trkpt lat="40.40473" lon="-8.44613">
        <ele>49.65</ele>
        <time>2019-05-23T06:49:48Z</time>
      </trkpt>
      <trkpt lat="40.40474" lon="-8.44612">
        <ele>49.65</ele>
        <time>2019-05-23T06:49:49Z</time>
      </trkpt>
      <trkpt lat="40.40476" lon="-8.44612">
        <ele>49.16</ele>
        <time>2019-05-23T06:49:50Z</time>
      </trkpt>
      <trkpt lat="40.40478" lon="-8.44612">
        <ele>49.65</ele>
        <time>2019-05-23T06:49:51Z</time>
      </trkpt>
      <trkpt lat="40.40479" lon="-8.44613">
        <ele>49.16</ele>
        <time>2019-05-23T06:49:52Z</time>
      </trkpt>
      <trkpt lat="40.40498" lon="-8.44612">
        <ele>49.16</ele>
        <time>2019-05-23T06:50:07Z</time>
      </trkpt>
      <trkpt lat="40.40505" lon="-8.44612">
        <ele>49.65</ele>
        <time>2019-05-23T06:50:21Z</time>
      </trkpt>
      <trkpt lat="40.4052" lon="-8.44612">
        <ele>49.16</ele>
        <time>2019-05-23T06:50:33Z</time>
      </trkpt>
      <trkpt lat="40.40524" lon="-8.44611">
        <ele>49.16</ele>
        <time>2019-05-23T06:50:36Z</time>
      </trkpt>
      <trkpt lat="40.40542" lon="-8.4461">
        <ele>49.16</ele>
        <time>2019-05-23T06:50:49Z</time>
      </trkpt>
      <trkpt lat="40.40555" lon="-8.44596">
        <ele>49.16</ele>
        <time>2019-05-23T06:51:03Z</time>
      </trkpt>
      <trkpt lat="40.40557" lon="-8.44592">
        <ele>49.65</ele>
        <time>2019-05-23T06:51:06Z</time>
      </trkpt>
      <trkpt lat="40.40558" lon="-8.4459">
        <ele>49.65</ele>
        <time>2019-05-23T06:51:07Z</time>
      </trkpt>
      <trkpt lat="40.40559" lon="-8.44589">
        <ele>49.65</ele>
        <time>2019-05-23T06:51:08Z</time>
      </trkpt>
      <trkpt lat="40.4056" lon="-8.44587">
        <ele>50.13</ele>
        <time>2019-05-23T06:51:09Z</time>
      </trkpt>
      <trkpt lat="40.40561" lon="-8.44586">
        <ele>49.16</ele>
        <time>2019-05-23T06:51:10Z</time>
      </trkpt>
      <trkpt lat="40.40562" lon="-8.44585">
        <ele>50.13</ele>
        <time>2019-05-23T06:51:11Z</time>
      </trkpt>
      <trkpt lat="40.40563" lon="-8.44583">
        <ele>49.65</ele>
        <time>2019-05-23T06:51:12Z</time>
      </trkpt>
      <trkpt lat="40.40564" lon="-8.44582">
        <ele>49.65</ele>
        <time>2019-05-23T06:51:13Z</time>
      </trkpt>
      <trkpt lat="40.40565" lon="-8.4458">
        <ele>49.65</ele>
        <time>2019-05-23T06:51:14Z</time>
      </trkpt>
      <trkpt lat="40.40565" lon="-8.44579">
        <ele>48.68</ele>
        <time>2019-05-23T06:51:15Z</time>
      </trkpt>
      <trkpt lat="40.4057" lon="-8.44564">
        <ele>50.13</ele>
        <time>2019-05-23T06:51:25Z</time>
      </trkpt>
      <trkpt lat="40.40578" lon="-8.44553">
        <ele>49.16</ele>
        <time>2019-05-23T06:51:34Z</time>
      </trkpt>
      <trkpt lat="40.40591" lon="-8.44545">
        <ele>50.61</ele>
        <time>2019-05-23T06:51:46Z</time>
      </trkpt>
      <trkpt lat="40.40596" lon="-8.44544">
        <ele>49.65</ele>
        <time>2019-05-23T06:52:00Z</time>
      </trkpt>
      <trkpt lat="40.40606" lon="-8.44541">
        <ele>49.65</ele>
        <time>2019-05-23T06:52:07Z</time>
      </trkpt>
      <trkpt lat="40.40607" lon="-8.44542">
        <ele>50.61</ele>
        <time>2019-05-23T06:52:08Z</time>
      </trkpt>
      <trkpt lat="40.40609" lon="-8.44542">
        <ele>49.65</ele>
        <time>2019-05-23T06:52:09Z</time>
      </trkpt>
      <trkpt lat="40.4061" lon="-8.44542">
        <ele>49.16</ele>
        <time>2019-05-23T06:52:10Z</time>
      </trkpt>
      <trkpt lat="40.40627" lon="-8.44547">
        <ele>50.13</ele>
        <time>2019-05-23T06:52:23Z</time>
      </trkpt>
      <trkpt lat="40.40646" lon="-8.44558">
        <ele>50.61</ele>
        <time>2019-05-23T06:52:39Z</time>
      </trkpt>
      <trkpt lat="40.40663" lon="-8.44566">
        <ele>51.09</ele>
        <time>2019-05-23T06:52:53Z</time>
      </trkpt>
      <trkpt lat="40.40681" lon="-8.44572">
        <ele>51.57</ele>
        <time>2019-05-23T06:53:09Z</time>
      </trkpt>
      <trkpt lat="40.40682" lon="-8.44572">
        <ele>51.09</ele>
        <time>2019-05-23T06:53:10Z</time>
      </trkpt>
      <trkpt lat="40.40684" lon="-8.44572">
        <ele>52.05</ele>
        <time>2019-05-23T06:53:11Z</time>
      </trkpt>
      <trkpt lat="40.40686" lon="-8.44571">
        <ele>52.05</ele>
        <time>2019-05-23T06:53:13Z</time>
      </trkpt>
      <trkpt lat="40.40687" lon="-8.44571">
        <ele>51.57</ele>
        <time>2019-05-23T06:53:14Z</time>
      </trkpt>
      <trkpt lat="40.40693" lon="-8.44573">
        <ele>52.53</ele>
        <time>2019-05-23T06:53:26Z</time>
      </trkpt>
      <trkpt lat="40.40705" lon="-8.44576">
        <ele>51.57</ele>
        <time>2019-05-23T06:53:36Z</time>
      </trkpt>
      <trkpt lat="40.40706" lon="-8.44576">
        <ele>52.53</ele>
        <time>2019-05-23T06:53:37Z</time>
      </trkpt>
      <trkpt lat="40.40707" lon="-8.44576">
        <ele>51.57</ele>
        <time>2019-05-23T06:53:38Z</time>
      </trkpt>
      <trkpt lat="40.40709" lon="-8.44577">
        <ele>52.05</ele>
        <time>2019-05-23T06:53:39Z</time>
      </trkpt>
      <trkpt lat="40.4071" lon="-8.44577">
        <ele>52.05</ele>
        <time>2019-05-23T06:53:40Z</time>
      </trkpt>
      <trkpt lat="40.40711" lon="-8.44577">
        <ele>52.05</ele>
        <time>2019-05-23T06:53:41Z</time>
      </trkpt>
      <trkpt lat="40.40712" lon="-8.44577">
        <ele>51.57</ele>
        <time>2019-05-23T06:53:42Z</time>
      </trkpt>
      <trkpt lat="40.40734" lon="-8.44578">
        <ele>52.53</ele>
        <time>2019-05-23T06:53:59Z</time>
      </trkpt>
      <trkpt lat="40.40754" lon="-8.44579">
        <ele>53.01</ele>
        <time>2019-05-23T06:54:15Z</time>
      </trkpt>
      <trkpt lat="40.40772" lon="-8.44579">
        <ele>53.49</ele>
        <time>2019-05-23T06:54:30Z</time>
      </trkpt>
      <trkpt lat="40.40791" lon="-8.4458">
        <ele>53.97</ele>
        <time>2019-05-23T06:54:45Z</time>
      </trkpt>
      <trkpt lat="40.40809" lon="-8.44579">
        <ele>54.45</ele>
        <time>2019-05-23T06:55:00Z</time>
      </trkpt>
      <trkpt lat="40.40828" lon="-8.44572">
        <ele>54.45</ele>
        <time>2019-05-23T06:55:16Z</time>
      </trkpt>
      <trkpt lat="40.4084" lon="-8.44567">
        <ele>54.93</ele>
        <time>2019-05-23T06:55:30Z</time>
      </trkpt>
      <trkpt lat="40.40843" lon="-8.44567">
        <ele>54.93</ele>
        <time>2019-05-23T06:55:56Z</time>
      </trkpt>
      <trkpt lat="40.4086" lon="-8.44558">
        <ele>55.41</ele>
        <time>2019-05-23T06:56:10Z</time>
      </trkpt>
      <trkpt lat="40.4088" lon="-8.44549">
        <ele>55.41</ele>
        <time>2019-05-23T06:56:27Z</time>
      </trkpt>
      <trkpt lat="40.40899" lon="-8.44541">
        <ele>55.89</ele>
        <time>2019-05-23T06:56:42Z</time>
      </trkpt>
      <trkpt lat="40.40918" lon="-8.44533">
        <ele>56.37</ele>
        <time>2019-05-23T06:56:59Z</time>
      </trkpt>
      <trkpt lat="40.40936" lon="-8.44525">
        <ele>56.86</ele>
        <time>2019-05-23T06:57:14Z</time>
      </trkpt>
      <trkpt lat="40.40955" lon="-8.4452">
        <ele>56.86</ele>
        <time>2019-05-23T06:57:29Z</time>
      </trkpt>
      <trkpt lat="40.40975" lon="-8.44514">
        <ele>57.82</ele>
        <time>2019-05-23T06:57:44Z</time>
      </trkpt>
      <trkpt lat="40.40994" lon="-8.44507">
        <ele>58.78</ele>
        <time>2019-05-23T06:58:01Z</time>
      </trkpt>
      <trkpt lat="40.41" lon="-8.44501">
        <ele>58.78</ele>
        <time>2019-05-23T06:58:14Z</time>
      </trkpt>
      <trkpt lat="40.41004" lon="-8.44502">
        <ele>59.26</ele>
        <time>2019-05-23T06:58:20Z</time>
      </trkpt>
      <trkpt lat="40.41005" lon="-8.44503">
        <ele>59.26</ele>
        <time>2019-05-23T06:58:21Z</time>
      </trkpt>
      <trkpt lat="40.41008" lon="-8.44502">
        <ele>57.82</ele>
        <time>2019-05-23T06:58:23Z</time>
      </trkpt>
      <trkpt lat="40.41024" lon="-8.44498">
        <ele>59.74</ele>
        <time>2019-05-23T06:58:36Z</time>
      </trkpt>
      <trkpt lat="40.41044" lon="-8.44493">
        <ele>60.22</ele>
        <time>2019-05-23T06:58:51Z</time>
      </trkpt>
      <trkpt lat="40.4106" lon="-8.44486">
        <ele>60.22</ele>
        <time>2019-05-23T06:59:05Z</time>
      </trkpt>
      <trkpt lat="40.41079" lon="-8.4448">
        <ele>60.7</ele>
        <time>2019-05-23T06:59:20Z</time>
      </trkpt>
      <trkpt lat="40.41096" lon="-8.44474">
        <ele>61.18</ele>
        <time>2019-05-23T06:59:34Z</time>
      </trkpt>
      <trkpt lat="40.41114" lon="-8.44466">
        <ele>62.14</ele>
        <time>2019-05-23T06:59:50Z</time>
      </trkpt>
      <trkpt lat="40.4113" lon="-8.44462">
        <ele>62.14</ele>
        <time>2019-05-23T07:00:04Z</time>
      </trkpt>
      <trkpt lat="40.41145" lon="-8.4446">
        <ele>63.58</ele>
        <time>2019-05-23T07:00:18Z</time>
      </trkpt>
      <trkpt lat="40.41163" lon="-8.44455">
        <ele>63.58</ele>
        <time>2019-05-23T07:00:32Z</time>
      </trkpt>
      <trkpt lat="40.41179" lon="-8.44451">
        <ele>64.55</ele>
        <time>2019-05-23T07:00:46Z</time>
      </trkpt>
      <trkpt lat="40.41181" lon="-8.44451">
        <ele>64.55</ele>
        <time>2019-05-23T07:00:47Z</time>
      </trkpt>
      <trkpt lat="40.41182" lon="-8.44451">
        <ele>65.03</ele>
        <time>2019-05-23T07:00:48Z</time>
      </trkpt>
      <trkpt lat="40.41197" lon="-8.44446">
        <ele>65.51</ele>
        <time>2019-05-23T07:01:00Z</time>
      </trkpt>
      <trkpt lat="40.41205" lon="-8.44443">
        <ele>65.51</ele>
        <time>2019-05-23T07:01:07Z</time>
      </trkpt>
      <trkpt lat="40.4122" lon="-8.4444">
        <ele>65.03</ele>
        <time>2019-05-23T07:01:20Z</time>
      </trkpt>
      <trkpt lat="40.41235" lon="-8.44436">
        <ele>66.47</ele>
        <time>2019-05-23T07:01:32Z</time>
      </trkpt>
      <trkpt lat="40.41255" lon="-8.44432">
        <ele>66.95</ele>
        <time>2019-05-23T07:01:48Z</time>
      </trkpt>
      <trkpt lat="40.4127" lon="-8.4443">
        <ele>65.51</ele>
        <time>2019-05-23T07:02:02Z</time>
      </trkpt>
      <trkpt lat="40.41272" lon="-8.44429">
        <ele>66.95</ele>
        <time>2019-05-23T07:02:04Z</time>
      </trkpt>
      <trkpt lat="40.41273" lon="-8.44428">
        <ele>65.99</ele>
        <time>2019-05-23T07:02:05Z</time>
      </trkpt>
      <trkpt lat="40.41274" lon="-8.44428">
        <ele>65.99</ele>
        <time>2019-05-23T07:02:06Z</time>
      </trkpt>
      <trkpt lat="40.41298" lon="-8.44427">
        <ele>67.43</ele>
        <time>2019-05-23T07:02:24Z</time>
      </trkpt>
      <trkpt lat="40.41312" lon="-8.44428">
        <ele>67.43</ele>
        <time>2019-05-23T07:02:36Z</time>
      </trkpt>
      <trkpt lat="40.41327" lon="-8.44431">
        <ele>68.39</ele>
        <time>2019-05-23T07:02:49Z</time>
      </trkpt>
      <trkpt lat="40.41339" lon="-8.44433">
        <ele>69.35</ele>
        <time>2019-05-23T07:02:59Z</time>
      </trkpt>
      <trkpt lat="40.41355" lon="-8.44436">
        <ele>69.83</ele>
        <time>2019-05-23T07:03:12Z</time>
      </trkpt>
      <trkpt lat="40.41369" lon="-8.44441">
        <ele>69.35</ele>
        <time>2019-05-23T07:03:25Z</time>
      </trkpt>
      <trkpt lat="40.41389" lon="-8.44451">
        <ele>70.31</ele>
        <time>2019-05-23T07:03:43Z</time>
      </trkpt>
      <trkpt lat="40.41397" lon="-8.44457">
        <ele>70.31</ele>
        <time>2019-05-23T07:03:51Z</time>
      </trkpt>
      <trkpt lat="40.41409" lon="-8.44465">
        <ele>69.83</ele>
        <time>2019-05-23T07:04:03Z</time>
      </trkpt>
      <trkpt lat="40.41415" lon="-8.44474">
        <ele>70.79</ele>
        <time>2019-05-23T07:04:11Z</time>
      </trkpt>
      <trkpt lat="40.41423" lon="-8.44482">
        <ele>70.79</ele>
        <time>2019-05-23T07:04:19Z</time>
      </trkpt>
      <trkpt lat="40.41425" lon="-8.44487">
        <ele>70.79</ele>
        <time>2019-05-23T07:04:22Z</time>
      </trkpt>
      <trkpt lat="40.41434" lon="-8.44493">
        <ele>70.31</ele>
        <time>2019-05-23T07:04:36Z</time>
      </trkpt>
      <trkpt lat="40.41435" lon="-8.44492">
        <ele>70.31</ele>
        <time>2019-05-23T07:04:39Z</time>
      </trkpt>
      <trkpt lat="40.41434" lon="-8.44492">
        <ele>69.83</ele>
        <time>2019-05-23T07:04:49Z</time>
      </trkpt>
      <trkpt lat="40.41435" lon="-8.44494">
        <ele>69.83</ele>
        <time>2019-05-23T07:04:50Z</time>
      </trkpt>
      <trkpt lat="40.41435" lon="-8.44495">
        <ele>69.83</ele>
        <time>2019-05-23T07:04:51Z</time>
      </trkpt>
      <trkpt lat="40.41438" lon="-8.44516">
        <ele>69.83</ele>
        <time>2019-05-23T07:05:06Z</time>
      </trkpt>
      <trkpt lat="40.41439" lon="-8.44522">
        <ele>69.83</ele>
        <time>2019-05-23T07:05:11Z</time>
      </trkpt>
      <trkpt lat="40.41437" lon="-8.44527">
        <ele>69.83</ele>
        <time>2019-05-23T07:05:14Z</time>
      </trkpt>
      <trkpt lat="40.4143" lon="-8.44536">
        <ele>70.31</ele>
        <time>2019-05-23T07:05:21Z</time>
      </trkpt>
      <trkpt lat="40.41429" lon="-8.4454">
        <ele>69.35</ele>
        <time>2019-05-23T07:05:29Z</time>
      </trkpt>
      <trkpt lat="40.4143" lon="-8.44538">
        <ele>69.83</ele>
        <time>2019-05-23T07:05:31Z</time>
      </trkpt>
      <trkpt lat="40.41431" lon="-8.44536">
        <ele>69.83</ele>
        <time>2019-05-23T07:05:32Z</time>
      </trkpt>
      <trkpt lat="40.41432" lon="-8.44535">
        <ele>69.83</ele>
        <time>2019-05-23T07:05:33Z</time>
      </trkpt>
      <trkpt lat="40.41432" lon="-8.44533">
        <ele>69.35</ele>
        <time>2019-05-23T07:05:34Z</time>
      </trkpt>
      <trkpt lat="40.41436" lon="-8.44511">
        <ele>69.83</ele>
        <time>2019-05-23T07:05:47Z</time>
      </trkpt>
      <trkpt lat="40.4144" lon="-8.44489">
        <ele>69.35</ele>
        <time>2019-05-23T07:06:01Z</time>
      </trkpt>
      <trkpt lat="40.41441" lon="-8.44486">
        <ele>68.87</ele>
        <time>2019-05-23T07:06:03Z</time>
      </trkpt>
      <trkpt lat="40.41447" lon="-8.44466">
        <ele>67.43</ele>
        <time>2019-05-23T07:06:16Z</time>
      </trkpt>
      <trkpt lat="40.41452" lon="-8.4444">
        <ele>66.47</ele>
        <time>2019-05-23T07:06:32Z</time>
      </trkpt>
      <trkpt lat="40.41459" lon="-8.44416">
        <ele>65.51</ele>
        <time>2019-05-23T07:06:49Z</time>
      </trkpt>
      <trkpt lat="40.4146" lon="-8.44414">
        <ele>65.03</ele>
        <time>2019-05-23T07:06:54Z</time>
      </trkpt>
      <trkpt lat="40.41468" lon="-8.44401">
        <ele>64.07</ele>
        <time>2019-05-23T07:07:06Z</time>
      </trkpt>
      <trkpt lat="40.4147" lon="-8.44399">
        <ele>64.07</ele>
        <time>2019-05-23T07:07:08Z</time>
      </trkpt>
      <trkpt lat="40.41473" lon="-8.44397">
        <ele>63.58</ele>
        <time>2019-05-23T07:07:11Z</time>
      </trkpt>
      <trkpt lat="40.41474" lon="-8.44395">
        <ele>63.58</ele>
        <time>2019-05-23T07:07:13Z</time>
      </trkpt>
      <trkpt lat="40.41475" lon="-8.44394">
        <ele>64.07</ele>
        <time>2019-05-23T07:07:14Z</time>
      </trkpt>
      <trkpt lat="40.41487" lon="-8.44379">
        <ele>62.62</ele>
        <time>2019-05-23T07:07:26Z</time>
      </trkpt>
      <trkpt lat="40.41494" lon="-8.44372">
        <ele>62.62</ele>
        <time>2019-05-23T07:07:40Z</time>
      </trkpt>
      <trkpt lat="40.41503" lon="-8.44366">
        <ele>62.14</ele>
        <time>2019-05-23T07:07:49Z</time>
      </trkpt>
      <trkpt lat="40.41508" lon="-8.44364">
        <ele>62.62</ele>
        <time>2019-05-23T07:07:53Z</time>
      </trkpt>
      <trkpt lat="40.41511" lon="-8.44361">
        <ele>62.62</ele>
        <time>2019-05-23T07:07:55Z</time>
      </trkpt>
      <trkpt lat="40.41527" lon="-8.44353">
        <ele>61.66</ele>
        <time>2019-05-23T07:08:09Z</time>
      </trkpt>
      <trkpt lat="40.41542" lon="-8.44347">
        <ele>61.18</ele>
        <time>2019-05-23T07:08:21Z</time>
      </trkpt>
      <trkpt lat="40.41557" lon="-8.44345">
        <ele>60.22</ele>
        <time>2019-05-23T07:08:33Z</time>
      </trkpt>
      <trkpt lat="40.41573" lon="-8.44341">
        <ele>60.22</ele>
        <time>2019-05-23T07:08:45Z</time>
      </trkpt>
      <trkpt lat="40.41591" lon="-8.44339">
        <ele>59.26</ele>
        <time>2019-05-23T07:08:59Z</time>
      </trkpt>
      <trkpt lat="40.41605" lon="-8.44337">
        <ele>58.3</ele>
        <time>2019-05-23T07:09:11Z</time>
      </trkpt>
      <trkpt lat="40.41606" lon="-8.44337">
        <ele>59.74</ele>
        <time>2019-05-23T07:09:12Z</time>
      </trkpt>
      <trkpt lat="40.41623" lon="-8.44333">
        <ele>58.78</ele>
        <time>2019-05-23T07:09:24Z</time>
      </trkpt>
      <trkpt lat="40.41636" lon="-8.44329">
        <ele>58.78</ele>
        <time>2019-05-23T07:09:36Z</time>
      </trkpt>
      <trkpt lat="40.41654" lon="-8.44327">
        <ele>58.3</ele>
        <time>2019-05-23T07:09:50Z</time>
      </trkpt>
      <trkpt lat="40.41671" lon="-8.44323">
        <ele>58.3</ele>
        <time>2019-05-23T07:10:04Z</time>
      </trkpt>
      <trkpt lat="40.41678" lon="-8.44321">
        <ele>58.3</ele>
        <time>2019-05-23T07:10:09Z</time>
      </trkpt>
      <trkpt lat="40.41693" lon="-8.44319">
        <ele>57.82</ele>
        <time>2019-05-23T07:10:21Z</time>
      </trkpt>
      <trkpt lat="40.41711" lon="-8.44311">
        <ele>57.34</ele>
        <time>2019-05-23T07:10:37Z</time>
      </trkpt>
      <trkpt lat="40.41728" lon="-8.44303">
        <ele>57.34</ele>
        <time>2019-05-23T07:10:51Z</time>
      </trkpt>
      <trkpt lat="40.41746" lon="-8.44293">
        <ele>57.82</ele>
        <time>2019-05-23T07:11:07Z</time>
      </trkpt>
      <trkpt lat="40.41763" lon="-8.44285">
        <ele>57.82</ele>
        <time>2019-05-23T07:11:21Z</time>
      </trkpt>
      <trkpt lat="40.41774" lon="-8.44279">
        <ele>56.86</ele>
        <time>2019-05-23T07:11:34Z</time>
      </trkpt>
      <trkpt lat="40.41775" lon="-8.44279">
        <ele>57.34</ele>
        <time>2019-05-23T07:11:53Z</time>
      </trkpt>
      <trkpt lat="40.41784" lon="-8.44276">
        <ele>56.86</ele>
        <time>2019-05-23T07:12:14Z</time>
      </trkpt>
      <trkpt lat="40.41785" lon="-8.44274">
        <ele>57.34</ele>
        <time>2019-05-23T07:12:16Z</time>
      </trkpt>
      <trkpt lat="40.41796" lon="-8.44268">
        <ele>56.86</ele>
        <time>2019-05-23T07:12:27Z</time>
      </trkpt>
      <trkpt lat="40.41805" lon="-8.44267">
        <ele>56.86</ele>
        <time>2019-05-23T07:12:34Z</time>
      </trkpt>
      <trkpt lat="40.41806" lon="-8.44266">
        <ele>55.89</ele>
        <time>2019-05-23T07:12:35Z</time>
      </trkpt>
      <trkpt lat="40.41814" lon="-8.44263">
        <ele>54.45</ele>
        <time>2019-05-23T07:12:41Z</time>
      </trkpt>
      <trkpt lat="40.41815" lon="-8.44262">
        <ele>56.37</ele>
        <time>2019-05-23T07:12:42Z</time>
      </trkpt>
      <trkpt lat="40.41817" lon="-8.44262">
        <ele>55.89</ele>
        <time>2019-05-23T07:12:43Z</time>
      </trkpt>
      <trkpt lat="40.41835" lon="-8.44257">
        <ele>56.37</ele>
        <time>2019-05-23T07:12:58Z</time>
      </trkpt>
      <trkpt lat="40.41856" lon="-8.44249">
        <ele>56.37</ele>
        <time>2019-05-23T07:13:15Z</time>
      </trkpt>
      <trkpt lat="40.41874" lon="-8.44244">
        <ele>56.86</ele>
        <time>2019-05-23T07:13:30Z</time>
      </trkpt>
      <trkpt lat="40.41894" lon="-8.44234">
        <ele>56.86</ele>
        <time>2019-05-23T07:13:46Z</time>
      </trkpt>
      <trkpt lat="40.41912" lon="-8.4422">
        <ele>57.34</ele>
        <time>2019-05-23T07:14:02Z</time>
      </trkpt>
      <trkpt lat="40.41928" lon="-8.44201">
        <ele>56.86</ele>
        <time>2019-05-23T07:14:18Z</time>
      </trkpt>
      <trkpt lat="40.41936" lon="-8.44184">
        <ele>57.82</ele>
        <time>2019-05-23T07:14:31Z</time>
      </trkpt>
      <trkpt lat="40.41946" lon="-8.44161">
        <ele>58.3</ele>
        <time>2019-05-23T07:14:47Z</time>
      </trkpt>
      <trkpt lat="40.41955" lon="-8.44141">
        <ele>59.26</ele>
        <time>2019-05-23T07:15:02Z</time>
      </trkpt>
      <trkpt lat="40.41957" lon="-8.44135">
        <ele>58.78</ele>
        <time>2019-05-23T07:15:06Z</time>
      </trkpt>
      <trkpt lat="40.41958" lon="-8.44134">
        <ele>59.26</ele>
        <time>2019-05-23T07:15:07Z</time>
      </trkpt>
      <trkpt lat="40.41969" lon="-8.44111">
        <ele>59.74</ele>
        <time>2019-05-23T07:15:23Z</time>
      </trkpt>
      <trkpt lat="40.4198" lon="-8.44091">
        <ele>61.18</ele>
        <time>2019-05-23T07:15:39Z</time>
      </trkpt>
      <trkpt lat="40.41993" lon="-8.44075">
        <ele>61.18</ele>
        <time>2019-05-23T07:15:54Z</time>
      </trkpt>
      <trkpt lat="40.42005" lon="-8.44061">
        <ele>62.14</ele>
        <time>2019-05-23T07:16:07Z</time>
      </trkpt>
      <trkpt lat="40.42014" lon="-8.4405">
        <ele>63.1</ele>
        <time>2019-05-23T07:16:18Z</time>
      </trkpt>
      <trkpt lat="40.42029" lon="-8.44034">
        <ele>63.58</ele>
        <time>2019-05-23T07:16:33Z</time>
      </trkpt>
      <trkpt lat="40.42042" lon="-8.4402">
        <ele>65.51</ele>
        <time>2019-05-23T07:16:48Z</time>
      </trkpt>
      <trkpt lat="40.42046" lon="-8.44015">
        <ele>65.03</ele>
        <time>2019-05-23T07:16:52Z</time>
      </trkpt>
      <trkpt lat="40.42047" lon="-8.44014">
        <ele>65.03</ele>
        <time>2019-05-23T07:16:53Z</time>
      </trkpt>
      <trkpt lat="40.4205" lon="-8.4401">
        <ele>65.03</ele>
        <time>2019-05-23T07:16:57Z</time>
      </trkpt>
      <trkpt lat="40.42052" lon="-8.44008">
        <ele>65.03</ele>
        <time>2019-05-23T07:16:59Z</time>
      </trkpt>
      <trkpt lat="40.42053" lon="-8.44007">
        <ele>65.51</ele>
        <time>2019-05-23T07:17:00Z</time>
      </trkpt>
      <trkpt lat="40.42054" lon="-8.44006">
        <ele>65.51</ele>
        <time>2019-05-23T07:17:01Z</time>
      </trkpt>
      <trkpt lat="40.42055" lon="-8.44005">
        <ele>65.51</ele>
        <time>2019-05-23T07:17:02Z</time>
      </trkpt>
      <trkpt lat="40.42056" lon="-8.44004">
        <ele>65.99</ele>
        <time>2019-05-23T07:17:03Z</time>
      </trkpt>
      <trkpt lat="40.42059" lon="-8.43999">
        <ele>65.51</ele>
        <time>2019-05-23T07:17:07Z</time>
      </trkpt>
      <trkpt lat="40.4206" lon="-8.43998">
        <ele>65.99</ele>
        <time>2019-05-23T07:17:08Z</time>
      </trkpt>
      <trkpt lat="40.42061" lon="-8.43997">
        <ele>65.99</ele>
        <time>2019-05-23T07:17:09Z</time>
      </trkpt>
      <trkpt lat="40.42062" lon="-8.43996">
        <ele>65.51</ele>
        <time>2019-05-23T07:17:10Z</time>
      </trkpt>
      <trkpt lat="40.42063" lon="-8.43995">
        <ele>65.99</ele>
        <time>2019-05-23T07:17:11Z</time>
      </trkpt>
      <trkpt lat="40.42064" lon="-8.43994">
        <ele>66.47</ele>
        <time>2019-05-23T07:17:12Z</time>
      </trkpt>
      <trkpt lat="40.42079" lon="-8.43975">
        <ele>67.43</ele>
        <time>2019-05-23T07:17:29Z</time>
      </trkpt>
      <trkpt lat="40.42091" lon="-8.43962">
        <ele>68.39</ele>
        <time>2019-05-23T07:17:42Z</time>
      </trkpt>
      <trkpt lat="40.42097" lon="-8.43955">
        <ele>68.39</ele>
        <time>2019-05-23T07:17:49Z</time>
      </trkpt>
      <trkpt lat="40.42107" lon="-8.43947">
        <ele>68.87</ele>
        <time>2019-05-23T07:18:03Z</time>
      </trkpt>
      <trkpt lat="40.42108" lon="-8.43946">
        <ele>68.87</ele>
        <time>2019-05-23T07:18:27Z</time>
      </trkpt>
      <trkpt lat="40.42108" lon="-8.43946">
        <ele>68.87</ele>
        <time>2019-05-23T07:18:45Z</time>
      </trkpt>
      <trkpt lat="40.42119" lon="-8.43941">
        <ele>67.91</ele>
        <time>2019-05-23T07:18:57Z</time>
      </trkpt>
      <trkpt lat="40.42137" lon="-8.43937">
        <ele>69.35</ele>
        <time>2019-05-23T07:19:11Z</time>
      </trkpt>
      <trkpt lat="40.42156" lon="-8.43934">
        <ele>70.79</ele>
        <time>2019-05-23T07:19:26Z</time>
      </trkpt>
      <trkpt lat="40.42173" lon="-8.4393">
        <ele>70.31</ele>
        <time>2019-05-23T07:19:40Z</time>
      </trkpt>
      <trkpt lat="40.42195" lon="-8.43926">
        <ele>70.31</ele>
        <time>2019-05-23T07:19:58Z</time>
      </trkpt>
      <trkpt lat="40.4221" lon="-8.43922">
        <ele>70.79</ele>
        <time>2019-05-23T07:20:11Z</time>
      </trkpt>
      <trkpt lat="40.42228" lon="-8.43918">
        <ele>71.27</ele>
        <time>2019-05-23T07:20:25Z</time>
      </trkpt>
      <trkpt lat="40.4223" lon="-8.43917">
        <ele>70.79</ele>
        <time>2019-05-23T07:20:26Z</time>
      </trkpt>
      <trkpt lat="40.42247" lon="-8.43915">
        <ele>71.27</ele>
        <time>2019-05-23T07:20:39Z</time>
      </trkpt>
      <trkpt lat="40.42264" lon="-8.43911">
        <ele>70.31</ele>
        <time>2019-05-23T07:20:52Z</time>
      </trkpt>
      <trkpt lat="40.42283" lon="-8.43908">
        <ele>71.27</ele>
        <time>2019-05-23T07:21:07Z</time>
      </trkpt>
      <trkpt lat="40.42299" lon="-8.43904">
        <ele>71.27</ele>
        <time>2019-05-23T07:21:20Z</time>
      </trkpt>
      <trkpt lat="40.42314" lon="-8.43902">
        <ele>72.24</ele>
        <time>2019-05-23T07:21:32Z</time>
      </trkpt>
      <trkpt lat="40.42333" lon="-8.43896">
        <ele>72.24</ele>
        <time>2019-05-23T07:21:48Z</time>
      </trkpt>
      <trkpt lat="40.42336" lon="-8.43892">
        <ele>72.24</ele>
        <time>2019-05-23T07:22:02Z</time>
      </trkpt>
      <trkpt lat="40.42345" lon="-8.43889">
        <ele>71.76</ele>
        <time>2019-05-23T07:22:22Z</time>
      </trkpt>
      <trkpt lat="40.42362" lon="-8.43879">
        <ele>72.24</ele>
        <time>2019-05-23T07:22:37Z</time>
      </trkpt>
      <trkpt lat="40.42383" lon="-8.43868">
        <ele>72.72</ele>
        <time>2019-05-23T07:22:54Z</time>
      </trkpt>
      <trkpt lat="40.42397" lon="-8.43858">
        <ele>72.24</ele>
        <time>2019-05-23T07:23:07Z</time>
      </trkpt>
      <trkpt lat="40.42416" lon="-8.43847">
        <ele>72.72</ele>
        <time>2019-05-23T07:23:24Z</time>
      </trkpt>
      <trkpt lat="40.42427" lon="-8.43841">
        <ele>73.2</ele>
        <time>2019-05-23T07:23:38Z</time>
      </trkpt>
      <trkpt lat="40.4243" lon="-8.4384">
        <ele>73.2</ele>
        <time>2019-05-23T07:23:40Z</time>
      </trkpt>
      <trkpt lat="40.42431" lon="-8.43839">
        <ele>73.2</ele>
        <time>2019-05-23T07:23:41Z</time>
      </trkpt>
      <trkpt lat="40.42432" lon="-8.43839">
        <ele>72.72</ele>
        <time>2019-05-23T07:23:42Z</time>
      </trkpt>
      <trkpt lat="40.4245" lon="-8.43834">
        <ele>72.72</ele>
        <time>2019-05-23T07:23:57Z</time>
      </trkpt>
      <trkpt lat="40.42466" lon="-8.43827">
        <ele>73.2</ele>
        <time>2019-05-23T07:24:10Z</time>
      </trkpt>
      <trkpt lat="40.42485" lon="-8.43812">
        <ele>73.2</ele>
        <time>2019-05-23T07:24:26Z</time>
      </trkpt>
      <trkpt lat="40.42501" lon="-8.43793">
        <ele>73.68</ele>
        <time>2019-05-23T07:24:44Z</time>
      </trkpt>
      <trkpt lat="40.42504" lon="-8.43788">
        <ele>74.16</ele>
        <time>2019-05-23T07:24:48Z</time>
      </trkpt>
      <trkpt lat="40.42516" lon="-8.43782">
        <ele>75.6</ele>
        <time>2019-05-23T07:25:00Z</time>
      </trkpt>
      <trkpt lat="40.42522" lon="-8.43786">
        <ele>75.6</ele>
        <time>2019-05-23T07:25:07Z</time>
      </trkpt>
      <trkpt lat="40.42523" lon="-8.43788">
        <ele>75.6</ele>
        <time>2019-05-23T07:25:08Z</time>
      </trkpt>
      <trkpt lat="40.42524" lon="-8.43795">
        <ele>75.12</ele>
        <time>2019-05-23T07:25:16Z</time>
      </trkpt>
      <trkpt lat="40.42524" lon="-8.43805">
        <ele>75.6</ele>
        <time>2019-05-23T07:25:29Z</time>
      </trkpt>
      <trkpt lat="40.42525" lon="-8.43805">
        <ele>74.64</ele>
        <time>2019-05-23T07:25:31Z</time>
      </trkpt>
      <trkpt lat="40.42531" lon="-8.43809">
        <ele>73.68</ele>
        <time>2019-05-23T07:25:37Z</time>
      </trkpt>
      <trkpt lat="40.42533" lon="-8.43813">
        <ele>73.68</ele>
        <time>2019-05-23T07:25:46Z</time>
      </trkpt>
      <trkpt lat="40.42531" lon="-8.43824">
        <ele>73.68</ele>
        <time>2019-05-23T07:25:54Z</time>
      </trkpt>
      <trkpt lat="40.42531" lon="-8.43851">
        <ele>73.2</ele>
        <time>2019-05-23T07:26:09Z</time>
      </trkpt>
      <trkpt lat="40.42531" lon="-8.43877">
        <ele>71.76</ele>
        <time>2019-05-23T07:26:24Z</time>
      </trkpt>
      <trkpt lat="40.42533" lon="-8.43901">
        <ele>71.27</ele>
        <time>2019-05-23T07:26:38Z</time>
      </trkpt>
      <trkpt lat="40.42537" lon="-8.43921">
        <ele>70.31</ele>
        <time>2019-05-23T07:26:53Z</time>
      </trkpt>
      <trkpt lat="40.42543" lon="-8.43943">
        <ele>70.79</ele>
        <time>2019-05-23T07:27:07Z</time>
      </trkpt>
      <trkpt lat="40.42542" lon="-8.43952">
        <ele>70.79</ele>
        <time>2019-05-23T07:27:11Z</time>
      </trkpt>
      <trkpt lat="40.42548" lon="-8.43972">
        <ele>70.79</ele>
        <time>2019-05-23T07:27:25Z</time>
      </trkpt>
      <trkpt lat="40.42551" lon="-8.43981">
        <ele>71.76</ele>
        <time>2019-05-23T07:27:32Z</time>
      </trkpt>
      <trkpt lat="40.42555" lon="-8.43988">
        <ele>71.27</ele>
        <time>2019-05-23T07:27:37Z</time>
      </trkpt>
      <trkpt lat="40.42561" lon="-8.44001">
        <ele>71.76</ele>
        <time>2019-05-23T07:27:47Z</time>
      </trkpt>
      <trkpt lat="40.42564" lon="-8.44012">
        <ele>71.76</ele>
        <time>2019-05-23T07:27:52Z</time>
      </trkpt>
      <trkpt lat="40.42571" lon="-8.44034">
        <ele>72.24</ele>
        <time>2019-05-23T07:28:07Z</time>
      </trkpt>
      <trkpt lat="40.4258" lon="-8.44052">
        <ele>72.72</ele>
        <time>2019-05-23T07:28:22Z</time>
      </trkpt>
      <trkpt lat="40.42584" lon="-8.44059">
        <ele>72.72</ele>
        <time>2019-05-23T07:28:28Z</time>
      </trkpt>
      <trkpt lat="40.42595" lon="-8.44069">
        <ele>72.24</ele>
        <time>2019-05-23T07:28:38Z</time>
      </trkpt>
      <trkpt lat="40.42605" lon="-8.44071">
        <ele>72.24</ele>
        <time>2019-05-23T07:28:50Z</time>
      </trkpt>
      <trkpt lat="40.42606" lon="-8.44074">
        <ele>71.76</ele>
        <time>2019-05-23T07:28:53Z</time>
      </trkpt>
      <trkpt lat="40.42612" lon="-8.44088">
        <ele>70.79</ele>
        <time>2019-05-23T07:29:08Z</time>
      </trkpt>
      <trkpt lat="40.42616" lon="-8.44089">
        <ele>69.83</ele>
        <time>2019-05-23T07:29:22Z</time>
      </trkpt>
      <trkpt lat="40.42618" lon="-8.44089">
        <ele>69.83</ele>
        <time>2019-05-23T07:29:38Z</time>
      </trkpt>
      <trkpt lat="40.42631" lon="-8.4409">
        <ele>67.43</ele>
        <time>2019-05-23T07:29:51Z</time>
      </trkpt>
      <trkpt lat="40.42636" lon="-8.44091">
        <ele>66.47</ele>
        <time>2019-05-23T07:29:56Z</time>
      </trkpt>
      <trkpt lat="40.42648" lon="-8.44095">
        <ele>65.99</ele>
        <time>2019-05-23T07:30:08Z</time>
      </trkpt>
      <trkpt lat="40.42667" lon="-8.44102">
        <ele>65.03</ele>
        <time>2019-05-23T07:30:24Z</time>
      </trkpt>
      <trkpt lat="40.42688" lon="-8.44111">
        <ele>64.55</ele>
        <time>2019-05-23T07:30:41Z</time>
      </trkpt>
      <trkpt lat="40.42703" lon="-8.44116">
        <ele>64.07</ele>
        <time>2019-05-23T07:30:54Z</time>
      </trkpt>
      <trkpt lat="40.42722" lon="-8.44122">
        <ele>63.58</ele>
        <time>2019-05-23T07:31:10Z</time>
      </trkpt>
      <trkpt lat="40.42739" lon="-8.4413">
        <ele>63.1</ele>
        <time>2019-05-23T07:31:25Z</time>
      </trkpt>
      <trkpt lat="40.42753" lon="-8.44135">
        <ele>63.1</ele>
        <time>2019-05-23T07:31:40Z</time>
      </trkpt>
      <trkpt lat="40.42769" lon="-8.44142">
        <ele>63.1</ele>
        <time>2019-05-23T07:31:54Z</time>
      </trkpt>
      <trkpt lat="40.42785" lon="-8.44148">
        <ele>62.62</ele>
        <time>2019-05-23T07:32:08Z</time>
      </trkpt>
      <trkpt lat="40.428" lon="-8.44155">
        <ele>62.62</ele>
        <time>2019-05-23T07:32:20Z</time>
      </trkpt>
      <trkpt lat="40.42813" lon="-8.44161">
        <ele>62.14</ele>
        <time>2019-05-23T07:32:33Z</time>
      </trkpt>
      <trkpt lat="40.42827" lon="-8.44165">
        <ele>62.14</ele>
        <time>2019-05-23T07:32:46Z</time>
      </trkpt>
      <trkpt lat="40.42844" lon="-8.44173">
        <ele>61.18</ele>
        <time>2019-05-23T07:33:01Z</time>
      </trkpt>
      <trkpt lat="40.42864" lon="-8.44179">
        <ele>61.18</ele>
        <time>2019-05-23T07:33:15Z</time>
      </trkpt>
      <trkpt lat="40.42884" lon="-8.44187">
        <ele>61.18</ele>
        <time>2019-05-23T07:33:30Z</time>
      </trkpt>
      <trkpt lat="40.42906" lon="-8.44196">
        <ele>61.66</ele>
        <time>2019-05-23T07:33:47Z</time>
      </trkpt>
      <trkpt lat="40.42926" lon="-8.44192">
        <ele>60.22</ele>
        <time>2019-05-23T07:34:02Z</time>
      </trkpt>
      <trkpt lat="40.42934" lon="-8.44189">
        <ele>59.74</ele>
        <time>2019-05-23T07:34:13Z</time>
      </trkpt>
      <trkpt lat="40.42949" lon="-8.44171">
        <ele>58.78</ele>
        <time>2019-05-23T07:34:29Z</time>
      </trkpt>
      <trkpt lat="40.42953" lon="-8.44164">
        <ele>58.78</ele>
        <time>2019-05-23T07:34:36Z</time>
      </trkpt>
      <trkpt lat="40.4296" lon="-8.44152">
        <ele>58.78</ele>
        <time>2019-05-23T07:34:45Z</time>
      </trkpt>
      <trkpt lat="40.42963" lon="-8.44147">
        <ele>57.82</ele>
        <time>2019-05-23T07:34:49Z</time>
      </trkpt>
      <trkpt lat="40.42967" lon="-8.44141">
        <ele>57.82</ele>
        <time>2019-05-23T07:34:53Z</time>
      </trkpt>
      <trkpt lat="40.42976" lon="-8.44116">
        <ele>55.89</ele>
        <time>2019-05-23T07:35:10Z</time>
      </trkpt>
      <trkpt lat="40.42979" lon="-8.44109">
        <ele>56.37</ele>
        <time>2019-05-23T07:35:15Z</time>
      </trkpt>
      <trkpt lat="40.42991" lon="-8.44101">
        <ele>54.93</ele>
        <time>2019-05-23T07:35:27Z</time>
      </trkpt>
      <trkpt lat="40.42995" lon="-8.441">
        <ele>55.41</ele>
        <time>2019-05-23T07:35:31Z</time>
      </trkpt>
      <trkpt lat="40.43015" lon="-8.44106">
        <ele>55.41</ele>
        <time>2019-05-23T07:35:47Z</time>
      </trkpt>
      <trkpt lat="40.43035" lon="-8.44113">
        <ele>53.97</ele>
        <time>2019-05-23T07:36:03Z</time>
      </trkpt>
      <trkpt lat="40.43051" lon="-8.44121">
        <ele>53.97</ele>
        <time>2019-05-23T07:36:16Z</time>
      </trkpt>
      <trkpt lat="40.43058" lon="-8.44123">
        <ele>53.01</ele>
        <time>2019-05-23T07:36:29Z</time>
      </trkpt>
      <trkpt lat="40.43058" lon="-8.44121">
        <ele>53.01</ele>
        <time>2019-05-23T07:36:43Z</time>
      </trkpt>
      <trkpt lat="40.43069" lon="-8.44128">
        <ele>53.01</ele>
        <time>2019-05-23T07:36:56Z</time>
      </trkpt>
      <trkpt lat="40.43074" lon="-8.4413">
        <ele>53.01</ele>
        <time>2019-05-23T07:37:01Z</time>
      </trkpt>
      <trkpt lat="40.43088" lon="-8.44134">
        <ele>52.53</ele>
        <time>2019-05-23T07:37:13Z</time>
      </trkpt>
      <trkpt lat="40.43103" lon="-8.44141">
        <ele>52.53</ele>
        <time>2019-05-23T07:37:26Z</time>
      </trkpt>
      <trkpt lat="40.4312" lon="-8.44149">
        <ele>52.53</ele>
        <time>2019-05-23T07:37:40Z</time>
      </trkpt>
      <trkpt lat="40.43137" lon="-8.44156">
        <ele>51.57</ele>
        <time>2019-05-23T07:37:54Z</time>
      </trkpt>
      <trkpt lat="40.43151" lon="-8.4416">
        <ele>52.05</ele>
        <time>2019-05-23T07:38:08Z</time>
      </trkpt>
      <trkpt lat="40.43168" lon="-8.44167">
        <ele>52.05</ele>
        <time>2019-05-23T07:38:26Z</time>
      </trkpt>
      <trkpt lat="40.43183" lon="-8.44171">
        <ele>52.05</ele>
        <time>2019-05-23T07:38:42Z</time>
      </trkpt>
      <trkpt lat="40.43187" lon="-8.44171">
        <ele>51.57</ele>
        <time>2019-05-23T07:38:49Z</time>
      </trkpt>
      <trkpt lat="40.43202" lon="-8.44176">
        <ele>51.57</ele>
        <time>2019-05-23T07:39:03Z</time>
      </trkpt>
      <trkpt lat="40.43221" lon="-8.44185">
        <ele>51.57</ele>
        <time>2019-05-23T07:39:18Z</time>
      </trkpt>
      <trkpt lat="40.43234" lon="-8.44191">
        <ele>51.09</ele>
        <time>2019-05-23T07:39:32Z</time>
      </trkpt>
      <trkpt lat="40.43248" lon="-8.44196">
        <ele>50.13</ele>
        <time>2019-05-23T07:39:45Z</time>
      </trkpt>
      <trkpt lat="40.4326" lon="-8.44206">
        <ele>50.61</ele>
        <time>2019-05-23T07:39:57Z</time>
      </trkpt>
      <trkpt lat="40.43279" lon="-8.44216">
        <ele>50.13</ele>
        <time>2019-05-23T07:40:11Z</time>
      </trkpt>
      <trkpt lat="40.43301" lon="-8.44226">
        <ele>51.09</ele>
        <time>2019-05-23T07:40:26Z</time>
      </trkpt>
      <trkpt lat="40.43323" lon="-8.44231">
        <ele>50.61</ele>
        <time>2019-05-23T07:40:41Z</time>
      </trkpt>
      <trkpt lat="40.43348" lon="-8.44241">
        <ele>50.13</ele>
        <time>2019-05-23T07:41:01Z</time>
      </trkpt>
      <trkpt lat="40.43368" lon="-8.44249">
        <ele>50.13</ele>
        <time>2019-05-23T07:41:17Z</time>
      </trkpt>
      <trkpt lat="40.43375" lon="-8.4425">
        <ele>50.13</ele>
        <time>2019-05-23T07:41:31Z</time>
      </trkpt>
      <trkpt lat="40.4338" lon="-8.44254">
        <ele>49.65</ele>
        <time>2019-05-23T07:41:42Z</time>
      </trkpt>
      <trkpt lat="40.43398" lon="-8.44261">
        <ele>50.13</ele>
        <time>2019-05-23T07:41:57Z</time>
      </trkpt>
      <trkpt lat="40.43416" lon="-8.44268">
        <ele>49.65</ele>
        <time>2019-05-23T07:42:13Z</time>
      </trkpt>
      <trkpt lat="40.43433" lon="-8.44274">
        <ele>49.65</ele>
        <time>2019-05-23T07:42:29Z</time>
      </trkpt>
      <trkpt lat="40.43447" lon="-8.44277">
        <ele>50.61</ele>
        <time>2019-05-23T07:42:42Z</time>
      </trkpt>
      <trkpt lat="40.43462" lon="-8.44275">
        <ele>50.61</ele>
        <time>2019-05-23T07:42:56Z</time>
      </trkpt>
      <trkpt lat="40.4348" lon="-8.44268">
        <ele>52.05</ele>
        <time>2019-05-23T07:43:12Z</time>
      </trkpt>
      <trkpt lat="40.4349" lon="-8.44259">
        <ele>52.05</ele>
        <time>2019-05-23T07:43:25Z</time>
      </trkpt>
      <trkpt lat="40.43491" lon="-8.44259">
        <ele>52.53</ele>
        <time>2019-05-23T07:43:26Z</time>
      </trkpt>
      <trkpt lat="40.43503" lon="-8.44243">
        <ele>54.45</ele>
        <time>2019-05-23T07:43:41Z</time>
      </trkpt>
      <trkpt lat="40.43506" lon="-8.4424">
        <ele>54.93</ele>
        <time>2019-05-23T07:43:45Z</time>
      </trkpt>
      <trkpt lat="40.43515" lon="-8.44227">
        <ele>56.86</ele>
        <time>2019-05-23T07:43:59Z</time>
      </trkpt>
      <trkpt lat="40.43525" lon="-8.44215">
        <ele>57.82</ele>
        <time>2019-05-23T07:44:13Z</time>
      </trkpt>
      <trkpt lat="40.4353" lon="-8.44208">
        <ele>58.78</ele>
        <time>2019-05-23T07:44:23Z</time>
      </trkpt>
      <trkpt lat="40.43534" lon="-8.44201">
        <ele>61.66</ele>
        <time>2019-05-23T07:44:30Z</time>
      </trkpt>
      <trkpt lat="40.43539" lon="-8.44194">
        <ele>60.7</ele>
        <time>2019-05-23T07:44:41Z</time>
      </trkpt>
      <trkpt lat="40.4355" lon="-8.44183">
        <ele>61.66</ele>
        <time>2019-05-23T07:44:56Z</time>
      </trkpt>
      <trkpt lat="40.43568" lon="-8.44177">
        <ele>62.62</ele>
        <time>2019-05-23T07:45:13Z</time>
      </trkpt>
      <trkpt lat="40.43569" lon="-8.44177">
        <ele>62.62</ele>
        <time>2019-05-23T07:45:14Z</time>
      </trkpt>
      <trkpt lat="40.43575" lon="-8.44183">
        <ele>63.1</ele>
        <time>2019-05-23T07:45:28Z</time>
      </trkpt>
      <trkpt lat="40.43575" lon="-8.44186">
        <ele>63.1</ele>
        <time>2019-05-23T07:45:32Z</time>
      </trkpt>
      <trkpt lat="40.43574" lon="-8.44182">
        <ele>62.62</ele>
        <time>2019-05-23T07:45:46Z</time>
      </trkpt>
      <trkpt lat="40.43574" lon="-8.44182">
        <ele>62.62</ele>
        <time>2019-05-23T07:45:59Z</time>
      </trkpt>
      <trkpt lat="40.43577" lon="-8.44182">
        <ele>62.62</ele>
        <time>2019-05-23T07:46:05Z</time>
      </trkpt>
      <trkpt lat="40.43583" lon="-8.4418">
        <ele>62.62</ele>
        <time>2019-05-23T07:46:16Z</time>
      </trkpt>
      <trkpt lat="40.4358" lon="-8.4418">
        <ele>62.62</ele>
        <time>2019-05-23T07:46:29Z</time>
      </trkpt>
      <trkpt lat="40.43576" lon="-8.44183">
        <ele>63.58</ele>
        <time>2019-05-23T07:46:40Z</time>
      </trkpt>
      <trkpt lat="40.43574" lon="-8.44186">
        <ele>63.1</ele>
        <time>2019-05-23T07:46:51Z</time>
      </trkpt>
      <trkpt lat="40.43572" lon="-8.4418">
        <ele>63.58</ele>
        <time>2019-05-23T07:47:06Z</time>
      </trkpt>
      <trkpt lat="40.43572" lon="-8.44178">
        <ele>62.62</ele>
        <time>2019-05-23T07:47:23Z</time>
      </trkpt>
      <trkpt lat="40.43579" lon="-8.44174">
        <ele>62.14</ele>
        <time>2019-05-23T07:47:37Z</time>
      </trkpt>
      <trkpt lat="40.43587" lon="-8.44187">
        <ele>63.1</ele>
        <time>2019-05-23T07:47:52Z</time>
      </trkpt>
      <trkpt lat="40.43589" lon="-8.44185">
        <ele>61.66</ele>
        <time>2019-05-23T07:48:12Z</time>
      </trkpt>
      <trkpt lat="40.43589" lon="-8.44187">
        <ele>62.62</ele>
        <time>2019-05-23T07:48:36Z</time>
      </trkpt>
      <trkpt lat="40.43589" lon="-8.44185">
        <ele>62.14</ele>
        <time>2019-05-23T07:48:52Z</time>
      </trkpt>
      <trkpt lat="40.43591" lon="-8.44185">
        <ele>62.62</ele>
        <time>2019-05-23T07:49:13Z</time>
      </trkpt>
      <trkpt lat="40.43588" lon="-8.44186">
        <ele>62.62</ele>
        <time>2019-05-23T07:49:33Z</time>
      </trkpt>
      <trkpt lat="40.43588" lon="-8.44187">
        <ele>63.1</ele>
        <time>2019-05-23T07:49:51Z</time>
      </trkpt>
      <trkpt lat="40.43589" lon="-8.44185">
        <ele>63.1</ele>
        <time>2019-05-23T07:50:12Z</time>
      </trkpt>
      <trkpt lat="40.43588" lon="-8.44186">
        <ele>62.62</ele>
        <time>2019-05-23T07:50:39Z</time>
      </trkpt>
      <trkpt lat="40.4358" lon="-8.44181">
        <ele>62.14</ele>
        <time>2019-05-23T07:50:47Z</time>
      </trkpt>
      <trkpt lat="40.43574" lon="-8.44183">
        <ele>62.62</ele>
        <time>2019-05-23T07:51:00Z</time>
      </trkpt>
      <trkpt lat="40.43576" lon="-8.44173">
        <ele>62.62</ele>
        <time>2019-05-23T07:51:21Z</time>
      </trkpt>
      <trkpt lat="40.43574" lon="-8.44168">
        <ele>62.14</ele>
        <time>2019-05-23T07:51:50Z</time>
      </trkpt>
      <trkpt lat="40.43577" lon="-8.44172">
        <ele>62.62</ele>
        <time>2019-05-23T07:52:12Z</time>
      </trkpt>
      <trkpt lat="40.43575" lon="-8.44172">
        <ele>63.1</ele>
        <time>2019-05-23T07:52:38Z</time>
      </trkpt>
      <trkpt lat="40.43576" lon="-8.44163">
        <ele>62.62</ele>
        <time>2019-05-23T07:52:59Z</time>
      </trkpt>
      <trkpt lat="40.43577" lon="-8.44169">
        <ele>62.14</ele>
        <time>2019-05-23T07:53:22Z</time>
      </trkpt>
      <trkpt lat="40.43576" lon="-8.44171">
        <ele>62.62</ele>
        <time>2019-05-23T07:53:44Z</time>
      </trkpt>
      <trkpt lat="40.43576" lon="-8.44171">
        <ele>62.62</ele>
        <time>2019-05-23T07:54:07Z</time>
      </trkpt>
      <trkpt lat="40.43582" lon="-8.44177">
        <ele>62.62</ele>
        <time>2019-05-23T07:54:25Z</time>
      </trkpt>
      <trkpt lat="40.43591" lon="-8.44185">
        <ele>62.62</ele>
        <time>2019-05-23T07:54:35Z</time>
      </trkpt>
      <trkpt lat="40.43593" lon="-8.44186">
        <ele>62.62</ele>
        <time>2019-05-23T07:54:37Z</time>
      </trkpt>
      <trkpt lat="40.43596" lon="-8.44189">
        <ele>62.14</ele>
        <time>2019-05-23T07:54:40Z</time>
      </trkpt>
      <trkpt lat="40.43597" lon="-8.44188">
        <ele>62.14</ele>
        <time>2019-05-23T07:54:46Z</time>
      </trkpt>
      <trkpt lat="40.43595" lon="-8.44181">
        <ele>62.62</ele>
        <time>2019-05-23T07:54:51Z</time>
      </trkpt>
      <trkpt lat="40.43601" lon="-8.44177">
        <ele>61.66</ele>
        <time>2019-05-23T07:54:56Z</time>
      </trkpt>
      <trkpt lat="40.43604" lon="-8.44178">
        <ele>62.14</ele>
        <time>2019-05-23T07:54:59Z</time>
      </trkpt>
      <trkpt lat="40.43615" lon="-8.44188">
        <ele>63.1</ele>
        <time>2019-05-23T07:55:10Z</time>
      </trkpt>
      <trkpt lat="40.43621" lon="-8.44201">
        <ele>61.66</ele>
        <time>2019-05-23T07:55:24Z</time>
      </trkpt>
      <trkpt lat="40.43636" lon="-8.44218">
        <ele>63.1</ele>
        <time>2019-05-23T07:55:41Z</time>
      </trkpt>
      <trkpt lat="40.4365" lon="-8.44232">
        <ele>63.1</ele>
        <time>2019-05-23T07:55:56Z</time>
      </trkpt>
      <trkpt lat="40.43667" lon="-8.44249">
        <ele>64.55</ele>
        <time>2019-05-23T07:56:14Z</time>
      </trkpt>
      <trkpt lat="40.43688" lon="-8.44263">
        <ele>65.03</ele>
        <time>2019-05-23T07:56:34Z</time>
      </trkpt>
      <trkpt lat="40.43709" lon="-8.44272">
        <ele>65.51</ele>
        <time>2019-05-23T07:56:52Z</time>
      </trkpt>
      <trkpt lat="40.43726" lon="-8.4428">
        <ele>65.99</ele>
        <time>2019-05-23T07:57:07Z</time>
      </trkpt>
      <trkpt lat="40.43741" lon="-8.44285">
        <ele>66.47</ele>
        <time>2019-05-23T07:57:23Z</time>
      </trkpt>
      <trkpt lat="40.43743" lon="-8.44284">
        <ele>66.95</ele>
        <time>2019-05-23T07:57:40Z</time>
      </trkpt>
      <trkpt lat="40.43755" lon="-8.44281">
        <ele>66.95</ele>
        <time>2019-05-23T07:57:54Z</time>
      </trkpt>
      <trkpt lat="40.43767" lon="-8.44271">
        <ele>67.43</ele>
        <time>2019-05-23T07:58:08Z</time>
      </trkpt>
      <trkpt lat="40.4377" lon="-8.44271">
        <ele>67.43</ele>
        <time>2019-05-23T07:58:11Z</time>
      </trkpt>
      <trkpt lat="40.43779" lon="-8.4428">
        <ele>67.43</ele>
        <time>2019-05-23T07:58:21Z</time>
      </trkpt>
      <trkpt lat="40.43797" lon="-8.44278">
        <ele>67.91</ele>
        <time>2019-05-23T07:58:36Z</time>
      </trkpt>
      <trkpt lat="40.43801" lon="-8.44278">
        <ele>67.91</ele>
        <time>2019-05-23T07:58:49Z</time>
      </trkpt>
      <trkpt lat="40.4381" lon="-8.44276">
        <ele>67.91</ele>
        <time>2019-05-23T07:58:56Z</time>
      </trkpt>
      <trkpt lat="40.43827" lon="-8.44272">
        <ele>67.91</ele>
        <time>2019-05-23T07:59:11Z</time>
      </trkpt>
      <trkpt lat="40.43833" lon="-8.4427">
        <ele>68.39</ele>
        <time>2019-05-23T07:59:16Z</time>
      </trkpt>
      <trkpt lat="40.4384" lon="-8.44268">
        <ele>67.91</ele>
        <time>2019-05-23T07:59:22Z</time>
      </trkpt>
      <trkpt lat="40.43857" lon="-8.44265">
        <ele>68.39</ele>
        <time>2019-05-23T07:59:37Z</time>
      </trkpt>
      <trkpt lat="40.43872" lon="-8.44264">
        <ele>68.39</ele>
        <time>2019-05-23T07:59:49Z</time>
      </trkpt>
      <trkpt lat="40.43878" lon="-8.44262">
        <ele>67.91</ele>
        <time>2019-05-23T07:59:54Z</time>
      </trkpt>
      <trkpt lat="40.43886" lon="-8.44262">
        <ele>68.87</ele>
        <time>2019-05-23T08:00:08Z</time>
      </trkpt>
      <trkpt lat="40.43887" lon="-8.44262">
        <ele>68.39</ele>
        <time>2019-05-23T08:00:14Z</time>
      </trkpt>
      <trkpt lat="40.43903" lon="-8.44257">
        <ele>66.95</ele>
        <time>2019-05-23T08:00:28Z</time>
      </trkpt>
      <trkpt lat="40.43917" lon="-8.44255">
        <ele>67.43</ele>
        <time>2019-05-23T08:00:43Z</time>
      </trkpt>
      <trkpt lat="40.43934" lon="-8.44252">
        <ele>66.95</ele>
        <time>2019-05-23T08:00:58Z</time>
      </trkpt>
      <trkpt lat="40.43949" lon="-8.44249">
        <ele>66.47</ele>
        <time>2019-05-23T08:01:11Z</time>
      </trkpt>
      <trkpt lat="40.43962" lon="-8.44244">
        <ele>66.47</ele>
        <time>2019-05-23T08:01:23Z</time>
      </trkpt>
      <trkpt lat="40.43974" lon="-8.44239">
        <ele>66.47</ele>
        <time>2019-05-23T08:01:35Z</time>
      </trkpt>
      <trkpt lat="40.4399" lon="-8.44238">
        <ele>65.99</ele>
        <time>2019-05-23T08:01:47Z</time>
      </trkpt>
      <trkpt lat="40.44002" lon="-8.44235">
        <ele>65.99</ele>
        <time>2019-05-23T08:01:59Z</time>
      </trkpt>
      <trkpt lat="40.44008" lon="-8.44234">
        <ele>65.99</ele>
        <time>2019-05-23T08:02:03Z</time>
      </trkpt>
      <trkpt lat="40.44017" lon="-8.44232">
        <ele>66.47</ele>
        <time>2019-05-23T08:02:10Z</time>
      </trkpt>
      <trkpt lat="40.44029" lon="-8.44232">
        <ele>66.47</ele>
        <time>2019-05-23T08:02:21Z</time>
      </trkpt>
      <trkpt lat="40.44037" lon="-8.44239">
        <ele>65.99</ele>
        <time>2019-05-23T08:02:32Z</time>
      </trkpt>
      <trkpt lat="40.44047" lon="-8.44236">
        <ele>66.47</ele>
        <time>2019-05-23T08:02:44Z</time>
      </trkpt>
      <trkpt lat="40.44054" lon="-8.44229">
        <ele>66.47</ele>
        <time>2019-05-23T08:02:57Z</time>
      </trkpt>
      <trkpt lat="40.44066" lon="-8.44228">
        <ele>67.43</ele>
        <time>2019-05-23T08:03:10Z</time>
      </trkpt>
      <trkpt lat="40.44071" lon="-8.44232">
        <ele>67.91</ele>
        <time>2019-05-23T08:03:16Z</time>
      </trkpt>
      <trkpt lat="40.44088" lon="-8.44229">
        <ele>68.87</ele>
        <time>2019-05-23T08:03:31Z</time>
      </trkpt>
      <trkpt lat="40.44105" lon="-8.44226">
        <ele>69.35</ele>
        <time>2019-05-23T08:03:46Z</time>
      </trkpt>
      <trkpt lat="40.44106" lon="-8.44226">
        <ele>69.83</ele>
        <time>2019-05-23T08:03:47Z</time>
      </trkpt>
      <trkpt lat="40.44119" lon="-8.4423">
        <ele>69.83</ele>
        <time>2019-05-23T08:04:01Z</time>
      </trkpt>
      <trkpt lat="40.44125" lon="-8.44232">
        <ele>69.83</ele>
        <time>2019-05-23T08:04:07Z</time>
      </trkpt>
      <trkpt lat="40.44134" lon="-8.44234">
        <ele>70.31</ele>
        <time>2019-05-23T08:04:14Z</time>
      </trkpt>
      <trkpt lat="40.44151" lon="-8.44243">
        <ele>70.31</ele>
        <time>2019-05-23T08:04:31Z</time>
      </trkpt>
      <trkpt lat="40.44158" lon="-8.44246">
        <ele>70.31</ele>
        <time>2019-05-23T08:04:44Z</time>
      </trkpt>
      <trkpt lat="40.44166" lon="-8.4425">
        <ele>69.83</ele>
        <time>2019-05-23T08:05:01Z</time>
      </trkpt>
      <trkpt lat="40.44182" lon="-8.44257">
        <ele>68.87</ele>
        <time>2019-05-23T08:05:17Z</time>
      </trkpt>
      <trkpt lat="40.44195" lon="-8.44265">
        <ele>68.39</ele>
        <time>2019-05-23T08:05:31Z</time>
      </trkpt>
      <trkpt lat="40.44211" lon="-8.44271">
        <ele>68.39</ele>
        <time>2019-05-23T08:05:46Z</time>
      </trkpt>
      <trkpt lat="40.44229" lon="-8.44277">
        <ele>67.43</ele>
        <time>2019-05-23T08:06:01Z</time>
      </trkpt>
      <trkpt lat="40.44244" lon="-8.44287">
        <ele>66.95</ele>
        <time>2019-05-23T08:06:15Z</time>
      </trkpt>
      <trkpt lat="40.44254" lon="-8.44294">
        <ele>65.99</ele>
        <time>2019-05-23T08:06:31Z</time>
      </trkpt>
      <trkpt lat="40.44262" lon="-8.44296">
        <ele>65.51</ele>
        <time>2019-05-23T08:06:43Z</time>
      </trkpt>
      <trkpt lat="40.44269" lon="-8.44298">
        <ele>65.03</ele>
        <time>2019-05-23T08:06:49Z</time>
      </trkpt>
      <trkpt lat="40.44283" lon="-8.44304">
        <ele>65.03</ele>
        <time>2019-05-23T08:07:04Z</time>
      </trkpt>
      <trkpt lat="40.44301" lon="-8.44304">
        <ele>63.58</ele>
        <time>2019-05-23T08:07:19Z</time>
      </trkpt>
      <trkpt lat="40.4431" lon="-8.44304">
        <ele>62.62</ele>
        <time>2019-05-23T08:07:27Z</time>
      </trkpt>
      <trkpt lat="40.44324" lon="-8.44303">
        <ele>61.66</ele>
        <time>2019-05-23T08:07:39Z</time>
      </trkpt>
      <trkpt lat="40.44336" lon="-8.443">
        <ele>61.18</ele>
        <time>2019-05-23T08:07:51Z</time>
      </trkpt>
      <trkpt lat="40.44352" lon="-8.443">
        <ele>59.74</ele>
        <time>2019-05-23T08:08:04Z</time>
      </trkpt>
      <trkpt lat="40.4437" lon="-8.44299">
        <ele>57.82</ele>
        <time>2019-05-23T08:08:17Z</time>
      </trkpt>
      <trkpt lat="40.44381" lon="-8.443">
        <ele>57.34</ele>
        <time>2019-05-23T08:08:30Z</time>
      </trkpt>
      <trkpt lat="40.44396" lon="-8.443">
        <ele>54.45</ele>
        <time>2019-05-23T08:08:42Z</time>
      </trkpt>
      <trkpt lat="40.44409" lon="-8.44298">
        <ele>53.01</ele>
        <time>2019-05-23T08:08:54Z</time>
      </trkpt>
      <trkpt lat="40.44419" lon="-8.443">
        <ele>51.57</ele>
        <time>2019-05-23T08:09:02Z</time>
      </trkpt>
      <trkpt lat="40.44429" lon="-8.44298">
        <ele>51.57</ele>
        <time>2019-05-23T08:09:11Z</time>
      </trkpt>
      <trkpt lat="40.44448" lon="-8.44294">
        <ele>49.65</ele>
        <time>2019-05-23T08:09:28Z</time>
      </trkpt>
      <trkpt lat="40.44461" lon="-8.44295">
        <ele>48.68</ele>
        <time>2019-05-23T08:09:40Z</time>
      </trkpt>
      <trkpt lat="40.44464" lon="-8.44294">
        <ele>48.68</ele>
        <time>2019-05-23T08:09:42Z</time>
      </trkpt>
      <trkpt lat="40.44469" lon="-8.44294">
        <ele>48.2</ele>
        <time>2019-05-23T08:09:46Z</time>
      </trkpt>
      <trkpt lat="40.4449" lon="-8.44285">
        <ele>46.28</ele>
        <time>2019-05-23T08:10:03Z</time>
      </trkpt>
      <trkpt lat="40.44502" lon="-8.44277">
        <ele>45.32</ele>
        <time>2019-05-23T08:10:13Z</time>
      </trkpt>
      <trkpt lat="40.44509" lon="-8.44273">
        <ele>44.36</ele>
        <time>2019-05-23T08:10:19Z</time>
      </trkpt>
      <trkpt lat="40.44517" lon="-8.44266">
        <ele>44.36</ele>
        <time>2019-05-23T08:10:27Z</time>
      </trkpt>
      <trkpt lat="40.4454" lon="-8.44251">
        <ele>42.44</ele>
        <time>2019-05-23T08:10:46Z</time>
      </trkpt>
      <trkpt lat="40.44545" lon="-8.44248">
        <ele>42.92</ele>
        <time>2019-05-23T08:10:51Z</time>
      </trkpt>
      <trkpt lat="40.44563" lon="-8.44241">
        <ele>41.47</ele>
        <time>2019-05-23T08:11:06Z</time>
      </trkpt>
      <trkpt lat="40.44582" lon="-8.44241">
        <ele>41.47</ele>
        <time>2019-05-23T08:11:22Z</time>
      </trkpt>
      <trkpt lat="40.44585" lon="-8.44242">
        <ele>40.99</ele>
        <time>2019-05-23T08:11:26Z</time>
      </trkpt>
      <trkpt lat="40.44587" lon="-8.44243">
        <ele>41.47</ele>
        <time>2019-05-23T08:11:41Z</time>
      </trkpt>
      <trkpt lat="40.44588" lon="-8.44242">
        <ele>41.47</ele>
        <time>2019-05-23T08:11:50Z</time>
      </trkpt>
      <trkpt lat="40.44597" lon="-8.44241">
        <ele>40.51</ele>
        <time>2019-05-23T08:12:03Z</time>
      </trkpt>
      <trkpt lat="40.44596" lon="-8.44242">
        <ele>40.51</ele>
        <time>2019-05-23T08:12:30Z</time>
      </trkpt>
      <trkpt lat="40.446" lon="-8.4424">
        <ele>40.51</ele>
        <time>2019-05-23T08:13:01Z</time>
      </trkpt>
      <trkpt lat="40.44617" lon="-8.44234">
        <ele>38.59</ele>
        <time>2019-05-23T08:13:16Z</time>
      </trkpt>
      <trkpt lat="40.44634" lon="-8.44226">
        <ele>36.19</ele>
        <time>2019-05-23T08:13:31Z</time>
      </trkpt>
      <trkpt lat="40.44636" lon="-8.44225">
        <ele>35.71</ele>
        <time>2019-05-23T08:13:33Z</time>
      </trkpt>
      <trkpt lat="40.44643" lon="-8.44221">
        <ele>34.74</ele>
        <time>2019-05-23T08:13:38Z</time>
      </trkpt>
      <trkpt lat="40.44646" lon="-8.44217">
        <ele>33.78</ele>
        <time>2019-05-23T08:13:41Z</time>
      </trkpt>
      <trkpt lat="40.44654" lon="-8.44216">
        <ele>33.3</ele>
        <time>2019-05-23T08:13:51Z</time>
      </trkpt>
      <trkpt lat="40.44659" lon="-8.44217">
        <ele>32.34</ele>
        <time>2019-05-23T08:13:56Z</time>
      </trkpt>
      <trkpt lat="40.44678" lon="-8.44217">
        <ele>31.38</ele>
        <time>2019-05-23T08:14:09Z</time>
      </trkpt>
      <trkpt lat="40.4468" lon="-8.44217">
        <ele>30.9</ele>
        <time>2019-05-23T08:14:10Z</time>
      </trkpt>
      <trkpt lat="40.44686" lon="-8.4422">
        <ele>31.38</ele>
        <time>2019-05-23T08:14:23Z</time>
      </trkpt>
      <trkpt lat="40.44688" lon="-8.44218">
        <ele>30.42</ele>
        <time>2019-05-23T08:14:25Z</time>
      </trkpt>
      <trkpt lat="40.44707" lon="-8.44206">
        <ele>30.9</ele>
        <time>2019-05-23T08:14:42Z</time>
      </trkpt>
      <trkpt lat="40.44709" lon="-8.44204">
        <ele>30.42</ele>
        <time>2019-05-23T08:14:44Z</time>
      </trkpt>
      <trkpt lat="40.44719" lon="-8.44192">
        <ele>30.42</ele>
        <time>2019-05-23T08:14:56Z</time>
      </trkpt>
      <trkpt lat="40.44732" lon="-8.44179">
        <ele>30.42</ele>
        <time>2019-05-23T08:15:07Z</time>
      </trkpt>
      <trkpt lat="40.44736" lon="-8.44173">
        <ele>30.42</ele>
        <time>2019-05-23T08:15:11Z</time>
      </trkpt>
      <trkpt lat="40.44748" lon="-8.44156">
        <ele>29.94</ele>
        <time>2019-05-23T08:15:25Z</time>
      </trkpt>
      <trkpt lat="40.4475" lon="-8.44151">
        <ele>30.42</ele>
        <time>2019-05-23T08:15:29Z</time>
      </trkpt>
      <trkpt lat="40.44758" lon="-8.44136">
        <ele>30.42</ele>
        <time>2019-05-23T08:15:42Z</time>
      </trkpt>
      <trkpt lat="40.44763" lon="-8.44132">
        <ele>30.9</ele>
        <time>2019-05-23T08:15:56Z</time>
      </trkpt>
      <trkpt lat="40.44768" lon="-8.44123">
        <ele>30.42</ele>
        <time>2019-05-23T08:16:11Z</time>
      </trkpt>
      <trkpt lat="40.44768" lon="-8.44122">
        <ele>29.94</ele>
        <time>2019-05-23T08:16:12Z</time>
      </trkpt>
      <trkpt lat="40.44772" lon="-8.44112">
        <ele>30.42</ele>
        <time>2019-05-23T08:16:19Z</time>
      </trkpt>
      <trkpt lat="40.44774" lon="-8.44108">
        <ele>30.42</ele>
        <time>2019-05-23T08:16:22Z</time>
      </trkpt>
      <trkpt lat="40.44784" lon="-8.44106">
        <ele>29.94</ele>
        <time>2019-05-23T08:16:34Z</time>
      </trkpt>
      <trkpt lat="40.44782" lon="-8.441">
        <ele>29.94</ele>
        <time>2019-05-23T08:16:48Z</time>
      </trkpt>
      <trkpt lat="40.4479" lon="-8.44089">
        <ele>29.94</ele>
        <time>2019-05-23T08:17:02Z</time>
      </trkpt>
      <trkpt lat="40.44789" lon="-8.44097">
        <ele>29.94</ele>
        <time>2019-05-23T08:17:18Z</time>
      </trkpt>
      <trkpt lat="40.4479" lon="-8.44097">
        <ele>30.42</ele>
        <time>2019-05-23T08:17:37Z</time>
      </trkpt>
      <trkpt lat="40.44787" lon="-8.44099">
        <ele>29.94</ele>
        <time>2019-05-23T08:17:55Z</time>
      </trkpt>
      <trkpt lat="40.44786" lon="-8.44097">
        <ele>30.9</ele>
        <time>2019-05-23T08:18:18Z</time>
      </trkpt>
      <trkpt lat="40.44787" lon="-8.44104">
        <ele>29.94</ele>
        <time>2019-05-23T08:18:40Z</time>
      </trkpt>
      <trkpt lat="40.44789" lon="-8.44113">
        <ele>29.94</ele>
        <time>2019-05-23T08:18:46Z</time>
      </trkpt>
      <trkpt lat="40.44786" lon="-8.44128">
        <ele>29.94</ele>
        <time>2019-05-23T08:19:00Z</time>
      </trkpt>
      <trkpt lat="40.44789" lon="-8.44129">
        <ele>29.94</ele>
        <time>2019-05-23T08:19:04Z</time>
      </trkpt>
      <trkpt lat="40.44801" lon="-8.44132">
        <ele>29.46</ele>
        <time>2019-05-23T08:19:20Z</time>
      </trkpt>
      <trkpt lat="40.44801" lon="-8.44127">
        <ele>29.46</ele>
        <time>2019-05-23T08:19:45Z</time>
      </trkpt>
      <trkpt lat="40.44801" lon="-8.44129">
        <ele>28.98</ele>
        <time>2019-05-23T08:20:09Z</time>
      </trkpt>
      <trkpt lat="40.448" lon="-8.44127">
        <ele>28.5</ele>
        <time>2019-05-23T08:20:40Z</time>
      </trkpt>
      <trkpt lat="40.44804" lon="-8.4412">
        <ele>28.02</ele>
        <time>2019-05-23T08:21:01Z</time>
      </trkpt>
      <trkpt lat="40.44806" lon="-8.44119">
        <ele>28.02</ele>
        <time>2019-05-23T08:21:23Z</time>
      </trkpt>
      <trkpt lat="40.44806" lon="-8.44127">
        <ele>28.5</ele>
        <time>2019-05-23T08:21:52Z</time>
      </trkpt>
      <trkpt lat="40.44802" lon="-8.44123">
        <ele>28.02</ele>
        <time>2019-05-23T08:22:21Z</time>
      </trkpt>
      <trkpt lat="40.44804" lon="-8.44128">
        <ele>28.5</ele>
        <time>2019-05-23T08:22:50Z</time>
      </trkpt>
      <trkpt lat="40.44805" lon="-8.44126">
        <ele>28.98</ele>
        <time>2019-05-23T08:23:21Z</time>
      </trkpt>
      <trkpt lat="40.44807" lon="-8.44134">
        <ele>28.5</ele>
        <time>2019-05-23T08:23:47Z</time>
      </trkpt>
      <trkpt lat="40.4481" lon="-8.44129">
        <ele>29.46</ele>
        <time>2019-05-23T08:24:16Z</time>
      </trkpt>
      <trkpt lat="40.44797" lon="-8.4412">
        <ele>28.98</ele>
        <time>2019-05-23T08:24:41Z</time>
      </trkpt>
      <trkpt lat="40.44794" lon="-8.44126">
        <ele>29.46</ele>
        <time>2019-05-23T08:25:08Z</time>
      </trkpt>
      <trkpt lat="40.44794" lon="-8.44127">
        <ele>28.98</ele>
        <time>2019-05-23T08:25:33Z</time>
      </trkpt>
      <trkpt lat="40.448" lon="-8.44136">
        <ele>28.98</ele>
        <time>2019-05-23T08:25:57Z</time>
      </trkpt>
      <trkpt lat="40.44796" lon="-8.44146">
        <ele>28.98</ele>
        <time>2019-05-23T08:26:23Z</time>
      </trkpt>
      <trkpt lat="40.448" lon="-8.4413">
        <ele>28.98</ele>
        <time>2019-05-23T08:26:46Z</time>
      </trkpt>
      <trkpt lat="40.44796" lon="-8.44134">
        <ele>29.46</ele>
        <time>2019-05-23T08:27:12Z</time>
      </trkpt>
      <trkpt lat="40.44795" lon="-8.44139">
        <ele>28.98</ele>
        <time>2019-05-23T08:27:17Z</time>
      </trkpt>
      <trkpt lat="40.44781" lon="-8.44173">
        <ele>28.98</ele>
        <time>2019-05-23T08:27:44Z</time>
      </trkpt>
      <trkpt lat="40.44783" lon="-8.44149">
        <ele>28.98</ele>
        <time>2019-05-23T08:28:07Z</time>
      </trkpt>
      <trkpt lat="40.44783" lon="-8.44157">
        <ele>29.46</ele>
        <time>2019-05-23T08:28:34Z</time>
      </trkpt>
      <trkpt lat="40.44807" lon="-8.44134">
        <ele>29.46</ele>
        <time>2019-05-23T08:28:58Z</time>
      </trkpt>
      <trkpt lat="40.44812" lon="-8.44127">
        <ele>28.98</ele>
        <time>2019-05-23T08:29:06Z</time>
      </trkpt>
      <trkpt lat="40.44821" lon="-8.44118">
        <ele>28.98</ele>
        <time>2019-05-23T08:29:30Z</time>
      </trkpt>
      <trkpt lat="40.44821" lon="-8.44119">
        <ele>29.46</ele>
        <time>2019-05-23T08:29:55Z</time>
      </trkpt>
      <trkpt lat="40.4483" lon="-8.44119">
        <ele>29.94</ele>
        <time>2019-05-23T08:30:21Z</time>
      </trkpt>
      <trkpt lat="40.44799" lon="-8.44132">
        <ele>31.86</ele>
        <time>2019-05-23T08:39:12Z</time>
      </trkpt>
      <trkpt lat="40.44808" lon="-8.44126">
        <ele>30.9</ele>
        <time>2019-05-23T08:39:44Z</time>
      </trkpt>
      <trkpt lat="40.44807" lon="-8.44122">
        <ele>30.9</ele>
        <time>2019-05-23T08:40:29Z</time>
      </trkpt>
      <trkpt lat="40.44801" lon="-8.44121">
        <ele>30.9</ele>
        <time>2019-05-23T08:40:59Z</time>
      </trkpt>
      <trkpt lat="40.44806" lon="-8.44125">
        <ele>30.42</ele>
        <time>2019-05-23T08:41:31Z</time>
      </trkpt>
      <trkpt lat="40.44806" lon="-8.44124">
        <ele>30.9</ele>
        <time>2019-05-23T08:42:02Z</time>
      </trkpt>
      <trkpt lat="40.44802" lon="-8.44129">
        <ele>31.38</ele>
        <time>2019-05-23T08:42:32Z</time>
      </trkpt>
      <trkpt lat="40.44802" lon="-8.44128">
        <ele>33.78</ele>
        <time>2019-05-23T08:42:39Z</time>
      </trkpt>
      <trkpt lat="40.44802" lon="-8.44128">
        <ele>32.34</ele>
        <time>2019-05-23T08:42:41Z</time>
      </trkpt>
      <trkpt lat="40.44803" lon="-8.44129">
        <ele>31.38</ele>
        <time>2019-05-23T08:43:07Z</time>
      </trkpt>
      <trkpt lat="40.44803" lon="-8.44134">
        <ele>31.86</ele>
        <time>2019-05-23T08:43:36Z</time>
      </trkpt>
      <trkpt lat="40.44799" lon="-8.44132">
        <ele>31.86</ele>
        <time>2019-05-23T08:43:55Z</time>
      </trkpt>
      <trkpt lat="40.44791" lon="-8.44132">
        <ele>32.34</ele>
        <time>2019-05-23T08:44:10Z</time>
      </trkpt>
      <trkpt lat="40.44791" lon="-8.44128">
        <ele>31.86</ele>
        <time>2019-05-23T08:44:23Z</time>
      </trkpt>
      <trkpt lat="40.4479" lon="-8.44122">
        <ele>32.34</ele>
        <time>2019-05-23T08:44:29Z</time>
      </trkpt>
      <trkpt lat="40.44789" lon="-8.44112">
        <ele>32.34</ele>
        <time>2019-05-23T08:44:36Z</time>
      </trkpt>
      <trkpt lat="40.44788" lon="-8.44105">
        <ele>32.34</ele>
        <time>2019-05-23T08:44:45Z</time>
      </trkpt>
      <trkpt lat="40.44788" lon="-8.441">
        <ele>32.34</ele>
        <time>2019-05-23T08:44:49Z</time>
      </trkpt>
      <trkpt lat="40.44787" lon="-8.44096">
        <ele>31.86</ele>
        <time>2019-05-23T08:44:52Z</time>
      </trkpt>
      <trkpt lat="40.44785" lon="-8.44085">
        <ele>32.34</ele>
        <time>2019-05-23T08:44:59Z</time>
      </trkpt>
      <trkpt lat="40.44784" lon="-8.44077">
        <ele>32.82</ele>
        <time>2019-05-23T08:45:04Z</time>
      </trkpt>
      <trkpt lat="40.44785" lon="-8.44064">
        <ele>32.34</ele>
        <time>2019-05-23T08:45:20Z</time>
      </trkpt>
      <trkpt lat="40.44784" lon="-8.44062">
        <ele>32.82</ele>
        <time>2019-05-23T08:45:32Z</time>
      </trkpt>
      <trkpt lat="40.44782" lon="-8.44059">
        <ele>32.82</ele>
        <time>2019-05-23T08:45:47Z</time>
      </trkpt>
      <trkpt lat="40.44781" lon="-8.44057">
        <ele>32.82</ele>
        <time>2019-05-23T08:46:12Z</time>
      </trkpt>
      <trkpt lat="40.44786" lon="-8.44064">
        <ele>32.82</ele>
        <time>2019-05-23T08:46:29Z</time>
      </trkpt>
      <trkpt lat="40.44784" lon="-8.44059">
        <ele>32.34</ele>
        <time>2019-05-23T08:46:44Z</time>
      </trkpt>
      <trkpt lat="40.44789" lon="-8.44046">
        <ele>33.3</ele>
        <time>2019-05-23T08:46:58Z</time>
      </trkpt>
      <trkpt lat="40.44789" lon="-8.44038">
        <ele>33.3</ele>
        <time>2019-05-23T08:47:04Z</time>
      </trkpt>
      <trkpt lat="40.44786" lon="-8.44014">
        <ele>33.3</ele>
        <time>2019-05-23T08:47:21Z</time>
      </trkpt>
      <trkpt lat="40.44789" lon="-8.44011">
        <ele>33.3</ele>
        <time>2019-05-23T08:47:35Z</time>
      </trkpt>
      <trkpt lat="40.44789" lon="-8.44011">
        <ele>33.3</ele>
        <time>2019-05-23T08:47:56Z</time>
      </trkpt>
      <trkpt lat="40.44788" lon="-8.44013">
        <ele>32.82</ele>
        <time>2019-05-23T08:48:18Z</time>
      </trkpt>
      <trkpt lat="40.44786" lon="-8.44007">
        <ele>33.78</ele>
        <time>2019-05-23T08:48:23Z</time>
      </trkpt>
      <trkpt lat="40.44784" lon="-8.44001">
        <ele>32.82</ele>
        <time>2019-05-23T08:48:27Z</time>
      </trkpt>
      <trkpt lat="40.4478" lon="-8.43976">
        <ele>32.82</ele>
        <time>2019-05-23T08:48:45Z</time>
      </trkpt>
      <trkpt lat="40.44768" lon="-8.43955">
        <ele>33.3</ele>
        <time>2019-05-23T08:49:01Z</time>
      </trkpt>
      <trkpt lat="40.44769" lon="-8.43937">
        <ele>34.26</ele>
        <time>2019-05-23T08:49:09Z</time>
      </trkpt>
      <trkpt lat="40.44761" lon="-8.43924">
        <ele>33.78</ele>
        <time>2019-05-23T08:49:23Z</time>
      </trkpt>
      <trkpt lat="40.44761" lon="-8.43923">
        <ele>33.78</ele>
        <time>2019-05-23T08:49:24Z</time>
      </trkpt>
      <trkpt lat="40.44757" lon="-8.43909">
        <ele>33.78</ele>
        <time>2019-05-23T08:49:35Z</time>
      </trkpt>
      <trkpt lat="40.44758" lon="-8.439">
        <ele>34.26</ele>
        <time>2019-05-23T08:49:41Z</time>
      </trkpt>
      <trkpt lat="40.44762" lon="-8.43894">
        <ele>34.26</ele>
        <time>2019-05-23T08:49:46Z</time>
      </trkpt>
      <trkpt lat="40.44776" lon="-8.43882">
        <ele>33.78</ele>
        <time>2019-05-23T08:50:00Z</time>
      </trkpt>
      <trkpt lat="40.44786" lon="-8.43875">
        <ele>33.78</ele>
        <time>2019-05-23T08:50:12Z</time>
      </trkpt>
      <trkpt lat="40.44793" lon="-8.43871">
        <ele>33.78</ele>
        <time>2019-05-23T08:50:18Z</time>
      </trkpt>
      <trkpt lat="40.44808" lon="-8.43863">
        <ele>34.26</ele>
        <time>2019-05-23T08:50:29Z</time>
      </trkpt>
      <trkpt lat="40.44815" lon="-8.43858">
        <ele>34.26</ele>
        <time>2019-05-23T08:50:36Z</time>
      </trkpt>
      <trkpt lat="40.44827" lon="-8.43849">
        <ele>33.78</ele>
        <time>2019-05-23T08:50:48Z</time>
      </trkpt>
      <trkpt lat="40.44829" lon="-8.43847">
        <ele>34.26</ele>
        <time>2019-05-23T08:50:50Z</time>
      </trkpt>
      <trkpt lat="40.44846" lon="-8.43836">
        <ele>33.78</ele>
        <time>2019-05-23T08:51:08Z</time>
      </trkpt>
      <trkpt lat="40.44865" lon="-8.43832">
        <ele>33.78</ele>
        <time>2019-05-23T08:51:22Z</time>
      </trkpt>
      <trkpt lat="40.44882" lon="-8.43821">
        <ele>32.82</ele>
        <time>2019-05-23T08:51:37Z</time>
      </trkpt>
      <trkpt lat="40.44894" lon="-8.43815">
        <ele>33.78</ele>
        <time>2019-05-23T08:51:51Z</time>
      </trkpt>
      <trkpt lat="40.44907" lon="-8.4381">
        <ele>33.3</ele>
        <time>2019-05-23T08:52:05Z</time>
      </trkpt>
      <trkpt lat="40.44928" lon="-8.43808">
        <ele>32.82</ele>
        <time>2019-05-23T08:52:22Z</time>
      </trkpt>
      <trkpt lat="40.44952" lon="-8.4381">
        <ele>32.34</ele>
        <time>2019-05-23T08:52:40Z</time>
      </trkpt>
      <trkpt lat="40.44974" lon="-8.43813">
        <ele>32.82</ele>
        <time>2019-05-23T08:52:56Z</time>
      </trkpt>
      <trkpt lat="40.44995" lon="-8.43818">
        <ele>32.82</ele>
        <time>2019-05-23T08:53:13Z</time>
      </trkpt>
      <trkpt lat="40.44997" lon="-8.43818">
        <ele>33.3</ele>
        <time>2019-05-23T08:53:16Z</time>
      </trkpt>
      <trkpt lat="40.44999" lon="-8.43819">
        <ele>33.3</ele>
        <time>2019-05-23T08:53:18Z</time>
      </trkpt>
      <trkpt lat="40.45012" lon="-8.43821">
        <ele>33.3</ele>
        <time>2019-05-23T08:53:31Z</time>
      </trkpt>
      <trkpt lat="40.45034" lon="-8.43827">
        <ele>32.82</ele>
        <time>2019-05-23T08:53:50Z</time>
      </trkpt>
      <trkpt lat="40.45053" lon="-8.43831">
        <ele>32.82</ele>
        <time>2019-05-23T08:54:05Z</time>
      </trkpt>
      <trkpt lat="40.45074" lon="-8.43834">
        <ele>33.78</ele>
        <time>2019-05-23T08:54:21Z</time>
      </trkpt>
      <trkpt lat="40.45089" lon="-8.43834">
        <ele>33.78</ele>
        <time>2019-05-23T08:54:34Z</time>
      </trkpt>
      <trkpt lat="40.45109" lon="-8.43833">
        <ele>34.26</ele>
        <time>2019-05-23T08:54:51Z</time>
      </trkpt>
      <trkpt lat="40.45129" lon="-8.43831">
        <ele>34.74</ele>
        <time>2019-05-23T08:55:07Z</time>
      </trkpt>
      <trkpt lat="40.45148" lon="-8.43833">
        <ele>34.26</ele>
        <time>2019-05-23T08:55:23Z</time>
      </trkpt>
      <trkpt lat="40.45154" lon="-8.43836">
        <ele>34.26</ele>
        <time>2019-05-23T08:55:28Z</time>
      </trkpt>
      <trkpt lat="40.45161" lon="-8.43839">
        <ele>34.74</ele>
        <time>2019-05-23T08:55:34Z</time>
      </trkpt>
      <trkpt lat="40.45172" lon="-8.43845">
        <ele>36.19</ele>
        <time>2019-05-23T08:55:50Z</time>
      </trkpt>
      <trkpt lat="40.45177" lon="-8.43852">
        <ele>38.11</ele>
        <time>2019-05-23T08:56:03Z</time>
      </trkpt>
      <trkpt lat="40.45193" lon="-8.43855">
        <ele>40.51</ele>
        <time>2019-05-23T08:56:18Z</time>
      </trkpt>
      <trkpt lat="40.45195" lon="-8.43855">
        <ele>40.99</ele>
        <time>2019-05-23T08:56:20Z</time>
      </trkpt>
      <trkpt lat="40.45206" lon="-8.43854">
        <ele>41.47</ele>
        <time>2019-05-23T08:56:34Z</time>
      </trkpt>
      <trkpt lat="40.45207" lon="-8.43856">
        <ele>40.99</ele>
        <time>2019-05-23T08:56:49Z</time>
      </trkpt>
      <trkpt lat="40.45215" lon="-8.43855">
        <ele>40.99</ele>
        <time>2019-05-23T08:57:23Z</time>
      </trkpt>
      <trkpt lat="40.45227" lon="-8.43844">
        <ele>41.47</ele>
        <time>2019-05-23T08:57:37Z</time>
      </trkpt>
      <trkpt lat="40.45229" lon="-8.43842">
        <ele>40.99</ele>
        <time>2019-05-23T08:57:39Z</time>
      </trkpt>
      <trkpt lat="40.45242" lon="-8.43832">
        <ele>40.51</ele>
        <time>2019-05-23T08:57:55Z</time>
      </trkpt>
      <trkpt lat="40.45255" lon="-8.4382">
        <ele>40.03</ele>
        <time>2019-05-23T08:58:10Z</time>
      </trkpt>
      <trkpt lat="40.45272" lon="-8.43809">
        <ele>38.59</ele>
        <time>2019-05-23T08:58:26Z</time>
      </trkpt>
      <trkpt lat="40.45291" lon="-8.43798">
        <ele>37.15</ele>
        <time>2019-05-23T08:58:41Z</time>
      </trkpt>
      <trkpt lat="40.45303" lon="-8.4379">
        <ele>36.19</ele>
        <time>2019-05-23T08:58:53Z</time>
      </trkpt>
      <trkpt lat="40.45315" lon="-8.43781">
        <ele>36.19</ele>
        <time>2019-05-23T08:59:05Z</time>
      </trkpt>
      <trkpt lat="40.45329" lon="-8.43768">
        <ele>35.71</ele>
        <time>2019-05-23T08:59:20Z</time>
      </trkpt>
      <trkpt lat="40.45334" lon="-8.43762">
        <ele>36.19</ele>
        <time>2019-05-23T08:59:26Z</time>
      </trkpt>
      <trkpt lat="40.45352" lon="-8.43737">
        <ele>36.19</ele>
        <time>2019-05-23T08:59:42Z</time>
      </trkpt>
      <trkpt lat="40.45364" lon="-8.4373">
        <ele>35.71</ele>
        <time>2019-05-23T08:59:54Z</time>
      </trkpt>
      <trkpt lat="40.45377" lon="-8.43726">
        <ele>35.71</ele>
        <time>2019-05-23T09:00:07Z</time>
      </trkpt>
      <trkpt lat="40.45382" lon="-8.43726">
        <ele>35.23</ele>
        <time>2019-05-23T09:00:14Z</time>
      </trkpt>
      <trkpt lat="40.45396" lon="-8.43733">
        <ele>35.23</ele>
        <time>2019-05-23T09:00:30Z</time>
      </trkpt>
      <trkpt lat="40.4541" lon="-8.43743">
        <ele>36.19</ele>
        <time>2019-05-23T09:00:45Z</time>
      </trkpt>
      <trkpt lat="40.45416" lon="-8.43744">
        <ele>35.71</ele>
        <time>2019-05-23T09:00:51Z</time>
      </trkpt>
      <trkpt lat="40.4544" lon="-8.43746">
        <ele>36.67</ele>
        <time>2019-05-23T09:01:06Z</time>
      </trkpt>
      <trkpt lat="40.45456" lon="-8.4375">
        <ele>37.15</ele>
        <time>2019-05-23T09:01:20Z</time>
      </trkpt>
      <trkpt lat="40.45465" lon="-8.4375">
        <ele>36.19</ele>
        <time>2019-05-23T09:01:35Z</time>
      </trkpt>
      <trkpt lat="40.45482" lon="-8.43755">
        <ele>37.15</ele>
        <time>2019-05-23T09:01:49Z</time>
      </trkpt>
      <trkpt lat="40.45484" lon="-8.43754">
        <ele>38.11</ele>
        <time>2019-05-23T09:02:03Z</time>
      </trkpt>
      <trkpt lat="40.45481" lon="-8.43755">
        <ele>37.15</ele>
        <time>2019-05-23T09:02:18Z</time>
      </trkpt>
      <trkpt lat="40.4548" lon="-8.43757">
        <ele>37.63</ele>
        <time>2019-05-23T09:02:34Z</time>
      </trkpt>
      <trkpt lat="40.45483" lon="-8.43755">
        <ele>37.15</ele>
        <time>2019-05-23T09:02:38Z</time>
      </trkpt>
      <trkpt lat="40.45499" lon="-8.43751">
        <ele>38.59</ele>
        <time>2019-05-23T09:02:53Z</time>
      </trkpt>
      <trkpt lat="40.45511" lon="-8.43749">
        <ele>38.11</ele>
        <time>2019-05-23T09:03:03Z</time>
      </trkpt>
      <trkpt lat="40.45517" lon="-8.43749">
        <ele>39.07</ele>
        <time>2019-05-23T09:03:08Z</time>
      </trkpt>
      <trkpt lat="40.45536" lon="-8.43745">
        <ele>39.07</ele>
        <time>2019-05-23T09:03:25Z</time>
      </trkpt>
      <trkpt lat="40.45555" lon="-8.43744">
        <ele>39.55</ele>
        <time>2019-05-23T09:03:41Z</time>
      </trkpt>
      <trkpt lat="40.45563" lon="-8.43742">
        <ele>39.55</ele>
        <time>2019-05-23T09:03:47Z</time>
      </trkpt>
      <trkpt lat="40.45571" lon="-8.43741">
        <ele>39.55</ele>
        <time>2019-05-23T09:03:54Z</time>
      </trkpt>
      <trkpt lat="40.45582" lon="-8.43738">
        <ele>40.03</ele>
        <time>2019-05-23T09:04:03Z</time>
      </trkpt>
      <trkpt lat="40.4559" lon="-8.43736">
        <ele>39.55</ele>
        <time>2019-05-23T09:04:09Z</time>
      </trkpt>
      <trkpt lat="40.45609" lon="-8.43732">
        <ele>40.03</ele>
        <time>2019-05-23T09:04:24Z</time>
      </trkpt>
      <trkpt lat="40.45627" lon="-8.43726">
        <ele>40.03</ele>
        <time>2019-05-23T09:04:39Z</time>
      </trkpt>
      <trkpt lat="40.45648" lon="-8.43715">
        <ele>40.03</ele>
        <time>2019-05-23T09:04:56Z</time>
      </trkpt>
      <trkpt lat="40.45664" lon="-8.43703">
        <ele>40.99</ele>
        <time>2019-05-23T09:05:11Z</time>
      </trkpt>
      <trkpt lat="40.45672" lon="-8.43693">
        <ele>40.51</ele>
        <time>2019-05-23T09:05:19Z</time>
      </trkpt>
      <trkpt lat="40.45685" lon="-8.43682">
        <ele>40.99</ele>
        <time>2019-05-23T09:05:35Z</time>
      </trkpt>
      <trkpt lat="40.45695" lon="-8.43668">
        <ele>40.51</ele>
        <time>2019-05-23T09:05:46Z</time>
      </trkpt>
      <trkpt lat="40.45706" lon="-8.43657">
        <ele>40.99</ele>
        <time>2019-05-23T09:05:56Z</time>
      </trkpt>
      <trkpt lat="40.45718" lon="-8.43655">
        <ele>40.99</ele>
        <time>2019-05-23T09:06:06Z</time>
      </trkpt>
      <trkpt lat="40.45728" lon="-8.43654">
        <ele>40.99</ele>
        <time>2019-05-23T09:06:20Z</time>
      </trkpt>
      <trkpt lat="40.4573" lon="-8.43646">
        <ele>41.47</ele>
        <time>2019-05-23T09:06:25Z</time>
      </trkpt>
      <trkpt lat="40.45728" lon="-8.43626">
        <ele>41.95</ele>
        <time>2019-05-23T09:06:40Z</time>
      </trkpt>
      <trkpt lat="40.45727" lon="-8.43626">
        <ele>41.47</ele>
        <time>2019-05-23T09:06:56Z</time>
      </trkpt>
      <trkpt lat="40.45727" lon="-8.43626">
        <ele>41.47</ele>
        <time>2019-05-23T09:07:17Z</time>
      </trkpt>
      <trkpt lat="40.45728" lon="-8.43624">
        <ele>40.99</ele>
        <time>2019-05-23T09:07:18Z</time>
      </trkpt>
      <trkpt lat="40.4573" lon="-8.43618">
        <ele>41.47</ele>
        <time>2019-05-23T09:07:23Z</time>
      </trkpt>
      <trkpt lat="40.45746" lon="-8.43608">
        <ele>41.95</ele>
        <time>2019-05-23T09:07:39Z</time>
      </trkpt>
      <trkpt lat="40.45749" lon="-8.43609">
        <ele>41.95</ele>
        <time>2019-05-23T09:07:41Z</time>
      </trkpt>
      <trkpt lat="40.45752" lon="-8.43624">
        <ele>41.95</ele>
        <time>2019-05-23T09:07:55Z</time>
      </trkpt>
      <trkpt lat="40.45759" lon="-8.43633">
        <ele>41.95</ele>
        <time>2019-05-23T09:08:10Z</time>
      </trkpt>
      <trkpt lat="40.45758" lon="-8.43646">
        <ele>42.44</ele>
        <time>2019-05-23T09:08:23Z</time>
      </trkpt>
      <trkpt lat="40.45759" lon="-8.43649">
        <ele>41.47</ele>
        <time>2019-05-23T09:08:28Z</time>
      </trkpt>
      <trkpt lat="40.45761" lon="-8.43651">
        <ele>41.47</ele>
        <time>2019-05-23T09:08:31Z</time>
      </trkpt>
      <trkpt lat="40.45769" lon="-8.43668">
        <ele>41.95</ele>
        <time>2019-05-23T09:08:45Z</time>
      </trkpt>
      <trkpt lat="40.45784" lon="-8.43681">
        <ele>42.44</ele>
        <time>2019-05-23T09:09:01Z</time>
      </trkpt>
      <trkpt lat="40.45799" lon="-8.4369">
        <ele>42.92</ele>
        <time>2019-05-23T09:09:16Z</time>
      </trkpt>
      <trkpt lat="40.45814" lon="-8.43704">
        <ele>44.36</ele>
        <time>2019-05-23T09:09:32Z</time>
      </trkpt>
      <trkpt lat="40.45832" lon="-8.43712">
        <ele>44.84</ele>
        <time>2019-05-23T09:09:47Z</time>
      </trkpt>
      <trkpt lat="40.45848" lon="-8.43724">
        <ele>44.36</ele>
        <time>2019-05-23T09:10:02Z</time>
      </trkpt>
      <trkpt lat="40.45855" lon="-8.4373">
        <ele>44.84</ele>
        <time>2019-05-23T09:10:14Z</time>
      </trkpt>
      <trkpt lat="40.45857" lon="-8.43731">
        <ele>44.84</ele>
        <time>2019-05-23T09:10:16Z</time>
      </trkpt>
      <trkpt lat="40.45863" lon="-8.43735">
        <ele>45.32</ele>
        <time>2019-05-23T09:10:22Z</time>
      </trkpt>
      <trkpt lat="40.45867" lon="-8.43737">
        <ele>45.32</ele>
        <time>2019-05-23T09:10:26Z</time>
      </trkpt>
      <trkpt lat="40.45886" lon="-8.43748">
        <ele>44.84</ele>
        <time>2019-05-23T09:10:43Z</time>
      </trkpt>
      <trkpt lat="40.45904" lon="-8.43768">
        <ele>44.36</ele>
        <time>2019-05-23T09:11:01Z</time>
      </trkpt>
      <trkpt lat="40.45919" lon="-8.43779">
        <ele>44.84</ele>
        <time>2019-05-23T09:11:17Z</time>
      </trkpt>
      <trkpt lat="40.45927" lon="-8.4379">
        <ele>44.84</ele>
        <time>2019-05-23T09:11:26Z</time>
      </trkpt>
      <trkpt lat="40.45932" lon="-8.43794">
        <ele>44.36</ele>
        <time>2019-05-23T09:11:31Z</time>
      </trkpt>
      <trkpt lat="40.45949" lon="-8.43798">
        <ele>44.84</ele>
        <time>2019-05-23T09:11:48Z</time>
      </trkpt>
      <trkpt lat="40.45949" lon="-8.43797">
        <ele>44.84</ele>
        <time>2019-05-23T09:11:49Z</time>
      </trkpt>
      <trkpt lat="40.45959" lon="-8.43791">
        <ele>45.8</ele>
        <time>2019-05-23T09:12:01Z</time>
      </trkpt>
      <trkpt lat="40.4598" lon="-8.43794">
        <ele>46.28</ele>
        <time>2019-05-23T09:12:17Z</time>
      </trkpt>
      <trkpt lat="40.45984" lon="-8.43797">
        <ele>47.24</ele>
        <time>2019-05-23T09:12:21Z</time>
      </trkpt>
      <trkpt lat="40.45992" lon="-8.438">
        <ele>47.24</ele>
        <time>2019-05-23T09:12:35Z</time>
      </trkpt>
      <trkpt lat="40.45995" lon="-8.43803">
        <ele>46.76</ele>
        <time>2019-05-23T09:13:01Z</time>
      </trkpt>
      <trkpt lat="40.45995" lon="-8.43804">
        <ele>47.24</ele>
        <time>2019-05-23T09:13:21Z</time>
      </trkpt>
      <trkpt lat="40.45993" lon="-8.43805">
        <ele>47.24</ele>
        <time>2019-05-23T09:13:42Z</time>
      </trkpt>
      <trkpt lat="40.45992" lon="-8.43809">
        <ele>47.24</ele>
        <time>2019-05-23T09:13:58Z</time>
      </trkpt>
      <trkpt lat="40.45994" lon="-8.43813">
        <ele>47.24</ele>
        <time>2019-05-23T09:14:01Z</time>
      </trkpt>
      <trkpt lat="40.45997" lon="-8.43822">
        <ele>47.24</ele>
        <time>2019-05-23T09:14:08Z</time>
      </trkpt>
      <trkpt lat="40.46001" lon="-8.43832">
        <ele>47.24</ele>
        <time>2019-05-23T09:14:16Z</time>
      </trkpt>
      <trkpt lat="40.46002" lon="-8.43839">
        <ele>47.72</ele>
        <time>2019-05-23T09:14:20Z</time>
      </trkpt>
      <trkpt lat="40.46003" lon="-8.43844">
        <ele>47.24</ele>
        <time>2019-05-23T09:14:24Z</time>
      </trkpt>
      <trkpt lat="40.46007" lon="-8.43875">
        <ele>46.76</ele>
        <time>2019-05-23T09:14:42Z</time>
      </trkpt>
      <trkpt lat="40.46011" lon="-8.43894">
        <ele>46.76</ele>
        <time>2019-05-23T09:14:55Z</time>
      </trkpt>
      <trkpt lat="40.46012" lon="-8.43895">
        <ele>46.28</ele>
        <time>2019-05-23T09:14:56Z</time>
      </trkpt>
      <trkpt lat="40.46014" lon="-8.43902">
        <ele>45.8</ele>
        <time>2019-05-23T09:15:01Z</time>
      </trkpt>
      <trkpt lat="40.46015" lon="-8.43909">
        <ele>46.28</ele>
        <time>2019-05-23T09:15:05Z</time>
      </trkpt>
      <trkpt lat="40.46016" lon="-8.43912">
        <ele>46.76</ele>
        <time>2019-05-23T09:15:07Z</time>
      </trkpt>
      <trkpt lat="40.46021" lon="-8.43932">
        <ele>46.76</ele>
        <time>2019-05-23T09:15:20Z</time>
      </trkpt>
      <trkpt lat="40.46024" lon="-8.43949">
        <ele>46.76</ele>
        <time>2019-05-23T09:15:35Z</time>
      </trkpt>
      <trkpt lat="40.46027" lon="-8.43958">
        <ele>46.28</ele>
        <time>2019-05-23T09:15:51Z</time>
      </trkpt>
      <trkpt lat="40.46042" lon="-8.4398">
        <ele>46.28</ele>
        <time>2019-05-23T09:16:08Z</time>
      </trkpt>
      <trkpt lat="40.46056" lon="-8.43996">
        <ele>46.76</ele>
        <time>2019-05-23T09:16:23Z</time>
      </trkpt>
      <trkpt lat="40.46076" lon="-8.44011">
        <ele>47.24</ele>
        <time>2019-05-23T09:16:42Z</time>
      </trkpt>
      <trkpt lat="40.46092" lon="-8.44026">
        <ele>47.72</ele>
        <time>2019-05-23T09:16:58Z</time>
      </trkpt>
      <trkpt lat="40.46107" lon="-8.4404">
        <ele>48.2</ele>
        <time>2019-05-23T09:17:14Z</time>
      </trkpt>
      <trkpt lat="40.46122" lon="-8.44053">
        <ele>47.72</ele>
        <time>2019-05-23T09:17:29Z</time>
      </trkpt>
      <trkpt lat="40.46123" lon="-8.44054">
        <ele>47.72</ele>
        <time>2019-05-23T09:17:31Z</time>
      </trkpt>
      <trkpt lat="40.46143" lon="-8.44071">
        <ele>48.68</ele>
        <time>2019-05-23T09:17:50Z</time>
      </trkpt>
      <trkpt lat="40.46149" lon="-8.44076">
        <ele>48.68</ele>
        <time>2019-05-23T09:17:56Z</time>
      </trkpt>
      <trkpt lat="40.46152" lon="-8.44078">
        <ele>48.2</ele>
        <time>2019-05-23T09:17:59Z</time>
      </trkpt>
      <trkpt lat="40.46168" lon="-8.44093">
        <ele>48.68</ele>
        <time>2019-05-23T09:18:16Z</time>
      </trkpt>
      <trkpt lat="40.46183" lon="-8.44105">
        <ele>49.16</ele>
        <time>2019-05-23T09:18:32Z</time>
      </trkpt>
      <trkpt lat="40.46196" lon="-8.4412">
        <ele>48.2</ele>
        <time>2019-05-23T09:18:46Z</time>
      </trkpt>
      <trkpt lat="40.46215" lon="-8.4414">
        <ele>48.68</ele>
        <time>2019-05-23T09:19:05Z</time>
      </trkpt>
      <trkpt lat="40.46229" lon="-8.44157">
        <ele>49.16</ele>
        <time>2019-05-23T09:19:21Z</time>
      </trkpt>
      <trkpt lat="40.46233" lon="-8.44161">
        <ele>49.16</ele>
        <time>2019-05-23T09:19:25Z</time>
      </trkpt>
      <trkpt lat="40.46247" lon="-8.44176">
        <ele>49.65</ele>
        <time>2019-05-23T09:19:40Z</time>
      </trkpt>
      <trkpt lat="40.46252" lon="-8.4418">
        <ele>49.65</ele>
        <time>2019-05-23T09:19:45Z</time>
      </trkpt>
      <trkpt lat="40.46255" lon="-8.44182">
        <ele>49.16</ele>
        <time>2019-05-23T09:19:48Z</time>
      </trkpt>
      <trkpt lat="40.46268" lon="-8.44197">
        <ele>49.16</ele>
        <time>2019-05-23T09:20:03Z</time>
      </trkpt>
      <trkpt lat="40.4628" lon="-8.44204">
        <ele>49.65</ele>
        <time>2019-05-23T09:20:15Z</time>
      </trkpt>
      <trkpt lat="40.46288" lon="-8.44214">
        <ele>50.13</ele>
        <time>2019-05-23T09:20:24Z</time>
      </trkpt>
      <trkpt lat="40.46299" lon="-8.44223">
        <ele>49.65</ele>
        <time>2019-05-23T09:20:38Z</time>
      </trkpt>
      <trkpt lat="40.46301" lon="-8.44227">
        <ele>49.65</ele>
        <time>2019-05-23T09:20:42Z</time>
      </trkpt>
      <trkpt lat="40.46304" lon="-8.44229">
        <ele>48.68</ele>
        <time>2019-05-23T09:20:45Z</time>
      </trkpt>
      <trkpt lat="40.46311" lon="-8.44234">
        <ele>49.65</ele>
        <time>2019-05-23T09:20:57Z</time>
      </trkpt>
      <trkpt lat="40.46322" lon="-8.44243">
        <ele>48.2</ele>
        <time>2019-05-23T09:21:08Z</time>
      </trkpt>
      <trkpt lat="40.46333" lon="-8.44252">
        <ele>49.65</ele>
        <time>2019-05-23T09:21:22Z</time>
      </trkpt>
      <trkpt lat="40.46339" lon="-8.44255">
        <ele>49.65</ele>
        <time>2019-05-23T09:21:36Z</time>
      </trkpt>
      <trkpt lat="40.46354" lon="-8.44267">
        <ele>49.16</ele>
        <time>2019-05-23T09:21:51Z</time>
      </trkpt>
      <trkpt lat="40.46361" lon="-8.44279">
        <ele>49.16</ele>
        <time>2019-05-23T09:22:02Z</time>
      </trkpt>
      <trkpt lat="40.46363" lon="-8.44283">
        <ele>49.65</ele>
        <time>2019-05-23T09:22:05Z</time>
      </trkpt>
      <trkpt lat="40.46366" lon="-8.44288">
        <ele>49.16</ele>
        <time>2019-05-23T09:22:09Z</time>
      </trkpt>
      <trkpt lat="40.46378" lon="-8.44301">
        <ele>49.65</ele>
        <time>2019-05-23T09:22:25Z</time>
      </trkpt>
      <trkpt lat="40.46388" lon="-8.44311">
        <ele>49.16</ele>
        <time>2019-05-23T09:22:39Z</time>
      </trkpt>
      <trkpt lat="40.46405" lon="-8.44324">
        <ele>49.16</ele>
        <time>2019-05-23T09:22:55Z</time>
      </trkpt>
      <trkpt lat="40.46413" lon="-8.44329">
        <ele>49.65</ele>
        <time>2019-05-23T09:23:02Z</time>
      </trkpt>
      <trkpt lat="40.46431" lon="-8.44346">
        <ele>48.68</ele>
        <time>2019-05-23T09:23:20Z</time>
      </trkpt>
      <trkpt lat="40.46452" lon="-8.44362">
        <ele>48.68</ele>
        <time>2019-05-23T09:23:36Z</time>
      </trkpt>
      <trkpt lat="40.46472" lon="-8.44375">
        <ele>49.16</ele>
        <time>2019-05-23T09:23:50Z</time>
      </trkpt>
      <trkpt lat="40.46486" lon="-8.4439">
        <ele>49.16</ele>
        <time>2019-05-23T09:24:07Z</time>
      </trkpt>
      <trkpt lat="40.465" lon="-8.44402">
        <ele>50.13</ele>
        <time>2019-05-23T09:24:21Z</time>
      </trkpt>
      <trkpt lat="40.46518" lon="-8.44417">
        <ele>49.16</ele>
        <time>2019-05-23T09:24:39Z</time>
      </trkpt>
      <trkpt lat="40.46535" lon="-8.44431">
        <ele>49.65</ele>
        <time>2019-05-23T09:24:54Z</time>
      </trkpt>
      <trkpt lat="40.46552" lon="-8.44447">
        <ele>49.16</ele>
        <time>2019-05-23T09:25:08Z</time>
      </trkpt>
      <trkpt lat="40.46568" lon="-8.44463">
        <ele>49.65</ele>
        <time>2019-05-23T09:25:21Z</time>
      </trkpt>
      <trkpt lat="40.46575" lon="-8.4448">
        <ele>49.16</ele>
        <time>2019-05-23T09:25:33Z</time>
      </trkpt>
      <trkpt lat="40.46584" lon="-8.44502">
        <ele>49.16</ele>
        <time>2019-05-23T09:25:47Z</time>
      </trkpt>
      <trkpt lat="40.46588" lon="-8.44511">
        <ele>49.16</ele>
        <time>2019-05-23T09:25:54Z</time>
      </trkpt>
      <trkpt lat="40.46591" lon="-8.44519">
        <ele>49.16</ele>
        <time>2019-05-23T09:25:59Z</time>
      </trkpt>
      <trkpt lat="40.46595" lon="-8.4453">
        <ele>48.68</ele>
        <time>2019-05-23T09:26:07Z</time>
      </trkpt>
      <trkpt lat="40.46608" lon="-8.44554">
        <ele>48.68</ele>
        <time>2019-05-23T09:26:24Z</time>
      </trkpt>
      <trkpt lat="40.46612" lon="-8.44562">
        <ele>48.68</ele>
        <time>2019-05-23T09:26:29Z</time>
      </trkpt>
      <trkpt lat="40.46618" lon="-8.44576">
        <ele>48.68</ele>
        <time>2019-05-23T09:26:40Z</time>
      </trkpt>
      <trkpt lat="40.4663" lon="-8.44598">
        <ele>48.68</ele>
        <time>2019-05-23T09:26:56Z</time>
      </trkpt>
      <trkpt lat="40.46639" lon="-8.44616">
        <ele>47.72</ele>
        <time>2019-05-23T09:27:09Z</time>
      </trkpt>
      <trkpt lat="40.46642" lon="-8.44625">
        <ele>47.72</ele>
        <time>2019-05-23T09:27:15Z</time>
      </trkpt>
      <trkpt lat="40.46644" lon="-8.44629">
        <ele>48.2</ele>
        <time>2019-05-23T09:27:18Z</time>
      </trkpt>
      <trkpt lat="40.46657" lon="-8.44653">
        <ele>47.72</ele>
        <time>2019-05-23T09:27:35Z</time>
      </trkpt>
      <trkpt lat="40.46667" lon="-8.44673">
        <ele>47.24</ele>
        <time>2019-05-23T09:27:50Z</time>
      </trkpt>
      <trkpt lat="40.4667" lon="-8.44679">
        <ele>47.24</ele>
        <time>2019-05-23T09:27:55Z</time>
      </trkpt>
      <trkpt lat="40.46683" lon="-8.44714">
        <ele>47.24</ele>
        <time>2019-05-23T09:28:17Z</time>
      </trkpt>
      <trkpt lat="40.46688" lon="-8.44728">
        <ele>45.8</ele>
        <time>2019-05-23T09:28:26Z</time>
      </trkpt>
      <trkpt lat="40.46697" lon="-8.44749">
        <ele>46.76</ele>
        <time>2019-05-23T09:28:40Z</time>
      </trkpt>
      <trkpt lat="40.46697" lon="-8.4475">
        <ele>46.76</ele>
        <time>2019-05-23T09:28:41Z</time>
      </trkpt>
      <trkpt lat="40.46704" lon="-8.44761">
        <ele>47.24</ele>
        <time>2019-05-23T09:28:56Z</time>
      </trkpt>
      <trkpt lat="40.46703" lon="-8.44762">
        <ele>47.24</ele>
        <time>2019-05-23T09:29:26Z</time>
      </trkpt>
      <trkpt lat="40.46705" lon="-8.44764">
        <ele>45.8</ele>
        <time>2019-05-23T09:29:32Z</time>
      </trkpt>
      <trkpt lat="40.46716" lon="-8.44773">
        <ele>47.24</ele>
        <time>2019-05-23T09:29:44Z</time>
      </trkpt>
      <trkpt lat="40.46716" lon="-8.44771">
        <ele>48.2</ele>
        <time>2019-05-23T09:30:05Z</time>
      </trkpt>
      <trkpt lat="40.46719" lon="-8.44773">
        <ele>47.72</ele>
        <time>2019-05-23T09:30:27Z</time>
      </trkpt>
      <trkpt lat="40.4673" lon="-8.44778">
        <ele>47.24</ele>
        <time>2019-05-23T09:30:38Z</time>
      </trkpt>
      <trkpt lat="40.46748" lon="-8.44781">
        <ele>47.72</ele>
        <time>2019-05-23T09:30:53Z</time>
      </trkpt>
      <trkpt lat="40.46766" lon="-8.44786">
        <ele>48.2</ele>
        <time>2019-05-23T09:31:08Z</time>
      </trkpt>
      <trkpt lat="40.46777" lon="-8.4479">
        <ele>48.68</ele>
        <time>2019-05-23T09:31:19Z</time>
      </trkpt>
      <trkpt lat="40.46779" lon="-8.44789">
        <ele>47.72</ele>
        <time>2019-05-23T09:31:21Z</time>
      </trkpt>
      <trkpt lat="40.46797" lon="-8.44795">
        <ele>48.2</ele>
        <time>2019-05-23T09:31:37Z</time>
      </trkpt>
      <trkpt lat="40.4681" lon="-8.44801">
        <ele>48.68</ele>
        <time>2019-05-23T09:31:51Z</time>
      </trkpt>
      <trkpt lat="40.4683" lon="-8.44807">
        <ele>49.16</ele>
        <time>2019-05-23T09:32:08Z</time>
      </trkpt>
      <trkpt lat="40.46851" lon="-8.44814">
        <ele>50.13</ele>
        <time>2019-05-23T09:32:22Z</time>
      </trkpt>
      <trkpt lat="40.46863" lon="-8.4482">
        <ele>50.13</ele>
        <time>2019-05-23T09:32:36Z</time>
      </trkpt>
      <trkpt lat="40.46865" lon="-8.44823">
        <ele>49.65</ele>
        <time>2019-05-23T09:32:55Z</time>
      </trkpt>
      <trkpt lat="40.46869" lon="-8.44824">
        <ele>50.13</ele>
        <time>2019-05-23T09:33:16Z</time>
      </trkpt>
      <trkpt lat="40.46881" lon="-8.44825">
        <ele>49.65</ele>
        <time>2019-05-23T09:33:29Z</time>
      </trkpt>
      <trkpt lat="40.46899" lon="-8.4483">
        <ele>50.13</ele>
        <time>2019-05-23T09:33:42Z</time>
      </trkpt>
      <trkpt lat="40.46919" lon="-8.44837">
        <ele>50.61</ele>
        <time>2019-05-23T09:33:57Z</time>
      </trkpt>
      <trkpt lat="40.46938" lon="-8.44844">
        <ele>50.13</ele>
        <time>2019-05-23T09:34:13Z</time>
      </trkpt>
      <trkpt lat="40.46945" lon="-8.44846">
        <ele>49.65</ele>
        <time>2019-05-23T09:34:19Z</time>
      </trkpt>
      <trkpt lat="40.46965" lon="-8.44854">
        <ele>50.13</ele>
        <time>2019-05-23T09:34:35Z</time>
      </trkpt>
      <trkpt lat="40.46989" lon="-8.44864">
        <ele>50.61</ele>
        <time>2019-05-23T09:34:54Z</time>
      </trkpt>
      <trkpt lat="40.47008" lon="-8.44872">
        <ele>50.61</ele>
        <time>2019-05-23T09:35:11Z</time>
      </trkpt>
      <trkpt lat="40.47027" lon="-8.44879">
        <ele>50.13</ele>
        <time>2019-05-23T09:35:27Z</time>
      </trkpt>
      <trkpt lat="40.47046" lon="-8.44887">
        <ele>49.65</ele>
        <time>2019-05-23T09:35:44Z</time>
      </trkpt>
      <trkpt lat="40.47066" lon="-8.44894">
        <ele>50.13</ele>
        <time>2019-05-23T09:36:00Z</time>
      </trkpt>
      <trkpt lat="40.47082" lon="-8.44901">
        <ele>50.13</ele>
        <time>2019-05-23T09:36:15Z</time>
      </trkpt>
      <trkpt lat="40.47098" lon="-8.44905">
        <ele>49.16</ele>
        <time>2019-05-23T09:36:31Z</time>
      </trkpt>
      <trkpt lat="40.47104" lon="-8.44909">
        <ele>48.68</ele>
        <time>2019-05-23T09:36:48Z</time>
      </trkpt>
      <trkpt lat="40.47123" lon="-8.44919">
        <ele>47.72</ele>
        <time>2019-05-23T09:37:05Z</time>
      </trkpt>
      <trkpt lat="40.47126" lon="-8.44922">
        <ele>47.24</ele>
        <time>2019-05-23T09:37:08Z</time>
      </trkpt>
      <trkpt lat="40.47136" lon="-8.4493">
        <ele>45.32</ele>
        <time>2019-05-23T09:37:18Z</time>
      </trkpt>
      <trkpt lat="40.47144" lon="-8.44933">
        <ele>44.84</ele>
        <time>2019-05-23T09:37:24Z</time>
      </trkpt>
      <trkpt lat="40.47147" lon="-8.44935">
        <ele>44.36</ele>
        <time>2019-05-23T09:37:27Z</time>
      </trkpt>
      <trkpt lat="40.47154" lon="-8.44943">
        <ele>43.88</ele>
        <time>2019-05-23T09:37:33Z</time>
      </trkpt>
      <trkpt lat="40.47156" lon="-8.44945">
        <ele>43.4</ele>
        <time>2019-05-23T09:37:35Z</time>
      </trkpt>
      <trkpt lat="40.47164" lon="-8.44956">
        <ele>42.92</ele>
        <time>2019-05-23T09:37:45Z</time>
      </trkpt>
      <trkpt lat="40.4718" lon="-8.44971">
        <ele>41.47</ele>
        <time>2019-05-23T09:37:59Z</time>
      </trkpt>
      <trkpt lat="40.47181" lon="-8.44973">
        <ele>41.47</ele>
        <time>2019-05-23T09:38:00Z</time>
      </trkpt>
      <trkpt lat="40.47195" lon="-8.44991">
        <ele>39.55</ele>
        <time>2019-05-23T09:38:15Z</time>
      </trkpt>
      <trkpt lat="40.472" lon="-8.44991">
        <ele>40.03</ele>
        <time>2019-05-23T09:38:34Z</time>
      </trkpt>
      <trkpt lat="40.47205" lon="-8.45">
        <ele>39.07</ele>
        <time>2019-05-23T09:38:48Z</time>
      </trkpt>
      <trkpt lat="40.47215" lon="-8.45013">
        <ele>37.63</ele>
        <time>2019-05-23T09:39:00Z</time>
      </trkpt>
      <trkpt lat="40.47225" lon="-8.45026">
        <ele>35.71</ele>
        <time>2019-05-23T09:39:14Z</time>
      </trkpt>
      <trkpt lat="40.47227" lon="-8.45029">
        <ele>36.19</ele>
        <time>2019-05-23T09:39:17Z</time>
      </trkpt>
      <trkpt lat="40.47232" lon="-8.45034">
        <ele>35.23</ele>
        <time>2019-05-23T09:39:22Z</time>
      </trkpt>
      <trkpt lat="40.47239" lon="-8.45045">
        <ele>34.26</ele>
        <time>2019-05-23T09:39:31Z</time>
      </trkpt>
      <trkpt lat="40.47251" lon="-8.45059">
        <ele>33.78</ele>
        <time>2019-05-23T09:39:45Z</time>
      </trkpt>
      <trkpt lat="40.47265" lon="-8.45072">
        <ele>31.86</ele>
        <time>2019-05-23T09:39:58Z</time>
      </trkpt>
      <trkpt lat="40.47272" lon="-8.45082">
        <ele>31.38</ele>
        <time>2019-05-23T09:40:07Z</time>
      </trkpt>
      <trkpt lat="40.47284" lon="-8.45101">
        <ele>30.42</ele>
        <time>2019-05-23T09:40:22Z</time>
      </trkpt>
      <trkpt lat="40.4729" lon="-8.45118">
        <ele>29.94</ele>
        <time>2019-05-23T09:40:34Z</time>
      </trkpt>
      <trkpt lat="40.47298" lon="-8.45138">
        <ele>29.46</ele>
        <time>2019-05-23T09:40:48Z</time>
      </trkpt>
      <trkpt lat="40.47307" lon="-8.45145">
        <ele>28.98</ele>
        <time>2019-05-23T09:40:55Z</time>
      </trkpt>
      <trkpt lat="40.47319" lon="-8.4516">
        <ele>29.46</ele>
        <time>2019-05-23T09:41:08Z</time>
      </trkpt>
      <trkpt lat="40.47331" lon="-8.45179">
        <ele>28.02</ele>
        <time>2019-05-23T09:41:22Z</time>
      </trkpt>
      <trkpt lat="40.47332" lon="-8.45181">
        <ele>28.5</ele>
        <time>2019-05-23T09:41:23Z</time>
      </trkpt>
      <trkpt lat="40.47342" lon="-8.45198">
        <ele>28.5</ele>
        <time>2019-05-23T09:41:37Z</time>
      </trkpt>
      <trkpt lat="40.47351" lon="-8.45208">
        <ele>28.5</ele>
        <time>2019-05-23T09:41:49Z</time>
      </trkpt>
      <trkpt lat="40.47351" lon="-8.4521">
        <ele>25.61</ele>
        <time>2019-05-23T09:41:53Z</time>
      </trkpt>
      <trkpt lat="40.47351" lon="-8.4521">
        <ele>30.42</ele>
        <time>2019-05-23T09:41:54Z</time>
      </trkpt>
      <trkpt lat="40.47351" lon="-8.4521">
        <ele>27.05</ele>
        <time>2019-05-23T09:41:56Z</time>
      </trkpt>
      <trkpt lat="40.4735" lon="-8.45211">
        <ele>30.9</ele>
        <time>2019-05-23T09:41:57Z</time>
      </trkpt>
      <trkpt lat="40.47349" lon="-8.45212">
        <ele>27.53</ele>
        <time>2019-05-23T09:42:03Z</time>
      </trkpt>
      <trkpt lat="40.47349" lon="-8.45213">
        <ele>24.65</ele>
        <time>2019-05-23T09:42:11Z</time>
      </trkpt>
      <trkpt lat="40.47349" lon="-8.45213">
        <ele>31.86</ele>
        <time>2019-05-23T09:42:12Z</time>
      </trkpt>
      <trkpt lat="40.47349" lon="-8.45213">
        <ele>28.02</ele>
        <time>2019-05-23T09:42:13Z</time>
      </trkpt>
      <trkpt lat="40.4735" lon="-8.45213">
        <ele>28.5</ele>
        <time>2019-05-23T09:42:14Z</time>
      </trkpt>
      <trkpt lat="40.47353" lon="-8.45216">
        <ele>28.02</ele>
        <time>2019-05-23T09:42:29Z</time>
      </trkpt>
      <trkpt lat="40.47354" lon="-8.45217">
        <ele>27.53</ele>
        <time>2019-05-23T09:42:45Z</time>
      </trkpt>
      <trkpt lat="40.47359" lon="-8.45219">
        <ele>28.02</ele>
        <time>2019-05-23T09:43:09Z</time>
      </trkpt>
      <trkpt lat="40.47365" lon="-8.45218">
        <ele>28.02</ele>
        <time>2019-05-23T09:43:21Z</time>
      </trkpt>
      <trkpt lat="40.4737" lon="-8.45224">
        <ele>27.53</ele>
        <time>2019-05-23T09:43:33Z</time>
      </trkpt>
      <trkpt lat="40.47374" lon="-8.45231">
        <ele>27.53</ele>
        <time>2019-05-23T09:43:41Z</time>
      </trkpt>
      <trkpt lat="40.47376" lon="-8.45233">
        <ele>26.57</ele>
        <time>2019-05-23T09:43:43Z</time>
      </trkpt>
      <trkpt lat="40.47378" lon="-8.45236">
        <ele>27.53</ele>
        <time>2019-05-23T09:43:56Z</time>
      </trkpt>
      <trkpt lat="40.47386" lon="-8.45241">
        <ele>28.02</ele>
        <time>2019-05-23T09:44:09Z</time>
      </trkpt>
      <trkpt lat="40.47389" lon="-8.45244">
        <ele>27.05</ele>
        <time>2019-05-23T09:44:12Z</time>
      </trkpt>
      <trkpt lat="40.47393" lon="-8.45247">
        <ele>26.57</ele>
        <time>2019-05-23T09:44:15Z</time>
      </trkpt>
      <trkpt lat="40.47404" lon="-8.45261">
        <ele>25.61</ele>
        <time>2019-05-23T09:44:29Z</time>
      </trkpt>
      <trkpt lat="40.47416" lon="-8.45268">
        <ele>26.57</ele>
        <time>2019-05-23T09:44:41Z</time>
      </trkpt>
      <trkpt lat="40.47422" lon="-8.45273">
        <ele>26.57</ele>
        <time>2019-05-23T09:44:51Z</time>
      </trkpt>
      <trkpt lat="40.47422" lon="-8.45274">
        <ele>26.09</ele>
        <time>2019-05-23T09:45:16Z</time>
      </trkpt>
      <trkpt lat="40.47421" lon="-8.45279">
        <ele>26.09</ele>
        <time>2019-05-23T09:45:34Z</time>
      </trkpt>
      <trkpt lat="40.4743" lon="-8.45282">
        <ele>26.57</ele>
        <time>2019-05-23T09:45:49Z</time>
      </trkpt>
      <trkpt lat="40.47441" lon="-8.45289">
        <ele>25.61</ele>
        <time>2019-05-23T09:46:01Z</time>
      </trkpt>
      <trkpt lat="40.47449" lon="-8.45295">
        <ele>25.61</ele>
        <time>2019-05-23T09:46:08Z</time>
      </trkpt>
      <trkpt lat="40.47457" lon="-8.453">
        <ele>25.13</ele>
        <time>2019-05-23T09:46:15Z</time>
      </trkpt>
      <trkpt lat="40.47472" lon="-8.45311">
        <ele>24.17</ele>
        <time>2019-05-23T09:46:29Z</time>
      </trkpt>
      <trkpt lat="40.47484" lon="-8.4532">
        <ele>23.21</ele>
        <time>2019-05-23T09:46:41Z</time>
      </trkpt>
      <trkpt lat="40.47489" lon="-8.45327">
        <ele>23.21</ele>
        <time>2019-05-23T09:46:51Z</time>
      </trkpt>
      <trkpt lat="40.47502" lon="-8.45336">
        <ele>22.73</ele>
        <time>2019-05-23T09:47:03Z</time>
      </trkpt>
      <trkpt lat="40.47505" lon="-8.45343">
        <ele>22.73</ele>
        <time>2019-05-23T09:47:08Z</time>
      </trkpt>
      <trkpt lat="40.47515" lon="-8.45358">
        <ele>22.73</ele>
        <time>2019-05-23T09:47:23Z</time>
      </trkpt>
      <trkpt lat="40.47522" lon="-8.45358">
        <ele>22.25</ele>
        <time>2019-05-23T09:47:40Z</time>
      </trkpt>
      <trkpt lat="40.47521" lon="-8.45361">
        <ele>22.73</ele>
        <time>2019-05-23T09:47:59Z</time>
      </trkpt>
      <trkpt lat="40.47522" lon="-8.45362">
        <ele>22.73</ele>
        <time>2019-05-23T09:48:15Z</time>
      </trkpt>
      <trkpt lat="40.47522" lon="-8.45362">
        <ele>23.21</ele>
        <time>2019-05-23T09:48:38Z</time>
      </trkpt>
      <trkpt lat="40.4752" lon="-8.45363">
        <ele>23.69</ele>
        <time>2019-05-23T09:49:03Z</time>
      </trkpt>
      <trkpt lat="40.47523" lon="-8.45359">
        <ele>23.21</ele>
        <time>2019-05-23T09:49:29Z</time>
      </trkpt>
      <trkpt lat="40.47523" lon="-8.4536">
        <ele>23.21</ele>
        <time>2019-05-23T09:49:48Z</time>
      </trkpt>
      <trkpt lat="40.47522" lon="-8.45359">
        <ele>23.21</ele>
        <time>2019-05-23T09:50:12Z</time>
      </trkpt>
      <trkpt lat="40.47522" lon="-8.45361">
        <ele>23.69</ele>
        <time>2019-05-23T09:50:37Z</time>
      </trkpt>
      <trkpt lat="40.47524" lon="-8.4536">
        <ele>23.69</ele>
        <time>2019-05-23T09:51:10Z</time>
      </trkpt>
      <trkpt lat="40.47522" lon="-8.45361">
        <ele>23.69</ele>
        <time>2019-05-23T09:51:36Z</time>
      </trkpt>
      <trkpt lat="40.47521" lon="-8.45361">
        <ele>23.69</ele>
        <time>2019-05-23T09:51:59Z</time>
      </trkpt>
      <trkpt lat="40.4752" lon="-8.4536">
        <ele>24.17</ele>
        <time>2019-05-23T09:52:26Z</time>
      </trkpt>
      <trkpt lat="40.47527" lon="-8.45359">
        <ele>23.69</ele>
        <time>2019-05-23T09:52:51Z</time>
      </trkpt>
      <trkpt lat="40.47525" lon="-8.45359">
        <ele>25.13</ele>
        <time>2019-05-23T09:53:24Z</time>
      </trkpt>
      <trkpt lat="40.47527" lon="-8.45364">
        <ele>24.17</ele>
        <time>2019-05-23T09:53:37Z</time>
      </trkpt>
      <trkpt lat="40.47533" lon="-8.45367">
        <ele>24.17</ele>
        <time>2019-05-23T09:53:43Z</time>
      </trkpt>
      <trkpt lat="40.47547" lon="-8.45369">
        <ele>24.17</ele>
        <time>2019-05-23T09:53:56Z</time>
      </trkpt>
      <trkpt lat="40.47554" lon="-8.4537">
        <ele>25.13</ele>
        <time>2019-05-23T09:54:05Z</time>
      </trkpt>
      <trkpt lat="40.47558" lon="-8.45373">
        <ele>24.17</ele>
        <time>2019-05-23T09:54:08Z</time>
      </trkpt>
      <trkpt lat="40.47578" lon="-8.45374">
        <ele>24.17</ele>
        <time>2019-05-23T09:54:24Z</time>
      </trkpt>
      <trkpt lat="40.47598" lon="-8.45374">
        <ele>24.65</ele>
        <time>2019-05-23T09:54:40Z</time>
      </trkpt>
      <trkpt lat="40.4762" lon="-8.45371">
        <ele>23.69</ele>
        <time>2019-05-23T09:54:57Z</time>
      </trkpt>
      <trkpt lat="40.47631" lon="-8.45365">
        <ele>23.21</ele>
        <time>2019-05-23T09:55:11Z</time>
      </trkpt>
      <trkpt lat="40.47633" lon="-8.45364">
        <ele>23.21</ele>
        <time>2019-05-23T09:55:13Z</time>
      </trkpt>
      <trkpt lat="40.47649" lon="-8.45351">
        <ele>23.21</ele>
        <time>2019-05-23T09:55:28Z</time>
      </trkpt>
      <trkpt lat="40.47661" lon="-8.45334">
        <ele>23.21</ele>
        <time>2019-05-23T09:55:42Z</time>
      </trkpt>
      <trkpt lat="40.47663" lon="-8.45328">
        <ele>23.69</ele>
        <time>2019-05-23T09:55:55Z</time>
      </trkpt>
      <trkpt lat="40.47673" lon="-8.45318">
        <ele>23.21</ele>
        <time>2019-05-23T09:56:08Z</time>
      </trkpt>
      <trkpt lat="40.4769" lon="-8.45311">
        <ele>23.21</ele>
        <time>2019-05-23T09:56:23Z</time>
      </trkpt>
      <trkpt lat="40.47707" lon="-8.45307">
        <ele>24.17</ele>
        <time>2019-05-23T09:56:37Z</time>
      </trkpt>
      <trkpt lat="40.47719" lon="-8.45304">
        <ele>23.69</ele>
        <time>2019-05-23T09:56:47Z</time>
      </trkpt>
      <trkpt lat="40.47732" lon="-8.45307">
        <ele>23.69</ele>
        <time>2019-05-23T09:57:00Z</time>
      </trkpt>
      <trkpt lat="40.47733" lon="-8.45309">
        <ele>24.17</ele>
        <time>2019-05-23T09:57:02Z</time>
      </trkpt>
      <trkpt lat="40.47744" lon="-8.45324">
        <ele>24.65</ele>
        <time>2019-05-23T09:57:14Z</time>
      </trkpt>
      <trkpt lat="40.47753" lon="-8.45334">
        <ele>24.17</ele>
        <time>2019-05-23T09:57:28Z</time>
      </trkpt>
      <trkpt lat="40.47749" lon="-8.45331">
        <ele>24.65</ele>
        <time>2019-05-23T09:57:42Z</time>
      </trkpt>
      <trkpt lat="40.47752" lon="-8.45336">
        <ele>24.17</ele>
        <time>2019-05-23T09:57:54Z</time>
      </trkpt>
      <trkpt lat="40.47753" lon="-8.45341">
        <ele>23.69</ele>
        <time>2019-05-23T09:57:58Z</time>
      </trkpt>
      <trkpt lat="40.47757" lon="-8.45365">
        <ele>23.69</ele>
        <time>2019-05-23T09:58:13Z</time>
      </trkpt>
      <trkpt lat="40.4776" lon="-8.45376">
        <ele>24.17</ele>
        <time>2019-05-23T09:58:25Z</time>
      </trkpt>
      <trkpt lat="40.47762" lon="-8.45379">
        <ele>24.17</ele>
        <time>2019-05-23T09:58:30Z</time>
      </trkpt>
      <trkpt lat="40.47764" lon="-8.45387">
        <ele>24.17</ele>
        <time>2019-05-23T09:58:36Z</time>
      </trkpt>
      <trkpt lat="40.4777" lon="-8.45402">
        <ele>23.69</ele>
        <time>2019-05-23T09:58:48Z</time>
      </trkpt>
      <trkpt lat="40.47774" lon="-8.45406">
        <ele>24.17</ele>
        <time>2019-05-23T09:59:05Z</time>
      </trkpt>
      <trkpt lat="40.47777" lon="-8.45405">
        <ele>23.69</ele>
        <time>2019-05-23T09:59:27Z</time>
      </trkpt>
      <trkpt lat="40.47779" lon="-8.45395">
        <ele>23.69</ele>
        <time>2019-05-23T09:59:46Z</time>
      </trkpt>
      <trkpt lat="40.47796" lon="-8.45387">
        <ele>23.69</ele>
        <time>2019-05-23T10:00:00Z</time>
      </trkpt>
      <trkpt lat="40.47805" lon="-8.45384">
        <ele>23.69</ele>
        <time>2019-05-23T10:00:09Z</time>
      </trkpt>
      <trkpt lat="40.4782" lon="-8.45378">
        <ele>23.69</ele>
        <time>2019-05-23T10:00:21Z</time>
      </trkpt>
      <trkpt lat="40.47835" lon="-8.45372">
        <ele>24.17</ele>
        <time>2019-05-23T10:00:34Z</time>
      </trkpt>
      <trkpt lat="40.47846" lon="-8.45368">
        <ele>24.65</ele>
        <time>2019-05-23T10:00:44Z</time>
      </trkpt>
      <trkpt lat="40.47848" lon="-8.45364">
        <ele>24.65</ele>
        <time>2019-05-23T10:00:54Z</time>
      </trkpt>
      <trkpt lat="40.4785" lon="-8.45362">
        <ele>23.69</ele>
        <time>2019-05-23T10:00:57Z</time>
      </trkpt>
      <trkpt lat="40.47846" lon="-8.45344">
        <ele>23.69</ele>
        <time>2019-05-23T10:01:10Z</time>
      </trkpt>
      <trkpt lat="40.4785" lon="-8.45337">
        <ele>24.17</ele>
        <time>2019-05-23T10:01:16Z</time>
      </trkpt>
      <trkpt lat="40.47868" lon="-8.45332">
        <ele>24.17</ele>
        <time>2019-05-23T10:01:29Z</time>
      </trkpt>
      <trkpt lat="40.4788" lon="-8.45332">
        <ele>24.17</ele>
        <time>2019-05-23T10:01:35Z</time>
      </trkpt>
      <trkpt lat="40.47899" lon="-8.45331">
        <ele>24.65</ele>
        <time>2019-05-23T10:01:50Z</time>
      </trkpt>
      <trkpt lat="40.47918" lon="-8.45332">
        <ele>26.57</ele>
        <time>2019-05-23T10:02:05Z</time>
      </trkpt>
      <trkpt lat="40.47925" lon="-8.45332">
        <ele>26.57</ele>
        <time>2019-05-23T10:02:11Z</time>
      </trkpt>
      <trkpt lat="40.4793" lon="-8.45331">
        <ele>26.09</ele>
        <time>2019-05-23T10:02:15Z</time>
      </trkpt>
      <trkpt lat="40.47951" lon="-8.45328">
        <ele>27.05</ele>
        <time>2019-05-23T10:02:32Z</time>
      </trkpt>
      <trkpt lat="40.47952" lon="-8.45328">
        <ele>26.57</ele>
        <time>2019-05-23T10:02:33Z</time>
      </trkpt>
      <trkpt lat="40.47975" lon="-8.45329">
        <ele>27.53</ele>
        <time>2019-05-23T10:02:48Z</time>
      </trkpt>
      <trkpt lat="40.4799" lon="-8.45328">
        <ele>28.5</ele>
        <time>2019-05-23T10:03:00Z</time>
      </trkpt>
      <trkpt lat="40.48001" lon="-8.4533">
        <ele>28.5</ele>
        <time>2019-05-23T10:03:11Z</time>
      </trkpt>
      <trkpt lat="40.48016" lon="-8.45336">
        <ele>29.46</ele>
        <time>2019-05-23T10:03:24Z</time>
      </trkpt>
      <trkpt lat="40.48021" lon="-8.45336">
        <ele>29.94</ele>
        <time>2019-05-23T10:03:27Z</time>
      </trkpt>
      <trkpt lat="40.4803" lon="-8.45332">
        <ele>28.98</ele>
        <time>2019-05-23T10:03:40Z</time>
      </trkpt>
      <trkpt lat="40.48044" lon="-8.45327">
        <ele>29.94</ele>
        <time>2019-05-23T10:03:53Z</time>
      </trkpt>
      <trkpt lat="40.48053" lon="-8.45331">
        <ele>30.42</ele>
        <time>2019-05-23T10:04:01Z</time>
      </trkpt>
      <trkpt lat="40.48064" lon="-8.45337">
        <ele>30.9</ele>
        <time>2019-05-23T10:04:12Z</time>
      </trkpt>
      <trkpt lat="40.4808" lon="-8.45339">
        <ele>31.38</ele>
        <time>2019-05-23T10:04:27Z</time>
      </trkpt>
      <trkpt lat="40.48091" lon="-8.4534">
        <ele>31.38</ele>
        <time>2019-05-23T10:04:37Z</time>
      </trkpt>
      <trkpt lat="40.48105" lon="-8.4534">
        <ele>31.86</ele>
        <time>2019-05-23T10:04:53Z</time>
      </trkpt>
      <trkpt lat="40.48115" lon="-8.45341">
        <ele>31.86</ele>
        <time>2019-05-23T10:05:02Z</time>
      </trkpt>
      <trkpt lat="40.48127" lon="-8.45335">
        <ele>31.86</ele>
        <time>2019-05-23T10:05:13Z</time>
      </trkpt>
      <trkpt lat="40.48131" lon="-8.45332">
        <ele>31.86</ele>
        <time>2019-05-23T10:05:25Z</time>
      </trkpt>
      <trkpt lat="40.48131" lon="-8.45334">
        <ele>31.86</ele>
        <time>2019-05-23T10:05:45Z</time>
      </trkpt>
      <trkpt lat="40.48131" lon="-8.45336">
        <ele>28.5</ele>
        <time>2019-05-23T10:05:53Z</time>
      </trkpt>
      <trkpt lat="40.4813" lon="-8.45336">
        <ele>32.82</ele>
        <time>2019-05-23T10:05:54Z</time>
      </trkpt>
      <trkpt lat="40.48134" lon="-8.45343">
        <ele>32.34</ele>
        <time>2019-05-23T10:06:07Z</time>
      </trkpt>
      <trkpt lat="40.48134" lon="-8.45342">
        <ele>31.38</ele>
        <time>2019-05-23T10:06:23Z</time>
      </trkpt>
      <trkpt lat="40.48133" lon="-8.45341">
        <ele>31.38</ele>
        <time>2019-05-23T10:06:48Z</time>
      </trkpt>
      <trkpt lat="40.48128" lon="-8.45341">
        <ele>31.86</ele>
        <time>2019-05-23T10:07:11Z</time>
      </trkpt>
      <trkpt lat="40.48134" lon="-8.45339">
        <ele>32.34</ele>
        <time>2019-05-23T10:07:33Z</time>
      </trkpt>
      <trkpt lat="40.48141" lon="-8.4534">
        <ele>32.82</ele>
        <time>2019-05-23T10:07:58Z</time>
      </trkpt>
      <trkpt lat="40.4814" lon="-8.4534">
        <ele>32.82</ele>
        <time>2019-05-23T10:08:20Z</time>
      </trkpt>
      <trkpt lat="40.48138" lon="-8.45343">
        <ele>32.82</ele>
        <time>2019-05-23T10:08:39Z</time>
      </trkpt>
      <trkpt lat="40.48133" lon="-8.45344">
        <ele>32.34</ele>
        <time>2019-05-23T10:09:14Z</time>
      </trkpt>
      <trkpt lat="40.48132" lon="-8.45341">
        <ele>33.3</ele>
        <time>2019-05-23T10:09:31Z</time>
      </trkpt>
      <trkpt lat="40.48137" lon="-8.45343">
        <ele>33.3</ele>
        <time>2019-05-23T10:09:54Z</time>
      </trkpt>
      <trkpt lat="40.48138" lon="-8.45343">
        <ele>33.3</ele>
        <time>2019-05-23T10:10:21Z</time>
      </trkpt>
      <trkpt lat="40.4814" lon="-8.45346">
        <ele>33.3</ele>
        <time>2019-05-23T10:10:58Z</time>
      </trkpt>
      <trkpt lat="40.48138" lon="-8.45343">
        <ele>33.3</ele>
        <time>2019-05-23T10:11:25Z</time>
      </trkpt>
      <trkpt lat="40.48133" lon="-8.45345">
        <ele>33.78</ele>
        <time>2019-05-23T10:11:46Z</time>
      </trkpt>
      <trkpt lat="40.48128" lon="-8.45347">
        <ele>34.26</ele>
        <time>2019-05-23T10:12:09Z</time>
      </trkpt>
      <trkpt lat="40.48134" lon="-8.45337">
        <ele>34.26</ele>
        <time>2019-05-23T10:12:25Z</time>
      </trkpt>
      <trkpt lat="40.48133" lon="-8.45344">
        <ele>34.26</ele>
        <time>2019-05-23T10:12:46Z</time>
      </trkpt>
      <trkpt lat="40.48134" lon="-8.45344">
        <ele>34.26</ele>
        <time>2019-05-23T10:13:07Z</time>
      </trkpt>
      <trkpt lat="40.48139" lon="-8.45348">
        <ele>34.26</ele>
        <time>2019-05-23T10:13:37Z</time>
      </trkpt>
      <trkpt lat="40.48138" lon="-8.45346">
        <ele>35.23</ele>
        <time>2019-05-23T10:14:00Z</time>
      </trkpt>
      <trkpt lat="40.48133" lon="-8.45348">
        <ele>34.74</ele>
        <time>2019-05-23T10:14:28Z</time>
      </trkpt>
      <trkpt lat="40.48134" lon="-8.45341">
        <ele>34.26</ele>
        <time>2019-05-23T10:14:52Z</time>
      </trkpt>
      <trkpt lat="40.48135" lon="-8.45341">
        <ele>35.23</ele>
        <time>2019-05-23T10:15:11Z</time>
      </trkpt>
      <trkpt lat="40.48133" lon="-8.45346">
        <ele>35.23</ele>
        <time>2019-05-23T10:15:29Z</time>
      </trkpt>
      <trkpt lat="40.48132" lon="-8.45349">
        <ele>35.23</ele>
        <time>2019-05-23T10:15:54Z</time>
      </trkpt>
      <trkpt lat="40.48132" lon="-8.45348">
        <ele>34.74</ele>
        <time>2019-05-23T10:16:26Z</time>
      </trkpt>
      <trkpt lat="40.48135" lon="-8.45345">
        <ele>35.23</ele>
        <time>2019-05-23T10:16:41Z</time>
      </trkpt>
      <trkpt lat="40.4813" lon="-8.45347">
        <ele>35.23</ele>
        <time>2019-05-23T10:17:00Z</time>
      </trkpt>
      <trkpt lat="40.48137" lon="-8.45345">
        <ele>34.74</ele>
        <time>2019-05-23T10:17:11Z</time>
      </trkpt>
      <trkpt lat="40.48141" lon="-8.4534">
        <ele>34.74</ele>
        <time>2019-05-23T10:17:17Z</time>
      </trkpt>
      <trkpt lat="40.48157" lon="-8.45338">
        <ele>34.74</ele>
        <time>2019-05-23T10:17:31Z</time>
      </trkpt>
      <trkpt lat="40.48172" lon="-8.45339">
        <ele>34.74</ele>
        <time>2019-05-23T10:17:44Z</time>
      </trkpt>
      <trkpt lat="40.48178" lon="-8.45339">
        <ele>35.23</ele>
        <time>2019-05-23T10:17:48Z</time>
      </trkpt>
      <trkpt lat="40.48181" lon="-8.4534">
        <ele>35.71</ele>
        <time>2019-05-23T10:17:51Z</time>
      </trkpt>
      <trkpt lat="40.48201" lon="-8.45339">
        <ele>35.71</ele>
        <time>2019-05-23T10:18:09Z</time>
      </trkpt>
      <trkpt lat="40.48207" lon="-8.4534">
        <ele>35.71</ele>
        <time>2019-05-23T10:18:19Z</time>
      </trkpt>
      <trkpt lat="40.48218" lon="-8.4534">
        <ele>36.19</ele>
        <time>2019-05-23T10:18:32Z</time>
      </trkpt>
      <trkpt lat="40.48225" lon="-8.45341">
        <ele>35.71</ele>
        <time>2019-05-23T10:18:44Z</time>
      </trkpt>
      <trkpt lat="40.48242" lon="-8.45343">
        <ele>35.23</ele>
        <time>2019-05-23T10:18:59Z</time>
      </trkpt>
      <trkpt lat="40.48256" lon="-8.45345">
        <ele>35.23</ele>
        <time>2019-05-23T10:19:11Z</time>
      </trkpt>
      <trkpt lat="40.48266" lon="-8.45345">
        <ele>36.19</ele>
        <time>2019-05-23T10:19:22Z</time>
      </trkpt>
      <trkpt lat="40.48284" lon="-8.45348">
        <ele>35.71</ele>
        <time>2019-05-23T10:19:38Z</time>
      </trkpt>
      <trkpt lat="40.48286" lon="-8.45349">
        <ele>36.19</ele>
        <time>2019-05-23T10:19:40Z</time>
      </trkpt>
      <trkpt lat="40.48289" lon="-8.45348">
        <ele>35.71</ele>
        <time>2019-05-23T10:19:43Z</time>
      </trkpt>
      <trkpt lat="40.48307" lon="-8.45349">
        <ele>35.71</ele>
        <time>2019-05-23T10:19:58Z</time>
      </trkpt>
      <trkpt lat="40.48322" lon="-8.4535">
        <ele>36.67</ele>
        <time>2019-05-23T10:20:11Z</time>
      </trkpt>
      <trkpt lat="40.48339" lon="-8.45351">
        <ele>36.19</ele>
        <time>2019-05-23T10:20:25Z</time>
      </trkpt>
      <trkpt lat="40.48357" lon="-8.45352">
        <ele>35.23</ele>
        <time>2019-05-23T10:20:40Z</time>
      </trkpt>
      <trkpt lat="40.48368" lon="-8.45353">
        <ele>35.71</ele>
        <time>2019-05-23T10:20:49Z</time>
      </trkpt>
      <trkpt lat="40.48371" lon="-8.45352">
        <ele>35.71</ele>
        <time>2019-05-23T10:20:52Z</time>
      </trkpt>
      <trkpt lat="40.48389" lon="-8.45357">
        <ele>34.74</ele>
        <time>2019-05-23T10:21:06Z</time>
      </trkpt>
      <trkpt lat="40.48406" lon="-8.45363">
        <ele>33.78</ele>
        <time>2019-05-23T10:21:20Z</time>
      </trkpt>
      <trkpt lat="40.48409" lon="-8.45365">
        <ele>34.26</ele>
        <time>2019-05-23T10:21:23Z</time>
      </trkpt>
      <trkpt lat="40.48411" lon="-8.45371">
        <ele>34.26</ele>
        <time>2019-05-23T10:21:39Z</time>
      </trkpt>
      <trkpt lat="40.48416" lon="-8.45373">
        <ele>33.78</ele>
        <time>2019-05-23T10:21:55Z</time>
      </trkpt>
      <trkpt lat="40.48417" lon="-8.45374">
        <ele>33.78</ele>
        <time>2019-05-23T10:21:56Z</time>
      </trkpt>
      <trkpt lat="40.4843" lon="-8.4538">
        <ele>33.78</ele>
        <time>2019-05-23T10:22:08Z</time>
      </trkpt>
      <trkpt lat="40.48434" lon="-8.45383">
        <ele>33.78</ele>
        <time>2019-05-23T10:22:12Z</time>
      </trkpt>
      <trkpt lat="40.48442" lon="-8.45389">
        <ele>34.26</ele>
        <time>2019-05-23T10:22:23Z</time>
      </trkpt>
      <trkpt lat="40.48454" lon="-8.45393">
        <ele>34.74</ele>
        <time>2019-05-23T10:22:33Z</time>
      </trkpt>
      <trkpt lat="40.48467" lon="-8.45404">
        <ele>34.26</ele>
        <time>2019-05-23T10:22:47Z</time>
      </trkpt>
      <trkpt lat="40.4847" lon="-8.45405">
        <ele>34.26</ele>
        <time>2019-05-23T10:22:49Z</time>
      </trkpt>
      <trkpt lat="40.48487" lon="-8.45416">
        <ele>33.3</ele>
        <time>2019-05-23T10:23:04Z</time>
      </trkpt>
      <trkpt lat="40.48491" lon="-8.45419">
        <ele>33.3</ele>
        <time>2019-05-23T10:23:08Z</time>
      </trkpt>
      <trkpt lat="40.485" lon="-8.45423">
        <ele>33.3</ele>
        <time>2019-05-23T10:23:23Z</time>
      </trkpt>
      <trkpt lat="40.48511" lon="-8.45432">
        <ele>32.34</ele>
        <time>2019-05-23T10:23:35Z</time>
      </trkpt>
      <trkpt lat="40.48513" lon="-8.45433">
        <ele>32.82</ele>
        <time>2019-05-23T10:23:37Z</time>
      </trkpt>
      <trkpt lat="40.4853" lon="-8.45446">
        <ele>32.34</ele>
        <time>2019-05-23T10:23:52Z</time>
      </trkpt>
      <trkpt lat="40.48545" lon="-8.45459">
        <ele>30.9</ele>
        <time>2019-05-23T10:24:09Z</time>
      </trkpt>
      <trkpt lat="40.4856" lon="-8.45466">
        <ele>30.9</ele>
        <time>2019-05-23T10:24:21Z</time>
      </trkpt>
      <trkpt lat="40.4858" lon="-8.45476">
        <ele>28.98</ele>
        <time>2019-05-23T10:24:38Z</time>
      </trkpt>
      <trkpt lat="40.48589" lon="-8.45482">
        <ele>29.46</ele>
        <time>2019-05-23T10:24:52Z</time>
      </trkpt>
      <trkpt lat="40.48608" lon="-8.4549">
        <ele>29.46</ele>
        <time>2019-05-23T10:25:08Z</time>
      </trkpt>
      <trkpt lat="40.48625" lon="-8.45496">
        <ele>28.02</ele>
        <time>2019-05-23T10:25:23Z</time>
      </trkpt>
      <trkpt lat="40.48635" lon="-8.45501">
        <ele>28.02</ele>
        <time>2019-05-23T10:25:34Z</time>
      </trkpt>
      <trkpt lat="40.48651" lon="-8.45505">
        <ele>27.53</ele>
        <time>2019-05-23T10:25:47Z</time>
      </trkpt>
      <trkpt lat="40.48665" lon="-8.45509">
        <ele>28.5</ele>
        <time>2019-05-23T10:26:01Z</time>
      </trkpt>
      <trkpt lat="40.48682" lon="-8.45514">
        <ele>28.02</ele>
        <time>2019-05-23T10:26:16Z</time>
      </trkpt>
      <trkpt lat="40.487" lon="-8.4552">
        <ele>28.5</ele>
        <time>2019-05-23T10:26:31Z</time>
      </trkpt>
      <trkpt lat="40.48716" lon="-8.45526">
        <ele>28.02</ele>
        <time>2019-05-23T10:26:45Z</time>
      </trkpt>
      <trkpt lat="40.48732" lon="-8.4553">
        <ele>27.53</ele>
        <time>2019-05-23T10:26:59Z</time>
      </trkpt>
      <trkpt lat="40.48751" lon="-8.45533">
        <ele>27.53</ele>
        <time>2019-05-23T10:27:14Z</time>
      </trkpt>
      <trkpt lat="40.48767" lon="-8.45539">
        <ele>27.05</ele>
        <time>2019-05-23T10:27:29Z</time>
      </trkpt>
      <trkpt lat="40.48787" lon="-8.45546">
        <ele>28.02</ele>
        <time>2019-05-23T10:27:45Z</time>
      </trkpt>
      <trkpt lat="40.48802" lon="-8.45551">
        <ele>27.53</ele>
        <time>2019-05-23T10:27:58Z</time>
      </trkpt>
      <trkpt lat="40.48818" lon="-8.45554">
        <ele>27.05</ele>
        <time>2019-05-23T10:28:11Z</time>
      </trkpt>
      <trkpt lat="40.48834" lon="-8.45558">
        <ele>27.53</ele>
        <time>2019-05-23T10:28:26Z</time>
      </trkpt>
      <trkpt lat="40.48844" lon="-8.45561">
        <ele>26.57</ele>
        <time>2019-05-23T10:28:48Z</time>
      </trkpt>
      <trkpt lat="40.48845" lon="-8.45561">
        <ele>26.09</ele>
        <time>2019-05-23T10:28:49Z</time>
      </trkpt>
      <trkpt lat="40.48866" lon="-8.45565">
        <ele>27.05</ele>
        <time>2019-05-23T10:29:05Z</time>
      </trkpt>
      <trkpt lat="40.48884" lon="-8.45564">
        <ele>27.05</ele>
        <time>2019-05-23T10:29:20Z</time>
      </trkpt>
      <trkpt lat="40.48893" lon="-8.45562">
        <ele>26.09</ele>
        <time>2019-05-23T10:29:29Z</time>
      </trkpt>
      <trkpt lat="40.48908" lon="-8.45558">
        <ele>26.57</ele>
        <time>2019-05-23T10:29:41Z</time>
      </trkpt>
      <trkpt lat="40.48921" lon="-8.45553">
        <ele>25.61</ele>
        <time>2019-05-23T10:29:53Z</time>
      </trkpt>
      <trkpt lat="40.48928" lon="-8.45549">
        <ele>25.13</ele>
        <time>2019-05-23T10:29:59Z</time>
      </trkpt>
      <trkpt lat="40.4893" lon="-8.45548">
        <ele>25.61</ele>
        <time>2019-05-23T10:30:01Z</time>
      </trkpt>
      <trkpt lat="40.48944" lon="-8.45544">
        <ele>25.13</ele>
        <time>2019-05-23T10:30:15Z</time>
      </trkpt>
      <trkpt lat="40.48956" lon="-8.45541">
        <ele>25.61</ele>
        <time>2019-05-23T10:30:26Z</time>
      </trkpt>
      <trkpt lat="40.4896" lon="-8.45538">
        <ele>25.61</ele>
        <time>2019-05-23T10:30:31Z</time>
      </trkpt>
      <trkpt lat="40.48978" lon="-8.45534">
        <ele>24.65</ele>
        <time>2019-05-23T10:30:45Z</time>
      </trkpt>
      <trkpt lat="40.48984" lon="-8.45532">
        <ele>24.17</ele>
        <time>2019-05-23T10:30:49Z</time>
      </trkpt>
      <trkpt lat="40.48989" lon="-8.45531">
        <ele>24.17</ele>
        <time>2019-05-23T10:30:53Z</time>
      </trkpt>
      <trkpt lat="40.49005" lon="-8.45526">
        <ele>24.17</ele>
        <time>2019-05-23T10:31:06Z</time>
      </trkpt>
      <trkpt lat="40.49021" lon="-8.45521">
        <ele>24.65</ele>
        <time>2019-05-23T10:31:19Z</time>
      </trkpt>
      <trkpt lat="40.49037" lon="-8.45515">
        <ele>23.69</ele>
        <time>2019-05-23T10:31:33Z</time>
      </trkpt>
      <trkpt lat="40.4905" lon="-8.4551">
        <ele>23.21</ele>
        <time>2019-05-23T10:31:46Z</time>
      </trkpt>
      <trkpt lat="40.49066" lon="-8.45505">
        <ele>23.21</ele>
        <time>2019-05-23T10:31:59Z</time>
      </trkpt>
      <trkpt lat="40.49084" lon="-8.455">
        <ele>23.69</ele>
        <time>2019-05-23T10:32:13Z</time>
      </trkpt>
      <trkpt lat="40.491" lon="-8.45494">
        <ele>23.69</ele>
        <time>2019-05-23T10:32:27Z</time>
      </trkpt>
      <trkpt lat="40.49115" lon="-8.4549">
        <ele>24.17</ele>
        <time>2019-05-23T10:32:41Z</time>
      </trkpt>
      <trkpt lat="40.49133" lon="-8.45484">
        <ele>23.69</ele>
        <time>2019-05-23T10:32:55Z</time>
      </trkpt>
      <trkpt lat="40.49146" lon="-8.45481">
        <ele>22.73</ele>
        <time>2019-05-23T10:33:06Z</time>
      </trkpt>
      <trkpt lat="40.49162" lon="-8.45476">
        <ele>23.21</ele>
        <time>2019-05-23T10:33:20Z</time>
      </trkpt>
      <trkpt lat="40.4918" lon="-8.45471">
        <ele>24.17</ele>
        <time>2019-05-23T10:33:35Z</time>
      </trkpt>
      <trkpt lat="40.4918" lon="-8.45472">
        <ele>24.17</ele>
        <time>2019-05-23T10:33:47Z</time>
      </trkpt>
      <trkpt lat="40.49187" lon="-8.45469">
        <ele>25.13</ele>
        <time>2019-05-23T10:34:04Z</time>
      </trkpt>
      <trkpt lat="40.49203" lon="-8.45466">
        <ele>25.61</ele>
        <time>2019-05-23T10:34:18Z</time>
      </trkpt>
      <trkpt lat="40.49213" lon="-8.45465">
        <ele>25.61</ele>
        <time>2019-05-23T10:34:27Z</time>
      </trkpt>
      <trkpt lat="40.49224" lon="-8.45463">
        <ele>25.61</ele>
        <time>2019-05-23T10:34:39Z</time>
      </trkpt>
      <trkpt lat="40.49229" lon="-8.45461">
        <ele>26.09</ele>
        <time>2019-05-23T10:34:43Z</time>
      </trkpt>
      <trkpt lat="40.49239" lon="-8.4546">
        <ele>26.09</ele>
        <time>2019-05-23T10:34:51Z</time>
      </trkpt>
      <trkpt lat="40.49255" lon="-8.45458">
        <ele>26.57</ele>
        <time>2019-05-23T10:35:04Z</time>
      </trkpt>
      <trkpt lat="40.49273" lon="-8.45454">
        <ele>26.09</ele>
        <time>2019-05-23T10:35:18Z</time>
      </trkpt>
      <trkpt lat="40.49277" lon="-8.45454">
        <ele>26.57</ele>
        <time>2019-05-23T10:35:30Z</time>
      </trkpt>
      <trkpt lat="40.4928" lon="-8.45453">
        <ele>26.57</ele>
        <time>2019-05-23T10:35:32Z</time>
      </trkpt>
      <trkpt lat="40.49299" lon="-8.45447">
        <ele>26.57</ele>
        <time>2019-05-23T10:35:49Z</time>
      </trkpt>
      <trkpt lat="40.49317" lon="-8.45442">
        <ele>26.09</ele>
        <time>2019-05-23T10:36:04Z</time>
      </trkpt>
      <trkpt lat="40.49333" lon="-8.45438">
        <ele>26.09</ele>
        <time>2019-05-23T10:36:17Z</time>
      </trkpt>
      <trkpt lat="40.49346" lon="-8.45433">
        <ele>26.09</ele>
        <time>2019-05-23T10:36:28Z</time>
      </trkpt>
      <trkpt lat="40.49358" lon="-8.45429">
        <ele>25.61</ele>
        <time>2019-05-23T10:36:39Z</time>
      </trkpt>
      <trkpt lat="40.49373" lon="-8.45428">
        <ele>25.13</ele>
        <time>2019-05-23T10:36:51Z</time>
      </trkpt>
      <trkpt lat="40.4939" lon="-8.45424">
        <ele>24.65</ele>
        <time>2019-05-23T10:37:05Z</time>
      </trkpt>
      <trkpt lat="40.49391" lon="-8.45424">
        <ele>24.65</ele>
        <time>2019-05-23T10:37:06Z</time>
      </trkpt>
      <trkpt lat="40.49411" lon="-8.45423">
        <ele>24.65</ele>
        <time>2019-05-23T10:37:21Z</time>
      </trkpt>
      <trkpt lat="40.49429" lon="-8.45424">
        <ele>24.65</ele>
        <time>2019-05-23T10:37:35Z</time>
      </trkpt>
      <trkpt lat="40.49446" lon="-8.45423">
        <ele>25.13</ele>
        <time>2019-05-23T10:37:50Z</time>
      </trkpt>
      <trkpt lat="40.49444" lon="-8.45419">
        <ele>25.13</ele>
        <time>2019-05-23T10:38:03Z</time>
      </trkpt>
      <trkpt lat="40.49445" lon="-8.45412">
        <ele>25.61</ele>
        <time>2019-05-23T10:38:20Z</time>
      </trkpt>
      <trkpt lat="40.49447" lon="-8.45414">
        <ele>25.61</ele>
        <time>2019-05-23T10:38:37Z</time>
      </trkpt>
      <trkpt lat="40.4945" lon="-8.45416">
        <ele>25.61</ele>
        <time>2019-05-23T10:38:52Z</time>
      </trkpt>
      <trkpt lat="40.49446" lon="-8.45416">
        <ele>24.65</ele>
        <time>2019-05-23T10:39:05Z</time>
      </trkpt>
      <trkpt lat="40.49458" lon="-8.45418">
        <ele>25.61</ele>
        <time>2019-05-23T10:39:16Z</time>
      </trkpt>
      <trkpt lat="40.49471" lon="-8.45411">
        <ele>25.13</ele>
        <time>2019-05-23T10:39:29Z</time>
      </trkpt>
      <trkpt lat="40.49483" lon="-8.45407">
        <ele>26.57</ele>
        <time>2019-05-23T10:39:41Z</time>
      </trkpt>
      <trkpt lat="40.49489" lon="-8.45399">
        <ele>26.57</ele>
        <time>2019-05-23T10:39:51Z</time>
      </trkpt>
      <trkpt lat="40.49504" lon="-8.4539">
        <ele>26.57</ele>
        <time>2019-05-23T10:40:05Z</time>
      </trkpt>
      <trkpt lat="40.49509" lon="-8.45389">
        <ele>27.05</ele>
        <time>2019-05-23T10:40:09Z</time>
      </trkpt>
      <trkpt lat="40.49521" lon="-8.45383">
        <ele>27.05</ele>
        <time>2019-05-23T10:40:22Z</time>
      </trkpt>
      <trkpt lat="40.49525" lon="-8.45382">
        <ele>27.05</ele>
        <time>2019-05-23T10:40:38Z</time>
      </trkpt>
      <trkpt lat="40.49533" lon="-8.4538">
        <ele>27.53</ele>
        <time>2019-05-23T10:40:56Z</time>
      </trkpt>
      <trkpt lat="40.49542" lon="-8.45383">
        <ele>27.53</ele>
        <time>2019-05-23T10:41:10Z</time>
      </trkpt>
      <trkpt lat="40.49541" lon="-8.45382">
        <ele>27.53</ele>
        <time>2019-05-23T10:41:31Z</time>
      </trkpt>
      <trkpt lat="40.49544" lon="-8.45383">
        <ele>27.53</ele>
        <time>2019-05-23T10:41:34Z</time>
      </trkpt>
      <trkpt lat="40.49548" lon="-8.45385">
        <ele>28.02</ele>
        <time>2019-05-23T10:41:37Z</time>
      </trkpt>
      <trkpt lat="40.49563" lon="-8.45386">
        <ele>26.57</ele>
        <time>2019-05-23T10:41:50Z</time>
      </trkpt>
      <trkpt lat="40.4958" lon="-8.45389">
        <ele>27.05</ele>
        <time>2019-05-23T10:42:04Z</time>
      </trkpt>
      <trkpt lat="40.49583" lon="-8.45389">
        <ele>25.61</ele>
        <time>2019-05-23T10:42:07Z</time>
      </trkpt>
      <trkpt lat="40.49586" lon="-8.45389">
        <ele>26.57</ele>
        <time>2019-05-23T10:42:10Z</time>
      </trkpt>
      <trkpt lat="40.49606" lon="-8.45391">
        <ele>27.05</ele>
        <time>2019-05-23T10:42:25Z</time>
      </trkpt>
      <trkpt lat="40.49622" lon="-8.45392">
        <ele>26.57</ele>
        <time>2019-05-23T10:42:38Z</time>
      </trkpt>
      <trkpt lat="40.49642" lon="-8.45396">
        <ele>25.61</ele>
        <time>2019-05-23T10:42:53Z</time>
      </trkpt>
      <trkpt lat="40.49658" lon="-8.45403">
        <ele>26.57</ele>
        <time>2019-05-23T10:43:08Z</time>
      </trkpt>
      <trkpt lat="40.4967" lon="-8.45408">
        <ele>26.57</ele>
        <time>2019-05-23T10:43:21Z</time>
      </trkpt>
      <trkpt lat="40.49685" lon="-8.45413">
        <ele>25.61</ele>
        <time>2019-05-23T10:43:35Z</time>
      </trkpt>
      <trkpt lat="40.49702" lon="-8.45418">
        <ele>25.61</ele>
        <time>2019-05-23T10:43:48Z</time>
      </trkpt>
      <trkpt lat="40.4972" lon="-8.45426">
        <ele>25.13</ele>
        <time>2019-05-23T10:44:02Z</time>
      </trkpt>
      <trkpt lat="40.49729" lon="-8.45429">
        <ele>25.61</ele>
        <time>2019-05-23T10:44:13Z</time>
      </trkpt>
      <trkpt lat="40.49733" lon="-8.4543">
        <ele>25.61</ele>
        <time>2019-05-23T10:44:26Z</time>
      </trkpt>
      <trkpt lat="40.49735" lon="-8.45433">
        <ele>25.61</ele>
        <time>2019-05-23T10:44:41Z</time>
      </trkpt>
      <trkpt lat="40.49739" lon="-8.45433">
        <ele>25.13</ele>
        <time>2019-05-23T10:44:44Z</time>
      </trkpt>
      <trkpt lat="40.49754" lon="-8.45439">
        <ele>25.61</ele>
        <time>2019-05-23T10:45:00Z</time>
      </trkpt>
      <trkpt lat="40.49755" lon="-8.45438">
        <ele>25.61</ele>
        <time>2019-05-23T10:45:01Z</time>
      </trkpt>
      <trkpt lat="40.49757" lon="-8.45439">
        <ele>26.09</ele>
        <time>2019-05-23T10:45:03Z</time>
      </trkpt>
      <trkpt lat="40.49773" lon="-8.45448">
        <ele>25.61</ele>
        <time>2019-05-23T10:45:17Z</time>
      </trkpt>
      <trkpt lat="40.49787" lon="-8.45457">
        <ele>25.13</ele>
        <time>2019-05-23T10:45:29Z</time>
      </trkpt>
      <trkpt lat="40.498" lon="-8.45462">
        <ele>25.61</ele>
        <time>2019-05-23T10:45:43Z</time>
      </trkpt>
      <trkpt lat="40.49802" lon="-8.45463">
        <ele>25.61</ele>
        <time>2019-05-23T10:45:46Z</time>
      </trkpt>
      <trkpt lat="40.49819" lon="-8.45474">
        <ele>25.61</ele>
        <time>2019-05-23T10:46:03Z</time>
      </trkpt>
      <trkpt lat="40.49832" lon="-8.45482">
        <ele>26.09</ele>
        <time>2019-05-23T10:46:17Z</time>
      </trkpt>
      <trkpt lat="40.4984" lon="-8.45488">
        <ele>25.13</ele>
        <time>2019-05-23T10:46:40Z</time>
      </trkpt>
      <trkpt lat="40.49844" lon="-8.45491">
        <ele>25.61</ele>
        <time>2019-05-23T10:46:56Z</time>
      </trkpt>
      <trkpt lat="40.49843" lon="-8.4549">
        <ele>24.65</ele>
        <time>2019-05-23T10:47:11Z</time>
      </trkpt>
      <trkpt lat="40.49845" lon="-8.45491">
        <ele>24.17</ele>
        <time>2019-05-23T10:47:13Z</time>
      </trkpt>
      <trkpt lat="40.49857" lon="-8.45501">
        <ele>24.65</ele>
        <time>2019-05-23T10:47:26Z</time>
      </trkpt>
      <trkpt lat="40.49875" lon="-8.45512">
        <ele>25.13</ele>
        <time>2019-05-23T10:47:42Z</time>
      </trkpt>
      <trkpt lat="40.49878" lon="-8.45516">
        <ele>25.61</ele>
        <time>2019-05-23T10:47:45Z</time>
      </trkpt>
      <trkpt lat="40.49895" lon="-8.45529">
        <ele>24.65</ele>
        <time>2019-05-23T10:48:01Z</time>
      </trkpt>
      <trkpt lat="40.49911" lon="-8.45541">
        <ele>24.65</ele>
        <time>2019-05-23T10:48:15Z</time>
      </trkpt>
      <trkpt lat="40.49912" lon="-8.45541">
        <ele>24.65</ele>
        <time>2019-05-23T10:48:16Z</time>
      </trkpt>
      <trkpt lat="40.4993" lon="-8.45556">
        <ele>24.17</ele>
        <time>2019-05-23T10:48:33Z</time>
      </trkpt>
      <trkpt lat="40.49947" lon="-8.45568">
        <ele>24.17</ele>
        <time>2019-05-23T10:48:50Z</time>
      </trkpt>
      <trkpt lat="40.49967" lon="-8.4558">
        <ele>24.17</ele>
        <time>2019-05-23T10:49:06Z</time>
      </trkpt>
      <trkpt lat="40.4997" lon="-8.4558">
        <ele>24.17</ele>
        <time>2019-05-23T10:49:10Z</time>
      </trkpt>
      <trkpt lat="40.49979" lon="-8.45579">
        <ele>24.17</ele>
        <time>2019-05-23T10:49:17Z</time>
      </trkpt>
      <trkpt lat="40.49982" lon="-8.45577">
        <ele>25.61</ele>
        <time>2019-05-23T10:49:20Z</time>
      </trkpt>
      <trkpt lat="40.49988" lon="-8.45574">
        <ele>25.13</ele>
        <time>2019-05-23T10:49:26Z</time>
      </trkpt>
      <trkpt lat="40.49996" lon="-8.4557">
        <ele>24.65</ele>
        <time>2019-05-23T10:49:33Z</time>
      </trkpt>
      <trkpt lat="40.50005" lon="-8.45567">
        <ele>24.65</ele>
        <time>2019-05-23T10:49:46Z</time>
      </trkpt>
      <trkpt lat="40.5002" lon="-8.45561">
        <ele>23.69</ele>
        <time>2019-05-23T10:49:58Z</time>
      </trkpt>
      <trkpt lat="40.50026" lon="-8.45556">
        <ele>23.69</ele>
        <time>2019-05-23T10:50:04Z</time>
      </trkpt>
      <trkpt lat="40.5004" lon="-8.45541">
        <ele>24.17</ele>
        <time>2019-05-23T10:50:19Z</time>
      </trkpt>
      <trkpt lat="40.50049" lon="-8.45534">
        <ele>23.69</ele>
        <time>2019-05-23T10:50:26Z</time>
      </trkpt>
      <trkpt lat="40.50053" lon="-8.45528">
        <ele>24.17</ele>
        <time>2019-05-23T10:50:31Z</time>
      </trkpt>
      <trkpt lat="40.50058" lon="-8.45523">
        <ele>24.17</ele>
        <time>2019-05-23T10:50:36Z</time>
      </trkpt>
      <trkpt lat="40.50061" lon="-8.4552">
        <ele>23.69</ele>
        <time>2019-05-23T10:50:39Z</time>
      </trkpt>
      <trkpt lat="40.50072" lon="-8.45507">
        <ele>24.17</ele>
        <time>2019-05-23T10:50:51Z</time>
      </trkpt>
      <trkpt lat="40.50078" lon="-8.45499">
        <ele>24.65</ele>
        <time>2019-05-23T10:50:58Z</time>
      </trkpt>
      <trkpt lat="40.50095" lon="-8.45481">
        <ele>25.13</ele>
        <time>2019-05-23T10:51:14Z</time>
      </trkpt>
      <trkpt lat="40.50113" lon="-8.45464">
        <ele>24.65</ele>
        <time>2019-05-23T10:51:31Z</time>
      </trkpt>
      <trkpt lat="40.50116" lon="-8.45462">
        <ele>25.13</ele>
        <time>2019-05-23T10:51:43Z</time>
      </trkpt>
      <trkpt lat="40.5011" lon="-8.4546">
        <ele>25.13</ele>
        <time>2019-05-23T10:51:57Z</time>
      </trkpt>
      <trkpt lat="40.50107" lon="-8.45456">
        <ele>25.13</ele>
        <time>2019-05-23T10:52:10Z</time>
      </trkpt>
      <trkpt lat="40.50108" lon="-8.45456">
        <ele>24.65</ele>
        <time>2019-05-23T10:52:28Z</time>
      </trkpt>
      <trkpt lat="40.50107" lon="-8.45455">
        <ele>24.65</ele>
        <time>2019-05-23T10:52:55Z</time>
      </trkpt>
      <trkpt lat="40.50107" lon="-8.45454">
        <ele>25.13</ele>
        <time>2019-05-23T10:53:11Z</time>
      </trkpt>
      <trkpt lat="40.50108" lon="-8.45456">
        <ele>24.17</ele>
        <time>2019-05-23T10:53:25Z</time>
      </trkpt>
      <trkpt lat="40.5011" lon="-8.45461">
        <ele>25.61</ele>
        <time>2019-05-23T10:53:39Z</time>
      </trkpt>
      <trkpt lat="40.50111" lon="-8.45459">
        <ele>24.17</ele>
        <time>2019-05-23T10:54:03Z</time>
      </trkpt>
      <trkpt lat="40.50111" lon="-8.4546">
        <ele>24.17</ele>
        <time>2019-05-23T10:54:27Z</time>
      </trkpt>
      <trkpt lat="40.50111" lon="-8.45461">
        <ele>24.65</ele>
        <time>2019-05-23T10:54:28Z</time>
      </trkpt>
      <trkpt lat="40.50115" lon="-8.4546">
        <ele>24.17</ele>
        <time>2019-05-23T10:54:32Z</time>
      </trkpt>
      <trkpt lat="40.50125" lon="-8.45452">
        <ele>24.65</ele>
        <time>2019-05-23T10:54:45Z</time>
      </trkpt>
      <trkpt lat="40.50132" lon="-8.45448">
        <ele>24.17</ele>
        <time>2019-05-23T10:54:58Z</time>
      </trkpt>
      <trkpt lat="40.50133" lon="-8.45448">
        <ele>25.13</ele>
        <time>2019-05-23T10:55:11Z</time>
      </trkpt>
      <trkpt lat="40.50139" lon="-8.45444">
        <ele>24.17</ele>
        <time>2019-05-23T10:55:28Z</time>
      </trkpt>
      <trkpt lat="40.50154" lon="-8.45433">
        <ele>24.65</ele>
        <time>2019-05-23T10:55:41Z</time>
      </trkpt>
      <trkpt lat="40.50171" lon="-8.45421">
        <ele>25.13</ele>
        <time>2019-05-23T10:55:56Z</time>
      </trkpt>
      <trkpt lat="40.50177" lon="-8.45417">
        <ele>25.13</ele>
        <time>2019-05-23T10:56:01Z</time>
      </trkpt>
      <trkpt lat="40.50181" lon="-8.45414">
        <ele>25.61</ele>
        <time>2019-05-23T10:56:05Z</time>
      </trkpt>
      <trkpt lat="40.50194" lon="-8.45401">
        <ele>26.57</ele>
        <time>2019-05-23T10:56:19Z</time>
      </trkpt>
      <trkpt lat="40.50197" lon="-8.45399">
        <ele>26.57</ele>
        <time>2019-05-23T10:56:23Z</time>
      </trkpt>
      <trkpt lat="40.50201" lon="-8.45396">
        <ele>27.05</ele>
        <time>2019-05-23T10:56:27Z</time>
      </trkpt>
      <trkpt lat="40.50203" lon="-8.45394">
        <ele>27.05</ele>
        <time>2019-05-23T10:56:30Z</time>
      </trkpt>
      <trkpt lat="40.50209" lon="-8.45391">
        <ele>27.53</ele>
        <time>2019-05-23T10:56:35Z</time>
      </trkpt>
      <trkpt lat="40.50214" lon="-8.45389">
        <ele>27.53</ele>
        <time>2019-05-23T10:56:39Z</time>
      </trkpt>
      <trkpt lat="40.50232" lon="-8.45377">
        <ele>28.5</ele>
        <time>2019-05-23T10:56:54Z</time>
      </trkpt>
      <trkpt lat="40.50236" lon="-8.45374">
        <ele>28.98</ele>
        <time>2019-05-23T10:56:58Z</time>
      </trkpt>
      <trkpt lat="40.50244" lon="-8.45364">
        <ele>30.42</ele>
        <time>2019-05-23T10:57:08Z</time>
      </trkpt>
      <trkpt lat="40.50252" lon="-8.45356">
        <ele>30.9</ele>
        <time>2019-05-23T10:57:20Z</time>
      </trkpt>
      <trkpt lat="40.5026" lon="-8.45351">
        <ele>31.38</ele>
        <time>2019-05-23T10:57:34Z</time>
      </trkpt>
      <trkpt lat="40.50269" lon="-8.45344">
        <ele>32.34</ele>
        <time>2019-05-23T10:57:44Z</time>
      </trkpt>
      <trkpt lat="40.5027" lon="-8.45342">
        <ele>32.34</ele>
        <time>2019-05-23T10:57:46Z</time>
      </trkpt>
      <trkpt lat="40.50281" lon="-8.45336">
        <ele>33.3</ele>
        <time>2019-05-23T10:57:58Z</time>
      </trkpt>
      <trkpt lat="40.50291" lon="-8.45328">
        <ele>34.26</ele>
        <time>2019-05-23T10:58:10Z</time>
      </trkpt>
      <trkpt lat="40.50293" lon="-8.45326">
        <ele>34.74</ele>
        <time>2019-05-23T10:58:12Z</time>
      </trkpt>
      <trkpt lat="40.50306" lon="-8.45316">
        <ele>35.71</ele>
        <time>2019-05-23T10:58:25Z</time>
      </trkpt>
      <trkpt lat="40.50315" lon="-8.4531">
        <ele>36.19</ele>
        <time>2019-05-23T10:58:35Z</time>
      </trkpt>
      <trkpt lat="40.5033" lon="-8.45299">
        <ele>36.67</ele>
        <time>2019-05-23T10:58:48Z</time>
      </trkpt>
      <trkpt lat="40.50335" lon="-8.45298">
        <ele>36.67</ele>
        <time>2019-05-23T10:58:57Z</time>
      </trkpt>
      <trkpt lat="40.50345" lon="-8.45294">
        <ele>36.19</ele>
        <time>2019-05-23T10:59:12Z</time>
      </trkpt>
      <trkpt lat="40.50351" lon="-8.45294">
        <ele>35.71</ele>
        <time>2019-05-23T10:59:16Z</time>
      </trkpt>
      <trkpt lat="40.50368" lon="-8.45287">
        <ele>36.19</ele>
        <time>2019-05-23T10:59:29Z</time>
      </trkpt>
      <trkpt lat="40.50384" lon="-8.45283">
        <ele>35.71</ele>
        <time>2019-05-23T10:59:42Z</time>
      </trkpt>
      <trkpt lat="40.50405" lon="-8.4528">
        <ele>34.26</ele>
        <time>2019-05-23T10:59:59Z</time>
      </trkpt>
      <trkpt lat="40.50422" lon="-8.45277">
        <ele>33.3</ele>
        <time>2019-05-23T11:00:12Z</time>
      </trkpt>
      <trkpt lat="40.50436" lon="-8.45279">
        <ele>31.86</ele>
        <time>2019-05-23T11:00:23Z</time>
      </trkpt>
      <trkpt lat="40.50452" lon="-8.45276">
        <ele>31.38</ele>
        <time>2019-05-23T11:00:34Z</time>
      </trkpt>
      <trkpt lat="40.50471" lon="-8.45274">
        <ele>30.42</ele>
        <time>2019-05-23T11:00:49Z</time>
      </trkpt>
      <trkpt lat="40.50489" lon="-8.45273">
        <ele>29.46</ele>
        <time>2019-05-23T11:01:04Z</time>
      </trkpt>
      <trkpt lat="40.5049" lon="-8.45275">
        <ele>29.94</ele>
        <time>2019-05-23T11:01:16Z</time>
      </trkpt>
      <trkpt lat="40.5051" lon="-8.45272">
        <ele>28.02</ele>
        <time>2019-05-23T11:01:31Z</time>
      </trkpt>
      <trkpt lat="40.50526" lon="-8.45271">
        <ele>27.53</ele>
        <time>2019-05-23T11:01:44Z</time>
      </trkpt>
      <trkpt lat="40.50546" lon="-8.45275">
        <ele>26.57</ele>
        <time>2019-05-23T11:01:59Z</time>
      </trkpt>
      <trkpt lat="40.50557" lon="-8.45276">
        <ele>25.61</ele>
        <time>2019-05-23T11:02:11Z</time>
      </trkpt>
      <trkpt lat="40.50573" lon="-8.45277">
        <ele>24.65</ele>
        <time>2019-05-23T11:02:25Z</time>
      </trkpt>
      <trkpt lat="40.50592" lon="-8.45278">
        <ele>23.69</ele>
        <time>2019-05-23T11:02:37Z</time>
      </trkpt>
      <trkpt lat="40.50594" lon="-8.45279">
        <ele>23.21</ele>
        <time>2019-05-23T11:02:38Z</time>
      </trkpt>
      <trkpt lat="40.50601" lon="-8.45281">
        <ele>22.73</ele>
        <time>2019-05-23T11:02:44Z</time>
      </trkpt>
      <trkpt lat="40.50602" lon="-8.45281">
        <ele>22.73</ele>
        <time>2019-05-23T11:02:45Z</time>
      </trkpt>
      <trkpt lat="40.50604" lon="-8.45281">
        <ele>22.25</ele>
        <time>2019-05-23T11:02:46Z</time>
      </trkpt>
      <trkpt lat="40.50606" lon="-8.45281">
        <ele>22.25</ele>
        <time>2019-05-23T11:02:47Z</time>
      </trkpt>
      <trkpt lat="40.50607" lon="-8.45282">
        <ele>22.73</ele>
        <time>2019-05-23T11:02:48Z</time>
      </trkpt>
      <trkpt lat="40.50627" lon="-8.45283">
        <ele>20.32</ele>
        <time>2019-05-23T11:03:03Z</time>
      </trkpt>
      <trkpt lat="40.50641" lon="-8.45291">
        <ele>18.88</ele>
        <time>2019-05-23T11:03:13Z</time>
      </trkpt>
      <trkpt lat="40.50642" lon="-8.45294">
        <ele>19.36</ele>
        <time>2019-05-23T11:03:14Z</time>
      </trkpt>
      <trkpt lat="40.50656" lon="-8.45307">
        <ele>18.4</ele>
        <time>2019-05-23T11:03:29Z</time>
      </trkpt>
      <trkpt lat="40.5066" lon="-8.4531">
        <ele>18.88</ele>
        <time>2019-05-23T11:03:33Z</time>
      </trkpt>
      <trkpt lat="40.50673" lon="-8.45321">
        <ele>17.92</ele>
        <time>2019-05-23T11:03:45Z</time>
      </trkpt>
      <trkpt lat="40.5069" lon="-8.45333">
        <ele>16.96</ele>
        <time>2019-05-23T11:03:59Z</time>
      </trkpt>
      <trkpt lat="40.50697" lon="-8.45341">
        <ele>18.4</ele>
        <time>2019-05-23T11:04:12Z</time>
      </trkpt>
      <trkpt lat="40.50698" lon="-8.45339">
        <ele>17.92</ele>
        <time>2019-05-23T11:04:31Z</time>
      </trkpt>
      <trkpt lat="40.50701" lon="-8.45341">
        <ele>17.92</ele>
        <time>2019-05-23T11:04:49Z</time>
      </trkpt>
      <trkpt lat="40.50703" lon="-8.45342">
        <ele>16.96</ele>
        <time>2019-05-23T11:04:50Z</time>
      </trkpt>
      <trkpt lat="40.50717" lon="-8.45354">
        <ele>16.96</ele>
        <time>2019-05-23T11:05:04Z</time>
      </trkpt>
      <trkpt lat="40.50732" lon="-8.45362">
        <ele>17.92</ele>
        <time>2019-05-23T11:05:19Z</time>
      </trkpt>
      <trkpt lat="40.50738" lon="-8.45364">
        <ele>16.96</ele>
        <time>2019-05-23T11:05:38Z</time>
      </trkpt>
      <trkpt lat="40.50747" lon="-8.45361">
        <ele>18.4</ele>
        <time>2019-05-23T11:05:47Z</time>
      </trkpt>
      <trkpt lat="40.50767" lon="-8.45364">
        <ele>18.4</ele>
        <time>2019-05-23T11:06:01Z</time>
      </trkpt>
      <trkpt lat="40.50769" lon="-8.45367">
        <ele>18.88</ele>
        <time>2019-05-23T11:06:13Z</time>
      </trkpt>
      <trkpt lat="40.50769" lon="-8.45362">
        <ele>18.88</ele>
        <time>2019-05-23T11:06:32Z</time>
      </trkpt>
      <trkpt lat="40.50779" lon="-8.45361">
        <ele>18.88</ele>
        <time>2019-05-23T11:06:47Z</time>
      </trkpt>
      <trkpt lat="40.5078" lon="-8.45361">
        <ele>19.36</ele>
        <time>2019-05-23T11:06:48Z</time>
      </trkpt>
      <trkpt lat="40.50793" lon="-8.45356">
        <ele>19.84</ele>
        <time>2019-05-23T11:07:01Z</time>
      </trkpt>
      <trkpt lat="40.50805" lon="-8.45353">
        <ele>20.81</ele>
        <time>2019-05-23T11:07:14Z</time>
      </trkpt>
      <trkpt lat="40.50822" lon="-8.45348">
        <ele>20.81</ele>
        <time>2019-05-23T11:07:26Z</time>
      </trkpt>
      <trkpt lat="40.5083" lon="-8.45346">
        <ele>21.77</ele>
        <time>2019-05-23T11:07:33Z</time>
      </trkpt>
      <trkpt lat="40.50848" lon="-8.45342">
        <ele>22.25</ele>
        <time>2019-05-23T11:07:48Z</time>
      </trkpt>
      <trkpt lat="40.50866" lon="-8.45331">
        <ele>23.21</ele>
        <time>2019-05-23T11:08:03Z</time>
      </trkpt>
      <trkpt lat="40.5088" lon="-8.45322">
        <ele>23.69</ele>
        <time>2019-05-23T11:08:17Z</time>
      </trkpt>
      <trkpt lat="40.50897" lon="-8.45313">
        <ele>25.13</ele>
        <time>2019-05-23T11:08:31Z</time>
      </trkpt>
      <trkpt lat="40.50898" lon="-8.45311">
        <ele>25.13</ele>
        <time>2019-05-23T11:08:32Z</time>
      </trkpt>
      <trkpt lat="40.50898" lon="-8.45309">
        <ele>25.13</ele>
        <time>2019-05-23T11:08:33Z</time>
      </trkpt>
      <trkpt lat="40.509" lon="-8.45309">
        <ele>24.65</ele>
        <time>2019-05-23T11:08:34Z</time>
      </trkpt>
      <trkpt lat="40.50913" lon="-8.45303">
        <ele>26.09</ele>
        <time>2019-05-23T11:08:47Z</time>
      </trkpt>
      <trkpt lat="40.50918" lon="-8.45301">
        <ele>26.57</ele>
        <time>2019-05-23T11:08:51Z</time>
      </trkpt>
      <trkpt lat="40.50919" lon="-8.453">
        <ele>26.57</ele>
        <time>2019-05-23T11:08:52Z</time>
      </trkpt>
      <trkpt lat="40.50931" lon="-8.45294">
        <ele>27.53</ele>
        <time>2019-05-23T11:09:04Z</time>
      </trkpt>
      <trkpt lat="40.50944" lon="-8.4529">
        <ele>28.5</ele>
        <time>2019-05-23T11:09:16Z</time>
      </trkpt>
      <trkpt lat="40.5096" lon="-8.45289">
        <ele>29.94</ele>
        <time>2019-05-23T11:09:30Z</time>
      </trkpt>
      <trkpt lat="40.50974" lon="-8.45287">
        <ele>29.94</ele>
        <time>2019-05-23T11:09:42Z</time>
      </trkpt>
      <trkpt lat="40.50977" lon="-8.45287">
        <ele>30.42</ele>
        <time>2019-05-23T11:09:44Z</time>
      </trkpt>
      <trkpt lat="40.50979" lon="-8.45287">
        <ele>30.42</ele>
        <time>2019-05-23T11:09:45Z</time>
      </trkpt>
      <trkpt lat="40.50993" lon="-8.45294">
        <ele>31.86</ele>
        <time>2019-05-23T11:10:00Z</time>
      </trkpt>
      <trkpt lat="40.51002" lon="-8.45299">
        <ele>31.86</ele>
        <time>2019-05-23T11:10:12Z</time>
      </trkpt>
      <trkpt lat="40.51014" lon="-8.453">
        <ele>31.86</ele>
        <time>2019-05-23T11:10:24Z</time>
      </trkpt>
      <trkpt lat="40.51026" lon="-8.45306">
        <ele>32.34</ele>
        <time>2019-05-23T11:10:36Z</time>
      </trkpt>
      <trkpt lat="40.51037" lon="-8.45312">
        <ele>32.34</ele>
        <time>2019-05-23T11:10:45Z</time>
      </trkpt>
      <trkpt lat="40.51049" lon="-8.45313">
        <ele>30.9</ele>
        <time>2019-05-23T11:10:56Z</time>
      </trkpt>
      <trkpt lat="40.5108" lon="-8.45318">
        <ele>31.38</ele>
        <time>2019-05-23T11:11:13Z</time>
      </trkpt>
      <trkpt lat="40.51098" lon="-8.45319">
        <ele>32.82</ele>
        <time>2019-05-23T11:11:27Z</time>
      </trkpt>
      <trkpt lat="40.51114" lon="-8.45321">
        <ele>32.82</ele>
        <time>2019-05-23T11:11:43Z</time>
      </trkpt>
      <trkpt lat="40.51132" lon="-8.45325">
        <ele>32.34</ele>
        <time>2019-05-23T11:11:59Z</time>
      </trkpt>
      <trkpt lat="40.51145" lon="-8.4533">
        <ele>31.38</ele>
        <time>2019-05-23T11:12:10Z</time>
      </trkpt>
      <trkpt lat="40.51151" lon="-8.45334">
        <ele>31.86</ele>
        <time>2019-05-23T11:12:19Z</time>
      </trkpt>
      <trkpt lat="40.51162" lon="-8.45338">
        <ele>32.34</ele>
        <time>2019-05-23T11:12:30Z</time>
      </trkpt>
      <trkpt lat="40.51176" lon="-8.45344">
        <ele>32.34</ele>
        <time>2019-05-23T11:12:44Z</time>
      </trkpt>
      <trkpt lat="40.51195" lon="-8.45356">
        <ele>33.3</ele>
        <time>2019-05-23T11:12:57Z</time>
      </trkpt>
      <trkpt lat="40.51212" lon="-8.45357">
        <ele>32.34</ele>
        <time>2019-05-23T11:13:11Z</time>
      </trkpt>
      <trkpt lat="40.51219" lon="-8.45357">
        <ele>32.34</ele>
        <time>2019-05-23T11:13:16Z</time>
      </trkpt>
      <trkpt lat="40.5122" lon="-8.45357">
        <ele>31.86</ele>
        <time>2019-05-23T11:13:17Z</time>
      </trkpt>
      <trkpt lat="40.51241" lon="-8.45355">
        <ele>32.82</ele>
        <time>2019-05-23T11:13:34Z</time>
      </trkpt>
      <trkpt lat="40.51259" lon="-8.4536">
        <ele>32.82</ele>
        <time>2019-05-23T11:13:48Z</time>
      </trkpt>
      <trkpt lat="40.51279" lon="-8.45366">
        <ele>32.82</ele>
        <time>2019-05-23T11:14:04Z</time>
      </trkpt>
      <trkpt lat="40.5128" lon="-8.45366">
        <ele>32.82</ele>
        <time>2019-05-23T11:14:05Z</time>
      </trkpt>
      <trkpt lat="40.51281" lon="-8.45367">
        <ele>32.82</ele>
        <time>2019-05-23T11:14:06Z</time>
      </trkpt>
      <trkpt lat="40.51282" lon="-8.45367">
        <ele>33.3</ele>
        <time>2019-05-23T11:14:07Z</time>
      </trkpt>
      <trkpt lat="40.51283" lon="-8.45368">
        <ele>33.3</ele>
        <time>2019-05-23T11:14:08Z</time>
      </trkpt>
      <trkpt lat="40.51298" lon="-8.45374">
        <ele>34.26</ele>
        <time>2019-05-23T11:14:25Z</time>
      </trkpt>
      <trkpt lat="40.51305" lon="-8.45373">
        <ele>33.78</ele>
        <time>2019-05-23T11:14:38Z</time>
      </trkpt>
      <trkpt lat="40.51313" lon="-8.45367">
        <ele>33.78</ele>
        <time>2019-05-23T11:14:50Z</time>
      </trkpt>
      <trkpt lat="40.51314" lon="-8.45366">
        <ele>34.26</ele>
        <time>2019-05-23T11:15:04Z</time>
      </trkpt>
      <trkpt lat="40.51313" lon="-8.45373">
        <ele>33.78</ele>
        <time>2019-05-23T11:15:20Z</time>
      </trkpt>
      <trkpt lat="40.51311" lon="-8.45372">
        <ele>34.26</ele>
        <time>2019-05-23T11:15:37Z</time>
      </trkpt>
      <trkpt lat="40.51315" lon="-8.45368">
        <ele>33.78</ele>
        <time>2019-05-23T11:15:59Z</time>
      </trkpt>
      <trkpt lat="40.51317" lon="-8.45371">
        <ele>34.26</ele>
        <time>2019-05-23T11:16:13Z</time>
      </trkpt>
      <trkpt lat="40.51317" lon="-8.45369">
        <ele>33.78</ele>
        <time>2019-05-23T11:16:22Z</time>
      </trkpt>
      <trkpt lat="40.51316" lon="-8.45371">
        <ele>33.78</ele>
        <time>2019-05-23T11:16:49Z</time>
      </trkpt>
      <trkpt lat="40.51317" lon="-8.45366">
        <ele>33.78</ele>
        <time>2019-05-23T11:17:19Z</time>
      </trkpt>
      <trkpt lat="40.51317" lon="-8.45368">
        <ele>33.78</ele>
        <time>2019-05-23T11:17:41Z</time>
      </trkpt>
      <trkpt lat="40.5132" lon="-8.45369">
        <ele>34.26</ele>
        <time>2019-05-23T11:18:16Z</time>
      </trkpt>
      <trkpt lat="40.51317" lon="-8.45366">
        <ele>32.34</ele>
        <time>2019-05-23T11:18:42Z</time>
      </trkpt>
      <trkpt lat="40.51317" lon="-8.45364">
        <ele>32.82</ele>
        <time>2019-05-23T11:19:12Z</time>
      </trkpt>
      <trkpt lat="40.51318" lon="-8.45363">
        <ele>32.34</ele>
        <time>2019-05-23T11:19:39Z</time>
      </trkpt>
      <trkpt lat="40.51319" lon="-8.45363">
        <ele>32.82</ele>
        <time>2019-05-23T11:20:09Z</time>
      </trkpt>
      <trkpt lat="40.51317" lon="-8.45364">
        <ele>32.34</ele>
        <time>2019-05-23T11:20:29Z</time>
      </trkpt>
      <trkpt lat="40.5132" lon="-8.45364">
        <ele>32.82</ele>
        <time>2019-05-23T11:21:06Z</time>
      </trkpt>
      <trkpt lat="40.51319" lon="-8.45362">
        <ele>32.82</ele>
        <time>2019-05-23T11:21:39Z</time>
      </trkpt>
      <trkpt lat="40.51319" lon="-8.45361">
        <ele>32.82</ele>
        <time>2019-05-23T11:22:08Z</time>
      </trkpt>
      <trkpt lat="40.51317" lon="-8.45359">
        <ele>33.3</ele>
        <time>2019-05-23T11:22:38Z</time>
      </trkpt>
      <trkpt lat="40.51317" lon="-8.45359">
        <ele>33.3</ele>
        <time>2019-05-23T11:23:10Z</time>
      </trkpt>
      <trkpt lat="40.51316" lon="-8.4536">
        <ele>33.3</ele>
        <time>2019-05-23T11:23:51Z</time>
      </trkpt>
      <trkpt lat="40.51317" lon="-8.45362">
        <ele>32.82</ele>
        <time>2019-05-23T11:24:28Z</time>
      </trkpt>
      <trkpt lat="40.5132" lon="-8.45362">
        <ele>32.82</ele>
        <time>2019-05-23T11:25:04Z</time>
      </trkpt>
      <trkpt lat="40.51319" lon="-8.45361">
        <ele>32.82</ele>
        <time>2019-05-23T11:25:39Z</time>
      </trkpt>
      <trkpt lat="40.51318" lon="-8.45364">
        <ele>32.34</ele>
        <time>2019-05-23T11:26:08Z</time>
      </trkpt>
      <trkpt lat="40.51317" lon="-8.45367">
        <ele>32.82</ele>
        <time>2019-05-23T11:26:32Z</time>
      </trkpt>
      <trkpt lat="40.51317" lon="-8.45368">
        <ele>32.82</ele>
        <time>2019-05-23T11:27:02Z</time>
      </trkpt>
      <trkpt lat="40.51319" lon="-8.45369">
        <ele>33.3</ele>
        <time>2019-05-23T11:27:32Z</time>
      </trkpt>
      <trkpt lat="40.51317" lon="-8.45368">
        <ele>33.3</ele>
        <time>2019-05-23T11:27:56Z</time>
      </trkpt>
      <trkpt lat="40.51316" lon="-8.45366">
        <ele>33.3</ele>
        <time>2019-05-23T11:28:37Z</time>
      </trkpt>
      <trkpt lat="40.51317" lon="-8.45369">
        <ele>33.3</ele>
        <time>2019-05-23T11:29:21Z</time>
      </trkpt>
      <trkpt lat="40.51317" lon="-8.45366">
        <ele>33.3</ele>
        <time>2019-05-23T11:29:53Z</time>
      </trkpt>
      <trkpt lat="40.51318" lon="-8.45366">
        <ele>33.3</ele>
        <time>2019-05-23T11:30:23Z</time>
      </trkpt>
      <trkpt lat="40.51319" lon="-8.45368">
        <ele>33.3</ele>
        <time>2019-05-23T11:30:55Z</time>
      </trkpt>
      <trkpt lat="40.51318" lon="-8.45369">
        <ele>33.78</ele>
        <time>2019-05-23T11:31:23Z</time>
      </trkpt>
      <trkpt lat="40.51319" lon="-8.4537">
        <ele>33.3</ele>
        <time>2019-05-23T11:31:55Z</time>
      </trkpt>
      <trkpt lat="40.51317" lon="-8.45371">
        <ele>34.74</ele>
        <time>2019-05-23T11:32:26Z</time>
      </trkpt>
      <trkpt lat="40.51319" lon="-8.45369">
        <ele>34.26</ele>
        <time>2019-05-23T11:33:05Z</time>
      </trkpt>
      <trkpt lat="40.5132" lon="-8.45366">
        <ele>33.78</ele>
        <time>2019-05-23T11:33:32Z</time>
      </trkpt>
      <trkpt lat="40.5132" lon="-8.45367">
        <ele>34.26</ele>
        <time>2019-05-23T11:34:05Z</time>
      </trkpt>
      <trkpt lat="40.51321" lon="-8.45366">
        <ele>33.78</ele>
        <time>2019-05-23T11:34:40Z</time>
      </trkpt>
      <trkpt lat="40.51323" lon="-8.45365">
        <ele>33.78</ele>
        <time>2019-05-23T11:35:04Z</time>
      </trkpt>
      <trkpt lat="40.51323" lon="-8.45364">
        <ele>34.26</ele>
        <time>2019-05-23T11:35:30Z</time>
      </trkpt>
      <trkpt lat="40.51321" lon="-8.45363">
        <ele>33.78</ele>
        <time>2019-05-23T11:36:11Z</time>
      </trkpt>
      <trkpt lat="40.51322" lon="-8.45364">
        <ele>34.26</ele>
        <time>2019-05-23T11:36:33Z</time>
      </trkpt>
      <trkpt lat="40.51322" lon="-8.45365">
        <ele>34.26</ele>
        <time>2019-05-23T11:37:02Z</time>
      </trkpt>
      <trkpt lat="40.51322" lon="-8.45364">
        <ele>33.78</ele>
        <time>2019-05-23T11:37:34Z</time>
      </trkpt>
      <trkpt lat="40.51324" lon="-8.45367">
        <ele>34.74</ele>
        <time>2019-05-23T11:37:59Z</time>
      </trkpt>
      <trkpt lat="40.51323" lon="-8.4537">
        <ele>34.74</ele>
        <time>2019-05-23T11:38:15Z</time>
      </trkpt>
      <trkpt lat="40.51313" lon="-8.45371">
        <ele>34.74</ele>
        <time>2019-05-23T11:38:27Z</time>
      </trkpt>
      <trkpt lat="40.51305" lon="-8.45379">
        <ele>35.71</ele>
        <time>2019-05-23T11:38:43Z</time>
      </trkpt>
      <trkpt lat="40.51311" lon="-8.4538">
        <ele>34.26</ele>
        <time>2019-05-23T11:38:55Z</time>
      </trkpt>
      <trkpt lat="40.51312" lon="-8.45385">
        <ele>34.74</ele>
        <time>2019-05-23T11:39:13Z</time>
      </trkpt>
      <trkpt lat="40.51316" lon="-8.45384">
        <ele>34.26</ele>
        <time>2019-05-23T11:39:38Z</time>
      </trkpt>
      <trkpt lat="40.51313" lon="-8.45381">
        <ele>34.74</ele>
        <time>2019-05-23T11:40:03Z</time>
      </trkpt>
      <trkpt lat="40.51311" lon="-8.45377">
        <ele>34.74</ele>
        <time>2019-05-23T11:40:26Z</time>
      </trkpt>
      <trkpt lat="40.51309" lon="-8.45378">
        <ele>34.26</ele>
        <time>2019-05-23T11:40:53Z</time>
      </trkpt>
      <trkpt lat="40.51308" lon="-8.45374">
        <ele>34.26</ele>
        <time>2019-05-23T11:41:17Z</time>
      </trkpt>
      <trkpt lat="40.51321" lon="-8.45384">
        <ele>34.74</ele>
        <time>2019-05-23T11:41:41Z</time>
      </trkpt>
      <trkpt lat="40.51307" lon="-8.45373">
        <ele>35.71</ele>
        <time>2019-05-23T11:41:53Z</time>
      </trkpt>
      <trkpt lat="40.51303" lon="-8.45375">
        <ele>34.74</ele>
        <time>2019-05-23T11:42:08Z</time>
      </trkpt>
      <trkpt lat="40.51301" lon="-8.45374">
        <ele>35.23</ele>
        <time>2019-05-23T11:42:27Z</time>
      </trkpt>
      <trkpt lat="40.51301" lon="-8.45375">
        <ele>33.78</ele>
        <time>2019-05-23T11:42:48Z</time>
      </trkpt>
      <trkpt lat="40.51348" lon="-8.45325">
        <ele>34.74</ele>
        <time>2019-05-23T11:54:26Z</time>
      </trkpt>
      <trkpt lat="40.51361" lon="-8.45189">
        <ele>34.74</ele>
        <time>2019-05-23T11:54:27Z</time>
      </trkpt>
      <trkpt lat="40.52009" lon="-8.43529">
        <ele>31.38</ele>
        <time>2019-05-23T11:54:38Z</time>
      </trkpt>
      <trkpt lat="40.52034" lon="-8.43529">
        <ele>27.53</ele>
        <time>2019-05-23T11:54:44Z</time>
      </trkpt>
      <trkpt lat="40.52069" lon="-8.43511">
        <ele>24.17</ele>
        <time>2019-05-23T11:54:49Z</time>
      </trkpt>
      <trkpt lat="40.52076" lon="-8.43507">
        <ele>23.69</ele>
        <time>2019-05-23T11:54:50Z</time>
      </trkpt>
      <trkpt lat="40.52101" lon="-8.43494">
        <ele>20.81</ele>
        <time>2019-05-23T11:54:54Z</time>
      </trkpt>
      <trkpt lat="40.52122" lon="-8.43483">
        <ele>18.4</ele>
        <time>2019-05-23T11:54:58Z</time>
      </trkpt>
      <trkpt lat="40.5214" lon="-8.43471">
        <ele>15.04</ele>
        <time>2019-05-23T11:55:02Z</time>
      </trkpt>
      <trkpt lat="40.52162" lon="-8.43458">
        <ele>11.67</ele>
        <time>2019-05-23T11:55:07Z</time>
      </trkpt>
      <trkpt lat="40.52188" lon="-8.43437">
        <ele>7.83</ele>
        <time>2019-05-23T11:55:13Z</time>
      </trkpt>
      <trkpt lat="40.52201" lon="-8.43425">
        <ele>5.42</ele>
        <time>2019-05-23T11:55:17Z</time>
      </trkpt>
      <trkpt lat="40.52208" lon="-8.43419">
        <ele>3.98</ele>
        <time>2019-05-23T11:55:19Z</time>
      </trkpt>
      <trkpt lat="40.52216" lon="-8.43412">
        <ele>0.62</ele>
        <time>2019-05-23T11:55:22Z</time>
      </trkpt>
      <trkpt lat="40.52219" lon="-8.43409">
        <ele>0.14</ele>
        <time>2019-05-23T11:55:23Z</time>
      </trkpt>
      <trkpt lat="40.52224" lon="-8.43404">
        <ele>-0.82</ele>
        <time>2019-05-23T11:55:25Z</time>
      </trkpt>
      <trkpt lat="40.52231" lon="-8.43399">
        <ele>-4.19</ele>
        <time>2019-05-23T11:55:29Z</time>
      </trkpt>
      <trkpt lat="40.52241" lon="-8.4339">
        <ele>-5.63</ele>
        <time>2019-05-23T11:55:32Z</time>
      </trkpt>
      <trkpt lat="40.52251" lon="-8.43379">
        <ele>-9.96</ele>
        <time>2019-05-23T11:55:37Z</time>
      </trkpt>
      <trkpt lat="40.5225" lon="-8.434">
        <ele>-13.32</ele>
        <time>2019-05-23T11:55:45Z</time>
      </trkpt>
      <trkpt lat="40.52251" lon="-8.43404">
        <ele>-17.65</ele>
        <time>2019-05-23T11:55:50Z</time>
      </trkpt>
      <trkpt lat="40.52251" lon="-8.43409">
        <ele>-19.09</ele>
        <time>2019-05-23T11:55:51Z</time>
      </trkpt>
      <trkpt lat="40.52287" lon="-8.4344">
        <ele>-23.41</ele>
        <time>2019-05-23T11:56:00Z</time>
      </trkpt>
      <trkpt lat="40.52293" lon="-8.43473">
        <ele>-26.78</ele>
        <time>2019-05-23T11:56:06Z</time>
      </trkpt>
      <trkpt lat="40.52292" lon="-8.43479">
        <ele>-27.74</ele>
        <time>2019-05-23T11:56:08Z</time>
      </trkpt>
      <trkpt lat="40.52287" lon="-8.43506">
        <ele>-32.07</ele>
        <time>2019-05-23T11:56:14Z</time>
      </trkpt>
      <trkpt lat="40.52292" lon="-8.43513">
        <ele>-32.07</ele>
        <time>2019-05-23T11:56:15Z</time>
      </trkpt>
      <trkpt lat="40.52299" lon="-8.43505">
        <ele>-35.91</ele>
        <time>2019-05-23T11:56:22Z</time>
      </trkpt>
      <trkpt lat="40.52301" lon="-8.43502">
        <ele>-35.91</ele>
        <time>2019-05-23T11:56:23Z</time>
      </trkpt>
      <trkpt lat="40.52291" lon="-8.43519">
        <ele>-39.28</ele>
        <time>2019-05-23T11:56:28Z</time>
      </trkpt>
      <trkpt lat="40.52279" lon="-8.43541">
        <ele>-42.64</ele>
        <time>2019-05-23T11:56:33Z</time>
      </trkpt>
      <trkpt lat="40.52277" lon="-8.43545">
        <ele>-42.64</ele>
        <time>2019-05-23T11:56:34Z</time>
      </trkpt>
      <trkpt lat="40.52254" lon="-8.43586">
        <ele>-46.01</ele>
        <time>2019-05-23T11:56:39Z</time>
      </trkpt>
      <trkpt lat="40.52215" lon="-8.43654">
        <ele>-49.37</ele>
        <time>2019-05-23T11:56:45Z</time>
      </trkpt>
      <trkpt lat="40.5218" lon="-8.43717">
        <ele>-52.74</ele>
        <time>2019-05-23T11:56:50Z</time>
      </trkpt>
      <trkpt lat="40.52179" lon="-8.43718">
        <ele>-52.74</ele>
        <time>2019-05-23T11:56:51Z</time>
      </trkpt>
      <trkpt lat="40.52147" lon="-8.43778">
        <ele>-56.1</ele>
        <time>2019-05-23T11:56:56Z</time>
      </trkpt>
      <trkpt lat="40.52115" lon="-8.43836">
        <ele>-59.46</ele>
        <time>2019-05-23T11:57:02Z</time>
      </trkpt>
      <trkpt lat="40.52089" lon="-8.43891">
        <ele>-62.83</ele>
        <time>2019-05-23T11:57:08Z</time>
      </trkpt>
      <trkpt lat="40.5207" lon="-8.43949">
        <ele>-66.19</ele>
        <time>2019-05-23T11:57:15Z</time>
      </trkpt>
      <trkpt lat="40.52039" lon="-8.44011">
        <ele>-70.04</ele>
        <time>2019-05-23T11:57:24Z</time>
      </trkpt>
      <trkpt lat="40.52032" lon="-8.44028">
        <ele>-71</ele>
        <time>2019-05-23T11:57:26Z</time>
      </trkpt>
      <trkpt lat="40.52019" lon="-8.4406">
        <ele>-73.4</ele>
        <time>2019-05-23T11:57:30Z</time>
      </trkpt>
      <trkpt lat="40.51987" lon="-8.44129">
        <ele>-77.25</ele>
        <time>2019-05-23T11:57:39Z</time>
      </trkpt>
      <trkpt lat="40.51983" lon="-8.44136">
        <ele>-77.73</ele>
        <time>2019-05-23T11:57:40Z</time>
      </trkpt>
      <trkpt lat="40.51956" lon="-8.44194">
        <ele>-80.61</ele>
        <time>2019-05-23T11:57:48Z</time>
      </trkpt>
      <trkpt lat="40.51946" lon="-8.44214">
        <ele>-82.06</ele>
        <time>2019-05-23T11:57:51Z</time>
      </trkpt>
      <trkpt lat="40.51913" lon="-8.44269">
        <ele>-85.42</ele>
        <time>2019-05-23T11:58:00Z</time>
      </trkpt>
      <trkpt lat="40.51886" lon="-8.44319">
        <ele>-88.3</ele>
        <time>2019-05-23T11:58:09Z</time>
      </trkpt>
      <trkpt lat="40.5187" lon="-8.44346">
        <ele>-90.23</ele>
        <time>2019-05-23T11:58:14Z</time>
      </trkpt>
      <trkpt lat="40.51841" lon="-8.44401">
        <ele>-93.59</ele>
        <time>2019-05-23T11:58:24Z</time>
      </trkpt>
      <trkpt lat="40.51816" lon="-8.44454">
        <ele>-96.96</ele>
        <time>2019-05-23T11:58:33Z</time>
      </trkpt>
      <trkpt lat="40.51798" lon="-8.44499">
        <ele>-99.84</ele>
        <time>2019-05-23T11:58:42Z</time>
      </trkpt>
      <trkpt lat="40.51739" lon="-8.44575">
        <ele>-103.2</ele>
        <time>2019-05-23T11:58:54Z</time>
      </trkpt>
      <trkpt lat="40.51699" lon="-8.44642">
        <ele>-105.13</ele>
        <time>2019-05-23T11:59:05Z</time>
      </trkpt>
      <trkpt lat="40.51642" lon="-8.44765">
        <ele>-108.01</ele>
        <time>2019-05-23T11:59:17Z</time>
      </trkpt>
      <trkpt lat="40.51612" lon="-8.44864">
        <ele>-111.38</ele>
        <time>2019-05-23T11:59:26Z</time>
      </trkpt>
      <trkpt lat="40.51603" lon="-8.449">
        <ele>-112.34</ele>
        <time>2019-05-23T11:59:30Z</time>
      </trkpt>
      <trkpt lat="40.5157" lon="-8.44992">
        <ele>-114.26</ele>
        <time>2019-05-23T11:59:45Z</time>
      </trkpt>
      <trkpt lat="40.51543" lon="-8.45059">
        <ele>-117.62</ele>
        <time>2019-05-23T12:00:14Z</time>
      </trkpt>
      <trkpt lat="40.51546" lon="-8.45085">
        <ele>-120.03</ele>
        <time>2019-05-23T12:00:34Z</time>
      </trkpt>
      <trkpt lat="40.51556" lon="-8.45102">
        <ele>-122.91</ele>
        <time>2019-05-23T12:00:50Z</time>
      </trkpt>
      <trkpt lat="40.51565" lon="-8.45117">
        <ele>-125.8</ele>
        <time>2019-05-23T12:01:05Z</time>
      </trkpt>
      <trkpt lat="40.51572" lon="-8.45131">
        <ele>-127.72</ele>
        <time>2019-05-23T12:01:19Z</time>
      </trkpt>
      <trkpt lat="40.51583" lon="-8.4514">
        <ele>-129.16</ele>
        <time>2019-05-23T12:01:35Z</time>
      </trkpt>
      <trkpt lat="40.51596" lon="-8.45156">
        <ele>-130.6</ele>
        <time>2019-05-23T12:01:48Z</time>
      </trkpt>
      <trkpt lat="40.51604" lon="-8.45171">
        <ele>-133.01</ele>
        <time>2019-05-23T12:02:02Z</time>
      </trkpt>
      <trkpt lat="40.51612" lon="-8.45187">
        <ele>-134.45</ele>
        <time>2019-05-23T12:02:15Z</time>
      </trkpt>
      <trkpt lat="40.51631" lon="-8.45194">
        <ele>-135.89</ele>
        <time>2019-05-23T12:02:30Z</time>
      </trkpt>
      <trkpt lat="40.51652" lon="-8.45204">
        <ele>-136.37</ele>
        <time>2019-05-23T12:02:43Z</time>
      </trkpt>
      <trkpt lat="40.51648" lon="-8.45216">
        <ele>-137.33</ele>
        <time>2019-05-23T12:02:59Z</time>
      </trkpt>
      <trkpt lat="40.5166" lon="-8.45224">
        <ele>-137.81</ele>
        <time>2019-05-23T12:03:11Z</time>
      </trkpt>
      <trkpt lat="40.51668" lon="-8.45255">
        <ele>-138.29</ele>
        <time>2019-05-23T12:03:24Z</time>
      </trkpt>
      <trkpt lat="40.51676" lon="-8.45308">
        <ele>-137.81</ele>
        <time>2019-05-23T12:03:38Z</time>
      </trkpt>
      <trkpt lat="40.51664" lon="-8.45438">
        <ele>-137.81</ele>
        <time>2019-05-23T12:03:48Z</time>
      </trkpt>
      <trkpt lat="40.51665" lon="-8.45507">
        <ele>-137.33</ele>
        <time>2019-05-23T12:04:03Z</time>
      </trkpt>
      <trkpt lat="40.51679" lon="-8.45519">
        <ele>-136.85</ele>
        <time>2019-05-23T12:04:16Z</time>
      </trkpt>
      <trkpt lat="40.51698" lon="-8.45527">
        <ele>-135.89</ele>
        <time>2019-05-23T12:04:31Z</time>
      </trkpt>
      <trkpt lat="40.51715" lon="-8.45532">
        <ele>-135.89</ele>
        <time>2019-05-23T12:04:44Z</time>
      </trkpt>
      <trkpt lat="40.51734" lon="-8.45537">
        <ele>-134.45</ele>
        <time>2019-05-23T12:04:59Z</time>
      </trkpt>
      <trkpt lat="40.5175" lon="-8.45541">
        <ele>-133.01</ele>
        <time>2019-05-23T12:05:14Z</time>
      </trkpt>
      <trkpt lat="40.51767" lon="-8.45549">
        <ele>-130.6</ele>
        <time>2019-05-23T12:05:30Z</time>
      </trkpt>
      <trkpt lat="40.51783" lon="-8.45552">
        <ele>-130.6</ele>
        <time>2019-05-23T12:05:46Z</time>
      </trkpt>
      <trkpt lat="40.51785" lon="-8.45553">
        <ele>-129.64</ele>
        <time>2019-05-23T12:05:47Z</time>
      </trkpt>
      <trkpt lat="40.51803" lon="-8.45558">
        <ele>-129.16</ele>
        <time>2019-05-23T12:06:02Z</time>
      </trkpt>
      <trkpt lat="40.51806" lon="-8.4556">
        <ele>-128.68</ele>
        <time>2019-05-23T12:06:05Z</time>
      </trkpt>
      <trkpt lat="40.5181" lon="-8.45559">
        <ele>-128.68</ele>
        <time>2019-05-23T12:06:08Z</time>
      </trkpt>
      <trkpt lat="40.51829" lon="-8.45564">
        <ele>-126.28</ele>
        <time>2019-05-23T12:06:25Z</time>
      </trkpt>
      <trkpt lat="40.51831" lon="-8.45558">
        <ele>-124.35</ele>
        <time>2019-05-23T12:06:41Z</time>
      </trkpt>
      <trkpt lat="40.5183" lon="-8.45557">
        <ele>-123.87</ele>
        <time>2019-05-23T12:06:55Z</time>
      </trkpt>
      <trkpt lat="40.5184" lon="-8.45568">
        <ele>-123.39</ele>
        <time>2019-05-23T12:07:09Z</time>
      </trkpt>
      <trkpt lat="40.51859" lon="-8.45577">
        <ele>-121.47</ele>
        <time>2019-05-23T12:07:25Z</time>
      </trkpt>
      <trkpt lat="40.51861" lon="-8.4558">
        <ele>-120.51</ele>
        <time>2019-05-23T12:07:27Z</time>
      </trkpt>
      <trkpt lat="40.51872" lon="-8.45593">
        <ele>-119.07</ele>
        <time>2019-05-23T12:07:41Z</time>
      </trkpt>
      <trkpt lat="40.51886" lon="-8.45614">
        <ele>-118.1</ele>
        <time>2019-05-23T12:07:56Z</time>
      </trkpt>
      <trkpt lat="40.51886" lon="-8.45616">
        <ele>-118.1</ele>
        <time>2019-05-23T12:07:57Z</time>
      </trkpt>
      <trkpt lat="40.51889" lon="-8.45617">
        <ele>-117.14</ele>
        <time>2019-05-23T12:08:00Z</time>
      </trkpt>
      <trkpt lat="40.51903" lon="-8.4564">
        <ele>-115.7</ele>
        <time>2019-05-23T12:08:18Z</time>
      </trkpt>
      <trkpt lat="40.51916" lon="-8.45658">
        <ele>-114.26</ele>
        <time>2019-05-23T12:08:34Z</time>
      </trkpt>
      <trkpt lat="40.51929" lon="-8.45676">
        <ele>-112.82</ele>
        <time>2019-05-23T12:08:50Z</time>
      </trkpt>
      <trkpt lat="40.51943" lon="-8.45689">
        <ele>-111.86</ele>
        <time>2019-05-23T12:09:05Z</time>
      </trkpt>
      <trkpt lat="40.51951" lon="-8.45694">
        <ele>-109.93</ele>
        <time>2019-05-23T12:09:13Z</time>
      </trkpt>
      <trkpt lat="40.51969" lon="-8.45699">
        <ele>-108.49</ele>
        <time>2019-05-23T12:09:31Z</time>
      </trkpt>
      <trkpt lat="40.51989" lon="-8.45702">
        <ele>-106.57</ele>
        <time>2019-05-23T12:09:47Z</time>
      </trkpt>
      <trkpt lat="40.51998" lon="-8.45701">
        <ele>-106.09</ele>
        <time>2019-05-23T12:10:03Z</time>
      </trkpt>
      <trkpt lat="40.52011" lon="-8.45702">
        <ele>-104.17</ele>
        <time>2019-05-23T12:10:17Z</time>
      </trkpt>
      <trkpt lat="40.52032" lon="-8.45698">
        <ele>-103.2</ele>
        <time>2019-05-23T12:10:35Z</time>
      </trkpt>
      <trkpt lat="40.52047" lon="-8.45695">
        <ele>-99.84</ele>
        <time>2019-05-23T12:10:47Z</time>
      </trkpt>
      <trkpt lat="40.52066" lon="-8.45687">
        <ele>-98.4</ele>
        <time>2019-05-23T12:11:03Z</time>
      </trkpt>
      <trkpt lat="40.52073" lon="-8.45683">
        <ele>-96.96</ele>
        <time>2019-05-23T12:11:11Z</time>
      </trkpt>
      <trkpt lat="40.52078" lon="-8.45679">
        <ele>-95.03</ele>
        <time>2019-05-23T12:11:24Z</time>
      </trkpt>
      <trkpt lat="40.52089" lon="-8.45674">
        <ele>-93.11</ele>
        <time>2019-05-23T12:11:41Z</time>
      </trkpt>
      <trkpt lat="40.52104" lon="-8.45666">
        <ele>-90.71</ele>
        <time>2019-05-23T12:11:57Z</time>
      </trkpt>
      <trkpt lat="40.52122" lon="-8.4566">
        <ele>-88.3</ele>
        <time>2019-05-23T12:12:15Z</time>
      </trkpt>
      <trkpt lat="40.52141" lon="-8.45657">
        <ele>-85.9</ele>
        <time>2019-05-23T12:12:33Z</time>
      </trkpt>
      <trkpt lat="40.52146" lon="-8.45656">
        <ele>-83.98</ele>
        <time>2019-05-23T12:12:38Z</time>
      </trkpt>
      <trkpt lat="40.52158" lon="-8.45655">
        <ele>-83.98</ele>
        <time>2019-05-23T12:12:47Z</time>
      </trkpt>
      <trkpt lat="40.52181" lon="-8.45656">
        <ele>-81.09</ele>
        <time>2019-05-23T12:13:05Z</time>
      </trkpt>
      <trkpt lat="40.52198" lon="-8.45658">
        <ele>-80.13</ele>
        <time>2019-05-23T12:13:21Z</time>
      </trkpt>
      <trkpt lat="40.52218" lon="-8.45658">
        <ele>-78.69</ele>
        <time>2019-05-23T12:13:36Z</time>
      </trkpt>
      <trkpt lat="40.52241" lon="-8.45661">
        <ele>-78.21</ele>
        <time>2019-05-23T12:13:53Z</time>
      </trkpt>
      <trkpt lat="40.52256" lon="-8.45664">
        <ele>-78.21</ele>
        <time>2019-05-23T12:14:08Z</time>
      </trkpt>
      <trkpt lat="40.52268" lon="-8.45665">
        <ele>-76.29</ele>
        <time>2019-05-23T12:14:20Z</time>
      </trkpt>
      <trkpt lat="40.52284" lon="-8.45665">
        <ele>-75.33</ele>
        <time>2019-05-23T12:14:35Z</time>
      </trkpt>
      <trkpt lat="40.52302" lon="-8.45669">
        <ele>-74.85</ele>
        <time>2019-05-23T12:14:48Z</time>
      </trkpt>
      <trkpt lat="40.52318" lon="-8.4567">
        <ele>-73.88</ele>
        <time>2019-05-23T12:15:02Z</time>
      </trkpt>
      <trkpt lat="40.52337" lon="-8.45672">
        <ele>-72.92</ele>
        <time>2019-05-23T12:15:15Z</time>
      </trkpt>
      <trkpt lat="40.52357" lon="-8.45676">
        <ele>-71.96</ele>
        <time>2019-05-23T12:15:29Z</time>
      </trkpt>
      <trkpt lat="40.52373" lon="-8.45681">
        <ele>-71</ele>
        <time>2019-05-23T12:15:44Z</time>
      </trkpt>
      <trkpt lat="40.52387" lon="-8.45685">
        <ele>-70.52</ele>
        <time>2019-05-23T12:15:56Z</time>
      </trkpt>
      <trkpt lat="40.52408" lon="-8.45691">
        <ele>-68.6</ele>
        <time>2019-05-23T12:16:13Z</time>
      </trkpt>
      <trkpt lat="40.5243" lon="-8.45696">
        <ele>-67.64</ele>
        <time>2019-05-23T12:16:28Z</time>
      </trkpt>
      <trkpt lat="40.52429" lon="-8.45692">
        <ele>-66.19</ele>
        <time>2019-05-23T12:16:48Z</time>
      </trkpt>
      <trkpt lat="40.52436" lon="-8.45693">
        <ele>-64.75</ele>
        <time>2019-05-23T12:17:04Z</time>
      </trkpt>
      <trkpt lat="40.52448" lon="-8.45693">
        <ele>-63.79</ele>
        <time>2019-05-23T12:17:18Z</time>
      </trkpt>
      <trkpt lat="40.52466" lon="-8.4569">
        <ele>-63.79</ele>
        <time>2019-05-23T12:17:32Z</time>
      </trkpt>
      <trkpt lat="40.52483" lon="-8.45688">
        <ele>-61.87</ele>
        <time>2019-05-23T12:17:46Z</time>
      </trkpt>
      <trkpt lat="40.52494" lon="-8.45686">
        <ele>-60.91</ele>
        <time>2019-05-23T12:17:58Z</time>
      </trkpt>
      <trkpt lat="40.52499" lon="-8.45685">
        <ele>-60.91</ele>
        <time>2019-05-23T12:18:06Z</time>
      </trkpt>
      <trkpt lat="40.52513" lon="-8.45686">
        <ele>-59.46</ele>
        <time>2019-05-23T12:18:19Z</time>
      </trkpt>
      <trkpt lat="40.52525" lon="-8.45683">
        <ele>-57.54</ele>
        <time>2019-05-23T12:18:32Z</time>
      </trkpt>
      <trkpt lat="40.52538" lon="-8.4568">
        <ele>-57.54</ele>
        <time>2019-05-23T12:18:47Z</time>
      </trkpt>
      <trkpt lat="40.52546" lon="-8.45677">
        <ele>-56.1</ele>
        <time>2019-05-23T12:18:54Z</time>
      </trkpt>
      <trkpt lat="40.52565" lon="-8.45672">
        <ele>-55.14</ele>
        <time>2019-05-23T12:19:07Z</time>
      </trkpt>
      <trkpt lat="40.52578" lon="-8.45664">
        <ele>-53.7</ele>
        <time>2019-05-23T12:19:20Z</time>
      </trkpt>
      <trkpt lat="40.52591" lon="-8.45658">
        <ele>-51.77</ele>
        <time>2019-05-23T12:19:33Z</time>
      </trkpt>
      <trkpt lat="40.52601" lon="-8.45653">
        <ele>-51.29</ele>
        <time>2019-05-23T12:19:46Z</time>
      </trkpt>
      <trkpt lat="40.52614" lon="-8.4565">
        <ele>-49.37</ele>
        <time>2019-05-23T12:20:00Z</time>
      </trkpt>
      <trkpt lat="40.52627" lon="-8.45648">
        <ele>-47.93</ele>
        <time>2019-05-23T12:20:12Z</time>
      </trkpt>
      <trkpt lat="40.5264" lon="-8.45646">
        <ele>-46.97</ele>
        <time>2019-05-23T12:20:24Z</time>
      </trkpt>
      <trkpt lat="40.52654" lon="-8.45644">
        <ele>-46.49</ele>
        <time>2019-05-23T12:20:38Z</time>
      </trkpt>
      <trkpt lat="40.52672" lon="-8.45642">
        <ele>-45.53</ele>
        <time>2019-05-23T12:20:54Z</time>
      </trkpt>
      <trkpt lat="40.5269" lon="-8.45641">
        <ele>-45.53</ele>
        <time>2019-05-23T12:21:09Z</time>
      </trkpt>
      <trkpt lat="40.52708" lon="-8.45641">
        <ele>-44.56</ele>
        <time>2019-05-23T12:21:23Z</time>
      </trkpt>
      <trkpt lat="40.52731" lon="-8.45646">
        <ele>-44.56</ele>
        <time>2019-05-23T12:21:38Z</time>
      </trkpt>
      <trkpt lat="40.52738" lon="-8.45646">
        <ele>-44.08</ele>
        <time>2019-05-23T12:21:44Z</time>
      </trkpt>
      <trkpt lat="40.52747" lon="-8.45647">
        <ele>-43.6</ele>
        <time>2019-05-23T12:21:52Z</time>
      </trkpt>
      <trkpt lat="40.52762" lon="-8.45647">
        <ele>-42.64</ele>
        <time>2019-05-23T12:22:05Z</time>
      </trkpt>
      <trkpt lat="40.52777" lon="-8.45647">
        <ele>-42.16</ele>
        <time>2019-05-23T12:22:18Z</time>
      </trkpt>
      <trkpt lat="40.52797" lon="-8.45645">
        <ele>-42.16</ele>
        <time>2019-05-23T12:22:36Z</time>
      </trkpt>
      <trkpt lat="40.52813" lon="-8.45644">
        <ele>-42.64</ele>
        <time>2019-05-23T12:22:50Z</time>
      </trkpt>
      <trkpt lat="40.52828" lon="-8.45643">
        <ele>-42.64</ele>
        <time>2019-05-23T12:23:03Z</time>
      </trkpt>
      <trkpt lat="40.52846" lon="-8.45641">
        <ele>-43.12</ele>
        <time>2019-05-23T12:23:16Z</time>
      </trkpt>
      <trkpt lat="40.52866" lon="-8.45637">
        <ele>-42.16</ele>
        <time>2019-05-23T12:23:31Z</time>
      </trkpt>
      <trkpt lat="40.52879" lon="-8.45635">
        <ele>-41.68</ele>
        <time>2019-05-23T12:23:41Z</time>
      </trkpt>
      <trkpt lat="40.52882" lon="-8.45633">
        <ele>-41.2</ele>
        <time>2019-05-23T12:23:44Z</time>
      </trkpt>
      <trkpt lat="40.529" lon="-8.45629">
        <ele>-41.68</ele>
        <time>2019-05-23T12:24:00Z</time>
      </trkpt>
      <trkpt lat="40.52903" lon="-8.45626">
        <ele>-41.2</ele>
        <time>2019-05-23T12:24:07Z</time>
      </trkpt>
      <trkpt lat="40.52914" lon="-8.45603">
        <ele>-40.72</ele>
        <time>2019-05-23T12:24:23Z</time>
      </trkpt>
      <trkpt lat="40.52916" lon="-8.45591">
        <ele>-40.72</ele>
        <time>2019-05-23T12:24:35Z</time>
      </trkpt>
      <trkpt lat="40.52919" lon="-8.4557">
        <ele>-39.76</ele>
        <time>2019-05-23T12:24:49Z</time>
      </trkpt>
      <trkpt lat="40.52923" lon="-8.45547">
        <ele>-38.8</ele>
        <time>2019-05-23T12:25:05Z</time>
      </trkpt>
      <trkpt lat="40.52927" lon="-8.45531">
        <ele>-38.32</ele>
        <time>2019-05-23T12:25:17Z</time>
      </trkpt>
      <trkpt lat="40.5293" lon="-8.45509">
        <ele>-36.87</ele>
        <time>2019-05-23T12:25:32Z</time>
      </trkpt>
      <trkpt lat="40.52931" lon="-8.45505">
        <ele>-36.87</ele>
        <time>2019-05-23T12:25:35Z</time>
      </trkpt>
      <trkpt lat="40.52938" lon="-8.45484">
        <ele>-35.91</ele>
        <time>2019-05-23T12:25:49Z</time>
      </trkpt>
      <trkpt lat="40.52935" lon="-8.45469">
        <ele>-35.43</ele>
        <time>2019-05-23T12:25:56Z</time>
      </trkpt>
      <trkpt lat="40.52933" lon="-8.45442">
        <ele>-34.47</ele>
        <time>2019-05-23T12:26:10Z</time>
      </trkpt>
      <trkpt lat="40.52935" lon="-8.45427">
        <ele>-33.03</ele>
        <time>2019-05-23T12:26:22Z</time>
      </trkpt>
      <trkpt lat="40.52934" lon="-8.45417">
        <ele>-32.55</ele>
        <time>2019-05-23T12:26:36Z</time>
      </trkpt>
      <trkpt lat="40.52935" lon="-8.45408">
        <ele>-31.59</ele>
        <time>2019-05-23T12:26:53Z</time>
      </trkpt>
      <trkpt lat="40.52936" lon="-8.45388">
        <ele>-30.14</ele>
        <time>2019-05-23T12:27:09Z</time>
      </trkpt>
      <trkpt lat="40.52937" lon="-8.45371">
        <ele>-28.7</ele>
        <time>2019-05-23T12:27:22Z</time>
      </trkpt>
      <trkpt lat="40.5294" lon="-8.45353">
        <ele>-28.22</ele>
        <time>2019-05-23T12:27:35Z</time>
      </trkpt>
      <trkpt lat="40.52944" lon="-8.45329">
        <ele>-26.78</ele>
        <time>2019-05-23T12:27:49Z</time>
      </trkpt>
      <trkpt lat="40.52948" lon="-8.45315">
        <ele>-25.82</ele>
        <time>2019-05-23T12:28:01Z</time>
      </trkpt>
      <trkpt lat="40.52953" lon="-8.45293">
        <ele>-24.38</ele>
        <time>2019-05-23T12:28:16Z</time>
      </trkpt>
      <trkpt lat="40.52955" lon="-8.45276">
        <ele>-23.9</ele>
        <time>2019-05-23T12:28:28Z</time>
      </trkpt>
      <trkpt lat="40.52955" lon="-8.45262">
        <ele>-22.93</ele>
        <time>2019-05-23T12:28:41Z</time>
      </trkpt>
      <trkpt lat="40.52958" lon="-8.45253">
        <ele>-22.93</ele>
        <time>2019-05-23T12:28:53Z</time>
      </trkpt>
      <trkpt lat="40.52958" lon="-8.45247">
        <ele>-22.45</ele>
        <time>2019-05-23T12:28:58Z</time>
      </trkpt>
      <trkpt lat="40.52958" lon="-8.45243">
        <ele>-22.45</ele>
        <time>2019-05-23T12:29:00Z</time>
      </trkpt>
      <trkpt lat="40.52964" lon="-8.45226">
        <ele>-21.01</ele>
        <time>2019-05-23T12:29:14Z</time>
      </trkpt>
      <trkpt lat="40.52965" lon="-8.45221">
        <ele>-21.49</ele>
        <time>2019-05-23T12:29:17Z</time>
      </trkpt>
      <trkpt lat="40.52973" lon="-8.45209">
        <ele>-20.05</ele>
        <time>2019-05-23T12:29:27Z</time>
      </trkpt>
      <trkpt lat="40.52979" lon="-8.45197">
        <ele>-19.09</ele>
        <time>2019-05-23T12:29:38Z</time>
      </trkpt>
      <trkpt lat="40.52987" lon="-8.45195">
        <ele>-19.09</ele>
        <time>2019-05-23T12:29:52Z</time>
      </trkpt>
      <trkpt lat="40.52993" lon="-8.45196">
        <ele>-17.65</ele>
        <time>2019-05-23T12:29:58Z</time>
      </trkpt>
      <trkpt lat="40.52995" lon="-8.45197">
        <ele>-18.13</ele>
        <time>2019-05-23T12:30:00Z</time>
      </trkpt>
      <trkpt lat="40.53008" lon="-8.45199">
        <ele>-18.13</ele>
        <time>2019-05-23T12:30:15Z</time>
      </trkpt>
      <trkpt lat="40.53025" lon="-8.45204">
        <ele>-17.65</ele>
        <time>2019-05-23T12:30:29Z</time>
      </trkpt>
      <trkpt lat="40.53044" lon="-8.45211">
        <ele>-17.17</ele>
        <time>2019-05-23T12:30:45Z</time>
      </trkpt>
      <trkpt lat="40.53063" lon="-8.45219">
        <ele>-18.13</ele>
        <time>2019-05-23T12:31:00Z</time>
      </trkpt>
      <trkpt lat="40.53069" lon="-8.45221">
        <ele>-15.24</ele>
        <time>2019-05-23T12:31:06Z</time>
      </trkpt>
      <trkpt lat="40.53077" lon="-8.45225">
        <ele>-15.24</ele>
        <time>2019-05-23T12:31:19Z</time>
      </trkpt>
      <trkpt lat="40.5308" lon="-8.45227">
        <ele>-16.21</ele>
        <time>2019-05-23T12:31:22Z</time>
      </trkpt>
      <trkpt lat="40.531" lon="-8.45236">
        <ele>-14.28</ele>
        <time>2019-05-23T12:31:40Z</time>
      </trkpt>
      <trkpt lat="40.53121" lon="-8.45245">
        <ele>-13.32</ele>
        <time>2019-05-23T12:31:57Z</time>
      </trkpt>
      <trkpt lat="40.53133" lon="-8.45249">
        <ele>-12.84</ele>
        <time>2019-05-23T12:32:07Z</time>
      </trkpt>
      <trkpt lat="40.5315" lon="-8.45258">
        <ele>-10.92</ele>
        <time>2019-05-23T12:32:25Z</time>
      </trkpt>
      <trkpt lat="40.53165" lon="-8.45265">
        <ele>-10.44</ele>
        <time>2019-05-23T12:32:38Z</time>
      </trkpt>
      <trkpt lat="40.53184" lon="-8.45273">
        <ele>-9.48</ele>
        <time>2019-05-23T12:32:54Z</time>
      </trkpt>
      <trkpt lat="40.53199" lon="-8.45283">
        <ele>-9.48</ele>
        <time>2019-05-23T12:33:07Z</time>
      </trkpt>
      <trkpt lat="40.53216" lon="-8.45293">
        <ele>-7.07</ele>
        <time>2019-05-23T12:33:21Z</time>
      </trkpt>
      <trkpt lat="40.53223" lon="-8.45298">
        <ele>-7.07</ele>
        <time>2019-05-23T12:33:28Z</time>
      </trkpt>
      <trkpt lat="40.53234" lon="-8.45306">
        <ele>-7.07</ele>
        <time>2019-05-23T12:33:38Z</time>
      </trkpt>
      <trkpt lat="40.53245" lon="-8.45313">
        <ele>-6.59</ele>
        <time>2019-05-23T12:33:46Z</time>
      </trkpt>
      <trkpt lat="40.53258" lon="-8.45325">
        <ele>-6.11</ele>
        <time>2019-05-23T12:34:00Z</time>
      </trkpt>
      <trkpt lat="40.53268" lon="-8.45335">
        <ele>-4.19</ele>
        <time>2019-05-23T12:34:11Z</time>
      </trkpt>
      <trkpt lat="40.53274" lon="-8.4534">
        <ele>-3.71</ele>
        <time>2019-05-23T12:34:19Z</time>
      </trkpt>
      <trkpt lat="40.5328" lon="-8.45338">
        <ele>-4.19</ele>
        <time>2019-05-23T12:34:27Z</time>
      </trkpt>
      <trkpt lat="40.53284" lon="-8.45343">
        <ele>-3.23</ele>
        <time>2019-05-23T12:34:36Z</time>
      </trkpt>
      <trkpt lat="40.53287" lon="-8.45344">
        <ele>-4.67</ele>
        <time>2019-05-23T12:34:38Z</time>
      </trkpt>
      <trkpt lat="40.53291" lon="-8.45348">
        <ele>-3.71</ele>
        <time>2019-05-23T12:34:42Z</time>
      </trkpt>
      <trkpt lat="40.53299" lon="-8.45354">
        <ele>-3.71</ele>
        <time>2019-05-23T12:34:51Z</time>
      </trkpt>
      <trkpt lat="40.53309" lon="-8.45369">
        <ele>-2.75</ele>
        <time>2019-05-23T12:35:05Z</time>
      </trkpt>
      <trkpt lat="40.53312" lon="-8.45373">
        <ele>-2.75</ele>
        <time>2019-05-23T12:35:09Z</time>
      </trkpt>
      <trkpt lat="40.53317" lon="-8.45377">
        <ele>-1.79</ele>
        <time>2019-05-23T12:35:13Z</time>
      </trkpt>
      <trkpt lat="40.53336" lon="-8.45396">
        <ele>-0.82</ele>
        <time>2019-05-23T12:35:29Z</time>
      </trkpt>
      <trkpt lat="40.53347" lon="-8.45409">
        <ele>-0.34</ele>
        <time>2019-05-23T12:35:42Z</time>
      </trkpt>
      <trkpt lat="40.53362" lon="-8.45423">
        <ele>0.62</ele>
        <time>2019-05-23T12:35:57Z</time>
      </trkpt>
      <trkpt lat="40.53377" lon="-8.45437">
        <ele>0.62</ele>
        <time>2019-05-23T12:36:12Z</time>
      </trkpt>
      <trkpt lat="40.53381" lon="-8.45441">
        <ele>1.58</ele>
        <time>2019-05-23T12:36:16Z</time>
      </trkpt>
      <trkpt lat="40.53384" lon="-8.45444">
        <ele>3.02</ele>
        <time>2019-05-23T12:36:20Z</time>
      </trkpt>
      <trkpt lat="40.53398" lon="-8.45458">
        <ele>2.54</ele>
        <time>2019-05-23T12:36:35Z</time>
      </trkpt>
      <trkpt lat="40.53409" lon="-8.4547">
        <ele>3.5</ele>
        <time>2019-05-23T12:36:49Z</time>
      </trkpt>
      <trkpt lat="40.53423" lon="-8.45484">
        <ele>3.5</ele>
        <time>2019-05-23T12:37:04Z</time>
      </trkpt>
      <trkpt lat="40.5343" lon="-8.45492">
        <ele>4.46</ele>
        <time>2019-05-23T12:37:11Z</time>
      </trkpt>
      <trkpt lat="40.53439" lon="-8.455">
        <ele>4.46</ele>
        <time>2019-05-23T12:37:22Z</time>
      </trkpt>
      <trkpt lat="40.53453" lon="-8.45511">
        <ele>4.94</ele>
        <time>2019-05-23T12:37:37Z</time>
      </trkpt>
      <trkpt lat="40.53475" lon="-8.45525">
        <ele>4.94</ele>
        <time>2019-05-23T12:37:56Z</time>
      </trkpt>
      <trkpt lat="40.5348" lon="-8.45528">
        <ele>5.91</ele>
        <time>2019-05-23T12:38:10Z</time>
      </trkpt>
      <trkpt lat="40.53488" lon="-8.45533">
        <ele>6.87</ele>
        <time>2019-05-23T12:38:31Z</time>
      </trkpt>
      <trkpt lat="40.53502" lon="-8.45537">
        <ele>5.91</ele>
        <time>2019-05-23T12:38:46Z</time>
      </trkpt>
      <trkpt lat="40.53506" lon="-8.45538">
        <ele>7.35</ele>
        <time>2019-05-23T12:38:49Z</time>
      </trkpt>
      <trkpt lat="40.53517" lon="-8.45542">
        <ele>6.87</ele>
        <time>2019-05-23T12:39:00Z</time>
      </trkpt>
      <trkpt lat="40.53532" lon="-8.45543">
        <ele>7.83</ele>
        <time>2019-05-23T12:39:14Z</time>
      </trkpt>
      <trkpt lat="40.53548" lon="-8.4554">
        <ele>6.87</ele>
        <time>2019-05-23T12:39:28Z</time>
      </trkpt>
      <trkpt lat="40.53564" lon="-8.45533">
        <ele>7.83</ele>
        <time>2019-05-23T12:39:43Z</time>
      </trkpt>
      <trkpt lat="40.53577" lon="-8.45531">
        <ele>7.35</ele>
        <time>2019-05-23T12:39:57Z</time>
      </trkpt>
      <trkpt lat="40.53594" lon="-8.45529">
        <ele>7.35</ele>
        <time>2019-05-23T12:40:11Z</time>
      </trkpt>
      <trkpt lat="40.53602" lon="-8.45528">
        <ele>9.27</ele>
        <time>2019-05-23T12:40:17Z</time>
      </trkpt>
      <trkpt lat="40.53625" lon="-8.45533">
        <ele>9.27</ele>
        <time>2019-05-23T12:40:33Z</time>
      </trkpt>
      <trkpt lat="40.53638" lon="-8.45537">
        <ele>8.31</ele>
        <time>2019-05-23T12:40:47Z</time>
      </trkpt>
      <trkpt lat="40.53639" lon="-8.45539">
        <ele>9.27</ele>
        <time>2019-05-23T12:40:49Z</time>
      </trkpt>
      <trkpt lat="40.53645" lon="-8.45542">
        <ele>10.23</ele>
        <time>2019-05-23T12:40:54Z</time>
      </trkpt>
      <trkpt lat="40.53656" lon="-8.4554">
        <ele>9.75</ele>
        <time>2019-05-23T12:41:07Z</time>
      </trkpt>
      <trkpt lat="40.53659" lon="-8.45536">
        <ele>9.75</ele>
        <time>2019-05-23T12:41:12Z</time>
      </trkpt>
      <trkpt lat="40.53667" lon="-8.45529">
        <ele>9.75</ele>
        <time>2019-05-23T12:41:24Z</time>
      </trkpt>
      <trkpt lat="40.53686" lon="-8.45524">
        <ele>10.23</ele>
        <time>2019-05-23T12:41:41Z</time>
      </trkpt>
      <trkpt lat="40.53703" lon="-8.45521">
        <ele>10.71</ele>
        <time>2019-05-23T12:41:54Z</time>
      </trkpt>
      <trkpt lat="40.53723" lon="-8.45522">
        <ele>11.19</ele>
        <time>2019-05-23T12:42:10Z</time>
      </trkpt>
      <trkpt lat="40.53743" lon="-8.45521">
        <ele>11.67</ele>
        <time>2019-05-23T12:42:27Z</time>
      </trkpt>
      <trkpt lat="40.53744" lon="-8.4552">
        <ele>13.12</ele>
        <time>2019-05-23T12:42:30Z</time>
      </trkpt>
      <trkpt lat="40.53753" lon="-8.45521">
        <ele>12.15</ele>
        <time>2019-05-23T12:42:42Z</time>
      </trkpt>
      <trkpt lat="40.53763" lon="-8.4553">
        <ele>12.63</ele>
        <time>2019-05-23T12:42:54Z</time>
      </trkpt>
      <trkpt lat="40.53764" lon="-8.4553">
        <ele>13.12</ele>
        <time>2019-05-23T12:42:55Z</time>
      </trkpt>
      <trkpt lat="40.53791" lon="-8.45527">
        <ele>14.56</ele>
        <time>2019-05-23T12:43:15Z</time>
      </trkpt>
      <trkpt lat="40.53811" lon="-8.45527">
        <ele>15.04</ele>
        <time>2019-05-23T12:43:32Z</time>
      </trkpt>
      <trkpt lat="40.53831" lon="-8.45526">
        <ele>15.52</ele>
        <time>2019-05-23T12:43:47Z</time>
      </trkpt>
      <trkpt lat="40.5384" lon="-8.45524">
        <ele>14.56</ele>
        <time>2019-05-23T12:43:55Z</time>
      </trkpt>
      <trkpt lat="40.53849" lon="-8.4552">
        <ele>16.48</ele>
        <time>2019-05-23T12:44:09Z</time>
      </trkpt>
      <trkpt lat="40.53857" lon="-8.45514">
        <ele>17.92</ele>
        <time>2019-05-23T12:44:27Z</time>
      </trkpt>
      <trkpt lat="40.53877" lon="-8.45508">
        <ele>18.4</ele>
        <time>2019-05-23T12:44:46Z</time>
      </trkpt>
      <trkpt lat="40.53893" lon="-8.45506">
        <ele>18.4</ele>
        <time>2019-05-23T12:45:00Z</time>
      </trkpt>
      <trkpt lat="40.53908" lon="-8.45502">
        <ele>19.84</ele>
        <time>2019-05-23T12:45:12Z</time>
      </trkpt>
      <trkpt lat="40.53922" lon="-8.45503">
        <ele>21.29</ele>
        <time>2019-05-23T12:45:24Z</time>
      </trkpt>
      <trkpt lat="40.53942" lon="-8.45497">
        <ele>21.29</ele>
        <time>2019-05-23T12:45:40Z</time>
      </trkpt>
      <trkpt lat="40.53959" lon="-8.45493">
        <ele>22.25</ele>
        <time>2019-05-23T12:45:54Z</time>
      </trkpt>
      <trkpt lat="40.53974" lon="-8.45492">
        <ele>23.21</ele>
        <time>2019-05-23T12:46:11Z</time>
      </trkpt>
      <trkpt lat="40.53977" lon="-8.45495">
        <ele>24.17</ele>
        <time>2019-05-23T12:46:25Z</time>
      </trkpt>
      <trkpt lat="40.5398" lon="-8.45492">
        <ele>24.17</ele>
        <time>2019-05-23T12:46:37Z</time>
      </trkpt>
      <trkpt lat="40.5398" lon="-8.45493">
        <ele>24.17</ele>
        <time>2019-05-23T12:46:52Z</time>
      </trkpt>
      <trkpt lat="40.53981" lon="-8.45494">
        <ele>25.13</ele>
        <time>2019-05-23T12:47:11Z</time>
      </trkpt>
      <trkpt lat="40.53981" lon="-8.45496">
        <ele>25.61</ele>
        <time>2019-05-23T12:47:29Z</time>
      </trkpt>
      <trkpt lat="40.5398" lon="-8.45491">
        <ele>26.09</ele>
        <time>2019-05-23T12:47:44Z</time>
      </trkpt>
      <trkpt lat="40.53988" lon="-8.45483">
        <ele>26.09</ele>
        <time>2019-05-23T12:47:57Z</time>
      </trkpt>
      <trkpt lat="40.53993" lon="-8.4548">
        <ele>27.05</ele>
        <time>2019-05-23T12:48:15Z</time>
      </trkpt>
      <trkpt lat="40.53994" lon="-8.4548">
        <ele>28.5</ele>
        <time>2019-05-23T12:48:44Z</time>
      </trkpt>
      <trkpt lat="40.53993" lon="-8.45482">
        <ele>29.94</ele>
        <time>2019-05-23T12:49:12Z</time>
      </trkpt>
      <trkpt lat="40.53993" lon="-8.45481">
        <ele>29.46</ele>
        <time>2019-05-23T12:49:38Z</time>
      </trkpt>
      <trkpt lat="40.53994" lon="-8.45479">
        <ele>30.9</ele>
        <time>2019-05-23T12:50:07Z</time>
      </trkpt>
      <trkpt lat="40.53994" lon="-8.45478">
        <ele>30.42</ele>
        <time>2019-05-23T12:50:25Z</time>
      </trkpt>
      <trkpt lat="40.54001" lon="-8.45478">
        <ele>29.94</ele>
        <time>2019-05-23T12:50:34Z</time>
      </trkpt>
      <trkpt lat="40.5402" lon="-8.45482">
        <ele>30.9</ele>
        <time>2019-05-23T12:50:49Z</time>
      </trkpt>
      <trkpt lat="40.54037" lon="-8.45476">
        <ele>31.86</ele>
        <time>2019-05-23T12:51:04Z</time>
      </trkpt>
      <trkpt lat="40.5405" lon="-8.45474">
        <ele>33.3</ele>
        <time>2019-05-23T12:51:16Z</time>
      </trkpt>
      <trkpt lat="40.54064" lon="-8.45469">
        <ele>34.26</ele>
        <time>2019-05-23T12:51:29Z</time>
      </trkpt>
      <trkpt lat="40.5408" lon="-8.45461">
        <ele>33.78</ele>
        <time>2019-05-23T12:51:43Z</time>
      </trkpt>
      <trkpt lat="40.54101" lon="-8.45457">
        <ele>34.74</ele>
        <time>2019-05-23T12:52:00Z</time>
      </trkpt>
      <trkpt lat="40.54109" lon="-8.45455">
        <ele>36.19</ele>
        <time>2019-05-23T12:52:14Z</time>
      </trkpt>
      <trkpt lat="40.54118" lon="-8.45452">
        <ele>37.15</ele>
        <time>2019-05-23T12:52:29Z</time>
      </trkpt>
      <trkpt lat="40.54137" lon="-8.45449">
        <ele>36.19</ele>
        <time>2019-05-23T12:52:46Z</time>
      </trkpt>
      <trkpt lat="40.54157" lon="-8.45444">
        <ele>37.15</ele>
        <time>2019-05-23T12:53:03Z</time>
      </trkpt>
      <trkpt lat="40.54173" lon="-8.45434">
        <ele>38.11</ele>
        <time>2019-05-23T12:53:17Z</time>
      </trkpt>
      <trkpt lat="40.54187" lon="-8.45432">
        <ele>38.59</ele>
        <time>2019-05-23T12:53:30Z</time>
      </trkpt>
      <trkpt lat="40.54188" lon="-8.45432">
        <ele>39.07</ele>
        <time>2019-05-23T12:53:31Z</time>
      </trkpt>
      <trkpt lat="40.5419" lon="-8.45433">
        <ele>39.55</ele>
        <time>2019-05-23T12:53:33Z</time>
      </trkpt>
      <trkpt lat="40.54209" lon="-8.45431">
        <ele>40.03</ele>
        <time>2019-05-23T12:53:48Z</time>
      </trkpt>
      <trkpt lat="40.54225" lon="-8.45428">
        <ele>40.51</ele>
        <time>2019-05-23T12:54:01Z</time>
      </trkpt>
      <trkpt lat="40.54241" lon="-8.45423">
        <ele>41.47</ele>
        <time>2019-05-23T12:54:14Z</time>
      </trkpt>
      <trkpt lat="40.54253" lon="-8.4542">
        <ele>42.92</ele>
        <time>2019-05-23T12:54:26Z</time>
      </trkpt>
      <trkpt lat="40.54253" lon="-8.45421">
        <ele>42.92</ele>
        <time>2019-05-23T12:54:30Z</time>
      </trkpt>
      <trkpt lat="40.54259" lon="-8.45421">
        <ele>42.92</ele>
        <time>2019-05-23T12:54:35Z</time>
      </trkpt>
      <trkpt lat="40.54276" lon="-8.45415">
        <ele>43.88</ele>
        <time>2019-05-23T12:54:50Z</time>
      </trkpt>
      <trkpt lat="40.54291" lon="-8.45408">
        <ele>44.36</ele>
        <time>2019-05-23T12:55:05Z</time>
      </trkpt>
      <trkpt lat="40.54309" lon="-8.45401">
        <ele>46.28</ele>
        <time>2019-05-23T12:55:21Z</time>
      </trkpt>
      <trkpt lat="40.54324" lon="-8.45397">
        <ele>46.76</ele>
        <time>2019-05-23T12:55:35Z</time>
      </trkpt>
      <trkpt lat="40.54343" lon="-8.45393">
        <ele>47.24</ele>
        <time>2019-05-23T12:55:50Z</time>
      </trkpt>
      <trkpt lat="40.5435" lon="-8.45393">
        <ele>49.65</ele>
        <time>2019-05-23T12:56:04Z</time>
      </trkpt>
      <trkpt lat="40.54362" lon="-8.45395">
        <ele>48.2</ele>
        <time>2019-05-23T12:56:20Z</time>
      </trkpt>
      <trkpt lat="40.54366" lon="-8.4539">
        <ele>48.2</ele>
        <time>2019-05-23T12:56:25Z</time>
      </trkpt>
      <trkpt lat="40.54379" lon="-8.45379">
        <ele>47.24</ele>
        <time>2019-05-23T12:56:39Z</time>
      </trkpt>
      <trkpt lat="40.54399" lon="-8.45381">
        <ele>47.24</ele>
        <time>2019-05-23T12:56:54Z</time>
      </trkpt>
      <trkpt lat="40.54423" lon="-8.4538">
        <ele>46.76</ele>
        <time>2019-05-23T12:57:12Z</time>
      </trkpt>
      <trkpt lat="40.54442" lon="-8.45377">
        <ele>45.8</ele>
        <time>2019-05-23T12:57:27Z</time>
      </trkpt>
      <trkpt lat="40.54459" lon="-8.45372">
        <ele>45.8</ele>
        <time>2019-05-23T12:57:41Z</time>
      </trkpt>
      <trkpt lat="40.54479" lon="-8.45366">
        <ele>44.36</ele>
        <time>2019-05-23T12:57:57Z</time>
      </trkpt>
      <trkpt lat="40.54482" lon="-8.45366">
        <ele>43.4</ele>
        <time>2019-05-23T12:58:00Z</time>
      </trkpt>
      <trkpt lat="40.54499" lon="-8.45365">
        <ele>43.88</ele>
        <time>2019-05-23T12:58:14Z</time>
      </trkpt>
      <trkpt lat="40.54515" lon="-8.45368">
        <ele>44.36</ele>
        <time>2019-05-23T12:58:26Z</time>
      </trkpt>
      <trkpt lat="40.54538" lon="-8.4537">
        <ele>43.88</ele>
        <time>2019-05-23T12:58:44Z</time>
      </trkpt>
      <trkpt lat="40.54555" lon="-8.45375">
        <ele>43.4</ele>
        <time>2019-05-23T12:58:59Z</time>
      </trkpt>
      <trkpt lat="40.54566" lon="-8.45378">
        <ele>42.92</ele>
        <time>2019-05-23T12:59:10Z</time>
      </trkpt>
      <trkpt lat="40.54577" lon="-8.4537">
        <ele>43.4</ele>
        <time>2019-05-23T12:59:20Z</time>
      </trkpt>
      <trkpt lat="40.54588" lon="-8.45371">
        <ele>43.4</ele>
        <time>2019-05-23T12:59:30Z</time>
      </trkpt>
      <trkpt lat="40.54593" lon="-8.45371">
        <ele>43.4</ele>
        <time>2019-05-23T12:59:49Z</time>
      </trkpt>
      <trkpt lat="40.54599" lon="-8.45363">
        <ele>42.44</ele>
        <time>2019-05-23T13:00:03Z</time>
      </trkpt>
      <trkpt lat="40.54599" lon="-8.45361">
        <ele>43.4</ele>
        <time>2019-05-23T13:00:04Z</time>
      </trkpt>
      <trkpt lat="40.54601" lon="-8.45345">
        <ele>42.92</ele>
        <time>2019-05-23T13:00:15Z</time>
      </trkpt>
      <trkpt lat="40.54605" lon="-8.45326">
        <ele>41.47</ele>
        <time>2019-05-23T13:00:28Z</time>
      </trkpt>
      <trkpt lat="40.54607" lon="-8.45323">
        <ele>42.92</ele>
        <time>2019-05-23T13:00:31Z</time>
      </trkpt>
      <trkpt lat="40.54612" lon="-8.45317">
        <ele>41.95</ele>
        <time>2019-05-23T13:00:36Z</time>
      </trkpt>
      <trkpt lat="40.54618" lon="-8.45316">
        <ele>41.47</ele>
        <time>2019-05-23T13:00:41Z</time>
      </trkpt>
      <trkpt lat="40.5463" lon="-8.45312">
        <ele>41.95</ele>
        <time>2019-05-23T13:00:53Z</time>
      </trkpt>
      <trkpt lat="40.54647" lon="-8.45306">
        <ele>43.4</ele>
        <time>2019-05-23T13:01:06Z</time>
      </trkpt>
      <trkpt lat="40.5467" lon="-8.45299">
        <ele>43.88</ele>
        <time>2019-05-23T13:01:23Z</time>
      </trkpt>
      <trkpt lat="40.5469" lon="-8.45292">
        <ele>43.88</ele>
        <time>2019-05-23T13:01:39Z</time>
      </trkpt>
      <trkpt lat="40.54707" lon="-8.45288">
        <ele>44.84</ele>
        <time>2019-05-23T13:01:53Z</time>
      </trkpt>
      <trkpt lat="40.54718" lon="-8.45284">
        <ele>43.88</ele>
        <time>2019-05-23T13:02:07Z</time>
      </trkpt>
      <trkpt lat="40.54719" lon="-8.4528">
        <ele>44.84</ele>
        <time>2019-05-23T13:02:15Z</time>
      </trkpt>
      <trkpt lat="40.54732" lon="-8.45278">
        <ele>44.84</ele>
        <time>2019-05-23T13:02:29Z</time>
      </trkpt>
      <trkpt lat="40.54749" lon="-8.45272">
        <ele>44.84</ele>
        <time>2019-05-23T13:02:45Z</time>
      </trkpt>
      <trkpt lat="40.54768" lon="-8.45265">
        <ele>45.8</ele>
        <time>2019-05-23T13:03:02Z</time>
      </trkpt>
      <trkpt lat="40.54786" lon="-8.45261">
        <ele>45.32</ele>
        <time>2019-05-23T13:03:18Z</time>
      </trkpt>
      <trkpt lat="40.54791" lon="-8.45259">
        <ele>46.76</ele>
        <time>2019-05-23T13:03:24Z</time>
      </trkpt>
      <trkpt lat="40.54803" lon="-8.45255">
        <ele>45.8</ele>
        <time>2019-05-23T13:03:44Z</time>
      </trkpt>
      <trkpt lat="40.54825" lon="-8.45249">
        <ele>47.72</ele>
        <time>2019-05-23T13:04:00Z</time>
      </trkpt>
      <trkpt lat="40.54845" lon="-8.45243">
        <ele>48.2</ele>
        <time>2019-05-23T13:04:18Z</time>
      </trkpt>
      <trkpt lat="40.54861" lon="-8.45238">
        <ele>48.68</ele>
        <time>2019-05-23T13:04:32Z</time>
      </trkpt>
      <trkpt lat="40.54878" lon="-8.45232">
        <ele>47.24</ele>
        <time>2019-05-23T13:04:47Z</time>
      </trkpt>
      <trkpt lat="40.54897" lon="-8.45228">
        <ele>47.24</ele>
        <time>2019-05-23T13:05:03Z</time>
      </trkpt>
      <trkpt lat="40.54907" lon="-8.45226">
        <ele>46.76</ele>
        <time>2019-05-23T13:05:11Z</time>
      </trkpt>
      <trkpt lat="40.54929" lon="-8.45223">
        <ele>44.84</ele>
        <time>2019-05-23T13:05:26Z</time>
      </trkpt>
      <trkpt lat="40.54939" lon="-8.4522">
        <ele>45.32</ele>
        <time>2019-05-23T13:05:34Z</time>
      </trkpt>
      <trkpt lat="40.54943" lon="-8.45218">
        <ele>44.36</ele>
        <time>2019-05-23T13:05:38Z</time>
      </trkpt>
      <trkpt lat="40.54966" lon="-8.45209">
        <ele>43.88</ele>
        <time>2019-05-23T13:05:57Z</time>
      </trkpt>
      <trkpt lat="40.54984" lon="-8.452">
        <ele>43.4</ele>
        <time>2019-05-23T13:06:12Z</time>
      </trkpt>
      <trkpt lat="40.55004" lon="-8.45192">
        <ele>43.4</ele>
        <time>2019-05-23T13:06:28Z</time>
      </trkpt>
      <trkpt lat="40.55026" lon="-8.45187">
        <ele>42.92</ele>
        <time>2019-05-23T13:06:45Z</time>
      </trkpt>
      <trkpt lat="40.55046" lon="-8.45184">
        <ele>43.4</ele>
        <time>2019-05-23T13:07:02Z</time>
      </trkpt>
      <trkpt lat="40.55051" lon="-8.4518">
        <ele>44.36</ele>
        <time>2019-05-23T13:07:21Z</time>
      </trkpt>
      <trkpt lat="40.55062" lon="-8.45173">
        <ele>43.88</ele>
        <time>2019-05-23T13:07:33Z</time>
      </trkpt>
      <trkpt lat="40.55078" lon="-8.4516">
        <ele>43.4</ele>
        <time>2019-05-23T13:07:49Z</time>
      </trkpt>
      <trkpt lat="40.5509" lon="-8.45146">
        <ele>43.88</ele>
        <time>2019-05-23T13:08:03Z</time>
      </trkpt>
      <trkpt lat="40.55102" lon="-8.45123">
        <ele>42.92</ele>
        <time>2019-05-23T13:08:19Z</time>
      </trkpt>
      <trkpt lat="40.55111" lon="-8.45108">
        <ele>43.88</ele>
        <time>2019-05-23T13:08:33Z</time>
      </trkpt>
      <trkpt lat="40.55118" lon="-8.45102">
        <ele>44.36</ele>
        <time>2019-05-23T13:08:48Z</time>
      </trkpt>
      <trkpt lat="40.55128" lon="-8.45091">
        <ele>44.36</ele>
        <time>2019-05-23T13:09:00Z</time>
      </trkpt>
      <trkpt lat="40.55138" lon="-8.45077">
        <ele>44.84</ele>
        <time>2019-05-23T13:09:12Z</time>
      </trkpt>
      <trkpt lat="40.55148" lon="-8.45062">
        <ele>45.8</ele>
        <time>2019-05-23T13:09:25Z</time>
      </trkpt>
      <trkpt lat="40.55159" lon="-8.45047">
        <ele>46.28</ele>
        <time>2019-05-23T13:09:38Z</time>
      </trkpt>
      <trkpt lat="40.55166" lon="-8.45038">
        <ele>47.24</ele>
        <time>2019-05-23T13:09:49Z</time>
      </trkpt>
      <trkpt lat="40.55172" lon="-8.45028">
        <ele>46.76</ele>
        <time>2019-05-23T13:10:01Z</time>
      </trkpt>
      <trkpt lat="40.55177" lon="-8.45024">
        <ele>47.24</ele>
        <time>2019-05-23T13:10:16Z</time>
      </trkpt>
      <trkpt lat="40.55178" lon="-8.45023">
        <ele>47.24</ele>
        <time>2019-05-23T13:10:45Z</time>
      </trkpt>
      <trkpt lat="40.55187" lon="-8.45016">
        <ele>48.68</ele>
        <time>2019-05-23T13:11:09Z</time>
      </trkpt>
      <trkpt lat="40.55186" lon="-8.45011">
        <ele>48.2</ele>
        <time>2019-05-23T13:11:37Z</time>
      </trkpt>
      <trkpt lat="40.55193" lon="-8.45002">
        <ele>49.16</ele>
        <time>2019-05-23T13:11:52Z</time>
      </trkpt>
      <trkpt lat="40.55203" lon="-8.44987">
        <ele>49.16</ele>
        <time>2019-05-23T13:12:06Z</time>
      </trkpt>
      <trkpt lat="40.55211" lon="-8.44973">
        <ele>49.65</ele>
        <time>2019-05-23T13:12:19Z</time>
      </trkpt>
      <trkpt lat="40.55221" lon="-8.44959">
        <ele>51.09</ele>
        <time>2019-05-23T13:12:33Z</time>
      </trkpt>
      <trkpt lat="40.55231" lon="-8.44943">
        <ele>51.09</ele>
        <time>2019-05-23T13:12:46Z</time>
      </trkpt>
      <trkpt lat="40.55234" lon="-8.44941">
        <ele>51.09</ele>
        <time>2019-05-23T13:12:49Z</time>
      </trkpt>
      <trkpt lat="40.55245" lon="-8.44926">
        <ele>51.09</ele>
        <time>2019-05-23T13:13:03Z</time>
      </trkpt>
      <trkpt lat="40.55261" lon="-8.44908">
        <ele>52.05</ele>
        <time>2019-05-23T13:13:19Z</time>
      </trkpt>
      <trkpt lat="40.55274" lon="-8.44897">
        <ele>52.53</ele>
        <time>2019-05-23T13:13:33Z</time>
      </trkpt>
      <trkpt lat="40.5529" lon="-8.44886">
        <ele>52.53</ele>
        <time>2019-05-23T13:13:48Z</time>
      </trkpt>
      <trkpt lat="40.55311" lon="-8.44881">
        <ele>52.53</ele>
        <time>2019-05-23T13:14:05Z</time>
      </trkpt>
      <trkpt lat="40.55319" lon="-8.44883">
        <ele>53.49</ele>
        <time>2019-05-23T13:14:14Z</time>
      </trkpt>
      <trkpt lat="40.55326" lon="-8.44886">
        <ele>54.45</ele>
        <time>2019-05-23T13:14:30Z</time>
      </trkpt>
      <trkpt lat="40.55337" lon="-8.44887">
        <ele>53.49</ele>
        <time>2019-05-23T13:14:44Z</time>
      </trkpt>
      <trkpt lat="40.5535" lon="-8.44888">
        <ele>53.97</ele>
        <time>2019-05-23T13:14:57Z</time>
      </trkpt>
      <trkpt lat="40.55365" lon="-8.4489">
        <ele>53.49</ele>
        <time>2019-05-23T13:15:09Z</time>
      </trkpt>
      <trkpt lat="40.55367" lon="-8.44891">
        <ele>53.97</ele>
        <time>2019-05-23T13:15:11Z</time>
      </trkpt>
      <trkpt lat="40.55368" lon="-8.44891">
        <ele>54.45</ele>
        <time>2019-05-23T13:15:12Z</time>
      </trkpt>
      <trkpt lat="40.55392" lon="-8.44894">
        <ele>53.49</ele>
        <time>2019-05-23T13:15:30Z</time>
      </trkpt>
      <trkpt lat="40.554" lon="-8.44896">
        <ele>53.97</ele>
        <time>2019-05-23T13:15:36Z</time>
      </trkpt>
      <trkpt lat="40.55413" lon="-8.44898">
        <ele>53.97</ele>
        <time>2019-05-23T13:15:47Z</time>
      </trkpt>
      <trkpt lat="40.55428" lon="-8.449">
        <ele>53.01</ele>
        <time>2019-05-23T13:16:00Z</time>
      </trkpt>
      <trkpt lat="40.55441" lon="-8.44903">
        <ele>53.01</ele>
        <time>2019-05-23T13:16:10Z</time>
      </trkpt>
      <trkpt lat="40.55459" lon="-8.44904">
        <ele>52.05</ele>
        <time>2019-05-23T13:16:24Z</time>
      </trkpt>
      <trkpt lat="40.55474" lon="-8.44906">
        <ele>53.49</ele>
        <time>2019-05-23T13:16:37Z</time>
      </trkpt>
      <trkpt lat="40.55477" lon="-8.44907">
        <ele>53.49</ele>
        <time>2019-05-23T13:16:40Z</time>
      </trkpt>
      <trkpt lat="40.5549" lon="-8.4491">
        <ele>53.49</ele>
        <time>2019-05-23T13:16:57Z</time>
      </trkpt>
      <trkpt lat="40.55495" lon="-8.44912">
        <ele>53.01</ele>
        <time>2019-05-23T13:17:15Z</time>
      </trkpt>
      <trkpt lat="40.55501" lon="-8.44911">
        <ele>53.49</ele>
        <time>2019-05-23T13:17:21Z</time>
      </trkpt>
      <trkpt lat="40.55516" lon="-8.44914">
        <ele>53.01</ele>
        <time>2019-05-23T13:17:34Z</time>
      </trkpt>
      <trkpt lat="40.55531" lon="-8.44917">
        <ele>53.01</ele>
        <time>2019-05-23T13:17:48Z</time>
      </trkpt>
      <trkpt lat="40.55539" lon="-8.44918">
        <ele>53.49</ele>
        <time>2019-05-23T13:17:54Z</time>
      </trkpt>
      <trkpt lat="40.55544" lon="-8.44919">
        <ele>52.05</ele>
        <time>2019-05-23T13:17:58Z</time>
      </trkpt>
      <trkpt lat="40.55549" lon="-8.4492">
        <ele>53.01</ele>
        <time>2019-05-23T13:18:03Z</time>
      </trkpt>
      <trkpt lat="40.55566" lon="-8.44921">
        <ele>53.01</ele>
        <time>2019-05-23T13:18:18Z</time>
      </trkpt>
      <trkpt lat="40.5557" lon="-8.44924">
        <ele>52.05</ele>
        <time>2019-05-23T13:18:22Z</time>
      </trkpt>
      <trkpt lat="40.55577" lon="-8.44922">
        <ele>52.53</ele>
        <time>2019-05-23T13:18:27Z</time>
      </trkpt>
      <trkpt lat="40.55589" lon="-8.44918">
        <ele>53.01</ele>
        <time>2019-05-23T13:18:35Z</time>
      </trkpt>
      <trkpt lat="40.55596" lon="-8.44916">
        <ele>52.53</ele>
        <time>2019-05-23T13:18:40Z</time>
      </trkpt>
      <trkpt lat="40.55613" lon="-8.44903">
        <ele>53.01</ele>
        <time>2019-05-23T13:18:55Z</time>
      </trkpt>
      <trkpt lat="40.55618" lon="-8.44901">
        <ele>53.49</ele>
        <time>2019-05-23T13:19:07Z</time>
      </trkpt>
      <trkpt lat="40.55618" lon="-8.44901">
        <ele>53.49</ele>
        <time>2019-05-23T13:19:08Z</time>
      </trkpt>
      <trkpt lat="40.55626" lon="-8.44892">
        <ele>52.53</ele>
        <time>2019-05-23T13:19:22Z</time>
      </trkpt>
      <trkpt lat="40.55638" lon="-8.44878">
        <ele>53.01</ele>
        <time>2019-05-23T13:19:36Z</time>
      </trkpt>
      <trkpt lat="40.55649" lon="-8.44862">
        <ele>52.53</ele>
        <time>2019-05-23T13:19:51Z</time>
      </trkpt>
      <trkpt lat="40.55661" lon="-8.44845">
        <ele>53.97</ele>
        <time>2019-05-23T13:20:05Z</time>
      </trkpt>
      <trkpt lat="40.55672" lon="-8.44828">
        <ele>52.53</ele>
        <time>2019-05-23T13:20:19Z</time>
      </trkpt>
      <trkpt lat="40.55685" lon="-8.44811">
        <ele>53.97</ele>
        <time>2019-05-23T13:20:34Z</time>
      </trkpt>
      <trkpt lat="40.55691" lon="-8.44803">
        <ele>53.97</ele>
        <time>2019-05-23T13:20:45Z</time>
      </trkpt>
      <trkpt lat="40.55702" lon="-8.44786">
        <ele>54.45</ele>
        <time>2019-05-23T13:21:00Z</time>
      </trkpt>
      <trkpt lat="40.55714" lon="-8.4477">
        <ele>54.45</ele>
        <time>2019-05-23T13:21:13Z</time>
      </trkpt>
      <trkpt lat="40.55718" lon="-8.44766">
        <ele>53.97</ele>
        <time>2019-05-23T13:21:19Z</time>
      </trkpt>
      <trkpt lat="40.55725" lon="-8.44762">
        <ele>53.97</ele>
        <time>2019-05-23T13:21:26Z</time>
      </trkpt>
      <trkpt lat="40.55738" lon="-8.4476">
        <ele>54.93</ele>
        <time>2019-05-23T13:21:40Z</time>
      </trkpt>
      <trkpt lat="40.55753" lon="-8.44756">
        <ele>55.89</ele>
        <time>2019-05-23T13:21:55Z</time>
      </trkpt>
      <trkpt lat="40.55772" lon="-8.44752">
        <ele>56.86</ele>
        <time>2019-05-23T13:22:11Z</time>
      </trkpt>
      <trkpt lat="40.55788" lon="-8.44742">
        <ele>57.34</ele>
        <time>2019-05-23T13:22:26Z</time>
      </trkpt>
      <trkpt lat="40.55807" lon="-8.44735">
        <ele>57.82</ele>
        <time>2019-05-23T13:22:42Z</time>
      </trkpt>
      <trkpt lat="40.55823" lon="-8.44725">
        <ele>58.3</ele>
        <time>2019-05-23T13:22:58Z</time>
      </trkpt>
      <trkpt lat="40.55823" lon="-8.44718">
        <ele>58.3</ele>
        <time>2019-05-23T13:23:15Z</time>
      </trkpt>
      <trkpt lat="40.5583" lon="-8.44717">
        <ele>57.82</ele>
        <time>2019-05-23T13:23:21Z</time>
      </trkpt>
      <trkpt lat="40.55836" lon="-8.44714">
        <ele>58.3</ele>
        <time>2019-05-23T13:23:26Z</time>
      </trkpt>
      <trkpt lat="40.55839" lon="-8.4471">
        <ele>58.78</ele>
        <time>2019-05-23T13:23:30Z</time>
      </trkpt>
      <trkpt lat="40.55849" lon="-8.44701">
        <ele>58.78</ele>
        <time>2019-05-23T13:23:43Z</time>
      </trkpt>
      <trkpt lat="40.55862" lon="-8.44692">
        <ele>58.3</ele>
        <time>2019-05-23T13:23:56Z</time>
      </trkpt>
      <trkpt lat="40.55868" lon="-8.44686">
        <ele>58.3</ele>
        <time>2019-05-23T13:24:03Z</time>
      </trkpt>
      <trkpt lat="40.55884" lon="-8.44675">
        <ele>58.3</ele>
        <time>2019-05-23T13:24:18Z</time>
      </trkpt>
      <trkpt lat="40.55904" lon="-8.44662">
        <ele>56.86</ele>
        <time>2019-05-23T13:24:33Z</time>
      </trkpt>
      <trkpt lat="40.55905" lon="-8.44661">
        <ele>56.37</ele>
        <time>2019-05-23T13:24:34Z</time>
      </trkpt>
      <trkpt lat="40.5591" lon="-8.44658">
        <ele>56.86</ele>
        <time>2019-05-23T13:24:38Z</time>
      </trkpt>
      <trkpt lat="40.55914" lon="-8.44654">
        <ele>57.34</ele>
        <time>2019-05-23T13:24:42Z</time>
      </trkpt>
      <trkpt lat="40.55932" lon="-8.44644">
        <ele>56.86</ele>
        <time>2019-05-23T13:24:57Z</time>
      </trkpt>
      <trkpt lat="40.55947" lon="-8.44636">
        <ele>56.37</ele>
        <time>2019-05-23T13:25:12Z</time>
      </trkpt>
      <trkpt lat="40.55953" lon="-8.44635">
        <ele>55.89</ele>
        <time>2019-05-23T13:25:27Z</time>
      </trkpt>
      <trkpt lat="40.55952" lon="-8.44633">
        <ele>56.37</ele>
        <time>2019-05-23T13:25:42Z</time>
      </trkpt>
      <trkpt lat="40.55953" lon="-8.4463">
        <ele>55.89</ele>
        <time>2019-05-23T13:26:04Z</time>
      </trkpt>
      <trkpt lat="40.55964" lon="-8.44626">
        <ele>55.41</ele>
        <time>2019-05-23T13:26:25Z</time>
      </trkpt>
      <trkpt lat="40.55971" lon="-8.44621">
        <ele>55.41</ele>
        <time>2019-05-23T13:26:41Z</time>
      </trkpt>
      <trkpt lat="40.55978" lon="-8.44618">
        <ele>54.45</ele>
        <time>2019-05-23T13:26:48Z</time>
      </trkpt>
      <trkpt lat="40.55993" lon="-8.44613">
        <ele>53.01</ele>
        <time>2019-05-23T13:27:01Z</time>
      </trkpt>
      <trkpt lat="40.5601" lon="-8.44607">
        <ele>49.65</ele>
        <time>2019-05-23T13:27:17Z</time>
      </trkpt>
      <trkpt lat="40.56027" lon="-8.44605">
        <ele>46.28</ele>
        <time>2019-05-23T13:27:30Z</time>
      </trkpt>
      <trkpt lat="40.56042" lon="-8.44603">
        <ele>43.88</ele>
        <time>2019-05-23T13:27:42Z</time>
      </trkpt>
      <trkpt lat="40.5606" lon="-8.446">
        <ele>41.47</ele>
        <time>2019-05-23T13:27:58Z</time>
      </trkpt>
      <trkpt lat="40.56074" lon="-8.44597">
        <ele>39.55</ele>
        <time>2019-05-23T13:28:12Z</time>
      </trkpt>
      <trkpt lat="40.5609" lon="-8.44594">
        <ele>36.67</ele>
        <time>2019-05-23T13:28:27Z</time>
      </trkpt>
      <trkpt lat="40.56101" lon="-8.4459">
        <ele>33.78</ele>
        <time>2019-05-23T13:28:39Z</time>
      </trkpt>
      <trkpt lat="40.56102" lon="-8.4459">
        <ele>33.78</ele>
        <time>2019-05-23T13:28:40Z</time>
      </trkpt>
      <trkpt lat="40.56127" lon="-8.44587">
        <ele>32.34</ele>
        <time>2019-05-23T13:28:56Z</time>
      </trkpt>
      <trkpt lat="40.56145" lon="-8.44583">
        <ele>28.98</ele>
        <time>2019-05-23T13:29:09Z</time>
      </trkpt>
      <trkpt lat="40.56167" lon="-8.44577">
        <ele>27.53</ele>
        <time>2019-05-23T13:29:25Z</time>
      </trkpt>
      <trkpt lat="40.56189" lon="-8.44572">
        <ele>24.65</ele>
        <time>2019-05-23T13:29:40Z</time>
      </trkpt>
      <trkpt lat="40.56202" lon="-8.44571">
        <ele>24.17</ele>
        <time>2019-05-23T13:29:50Z</time>
      </trkpt>
      <trkpt lat="40.5622" lon="-8.44574">
        <ele>21.29</ele>
        <time>2019-05-23T13:30:05Z</time>
      </trkpt>
      <trkpt lat="40.56238" lon="-8.44575">
        <ele>19.84</ele>
        <time>2019-05-23T13:30:18Z</time>
      </trkpt>
      <trkpt lat="40.5626" lon="-8.44575">
        <ele>19.36</ele>
        <time>2019-05-23T13:30:36Z</time>
      </trkpt>
      <trkpt lat="40.56284" lon="-8.44578">
        <ele>17.92</ele>
        <time>2019-05-23T13:30:52Z</time>
      </trkpt>
      <trkpt lat="40.56294" lon="-8.44578">
        <ele>16.96</ele>
        <time>2019-05-23T13:31:00Z</time>
      </trkpt>
      <trkpt lat="40.56312" lon="-8.44576">
        <ele>16.96</ele>
        <time>2019-05-23T13:31:13Z</time>
      </trkpt>
      <trkpt lat="40.56324" lon="-8.44566">
        <ele>16.96</ele>
        <time>2019-05-23T13:31:26Z</time>
      </trkpt>
      <trkpt lat="40.56332" lon="-8.44562">
        <ele>17.44</ele>
        <time>2019-05-23T13:31:38Z</time>
      </trkpt>
      <trkpt lat="40.56335" lon="-8.44563">
        <ele>16</ele>
        <time>2019-05-23T13:31:41Z</time>
      </trkpt>
      <trkpt lat="40.56345" lon="-8.4457">
        <ele>16.48</ele>
        <time>2019-05-23T13:31:52Z</time>
      </trkpt>
      <trkpt lat="40.56349" lon="-8.44571">
        <ele>15.52</ele>
        <time>2019-05-23T13:32:04Z</time>
      </trkpt>
      <trkpt lat="40.56346" lon="-8.44569">
        <ele>15.04</ele>
        <time>2019-05-23T13:32:18Z</time>
      </trkpt>
      <trkpt lat="40.5634" lon="-8.44563">
        <ele>16</ele>
        <time>2019-05-23T13:32:31Z</time>
      </trkpt>
      <trkpt lat="40.56342" lon="-8.44565">
        <ele>15.04</ele>
        <time>2019-05-23T13:32:46Z</time>
      </trkpt>
      <trkpt lat="40.5635" lon="-8.4456">
        <ele>15.04</ele>
        <time>2019-05-23T13:32:59Z</time>
      </trkpt>
      <trkpt lat="40.56363" lon="-8.44559">
        <ele>14.56</ele>
        <time>2019-05-23T13:33:12Z</time>
      </trkpt>
      <trkpt lat="40.56384" lon="-8.44568">
        <ele>14.56</ele>
        <time>2019-05-23T13:33:30Z</time>
      </trkpt>
      <trkpt lat="40.56396" lon="-8.44582">
        <ele>13.6</ele>
        <time>2019-05-23T13:33:46Z</time>
      </trkpt>
      <trkpt lat="40.56404" lon="-8.44591">
        <ele>13.6</ele>
        <time>2019-05-23T13:33:55Z</time>
      </trkpt>
      <trkpt lat="40.56419" lon="-8.44604">
        <ele>13.6</ele>
        <time>2019-05-23T13:34:09Z</time>
      </trkpt>
      <trkpt lat="40.56427" lon="-8.44614">
        <ele>12.63</ele>
        <time>2019-05-23T13:34:23Z</time>
      </trkpt>
      <trkpt lat="40.56431" lon="-8.44618">
        <ele>13.12</ele>
        <time>2019-05-23T13:34:38Z</time>
      </trkpt>
      <trkpt lat="40.56438" lon="-8.44622">
        <ele>11.19</ele>
        <time>2019-05-23T13:34:53Z</time>
      </trkpt>
      <trkpt lat="40.56455" lon="-8.44626">
        <ele>12.15</ele>
        <time>2019-05-23T13:35:07Z</time>
      </trkpt>
      <trkpt lat="40.56464" lon="-8.44629">
        <ele>11.67</ele>
        <time>2019-05-23T13:35:20Z</time>
      </trkpt>
      <trkpt lat="40.56484" lon="-8.44633">
        <ele>11.19</ele>
        <time>2019-05-23T13:35:37Z</time>
      </trkpt>
      <trkpt lat="40.56502" lon="-8.44636">
        <ele>9.75</ele>
        <time>2019-05-23T13:35:53Z</time>
      </trkpt>
      <trkpt lat="40.56523" lon="-8.44644">
        <ele>9.75</ele>
        <time>2019-05-23T13:36:08Z</time>
      </trkpt>
      <trkpt lat="40.56524" lon="-8.44654">
        <ele>10.71</ele>
        <time>2019-05-23T13:36:27Z</time>
      </trkpt>
      <trkpt lat="40.56529" lon="-8.44658">
        <ele>9.27</ele>
        <time>2019-05-23T13:36:55Z</time>
      </trkpt>
      <trkpt lat="40.56533" lon="-8.44658">
        <ele>9.75</ele>
        <time>2019-05-23T13:36:59Z</time>
      </trkpt>
      <trkpt lat="40.5654" lon="-8.44659">
        <ele>9.75</ele>
        <time>2019-05-23T13:37:05Z</time>
      </trkpt>
      <trkpt lat="40.56557" lon="-8.44667">
        <ele>9.27</ele>
        <time>2019-05-23T13:37:20Z</time>
      </trkpt>
      <trkpt lat="40.56575" lon="-8.44675">
        <ele>10.71</ele>
        <time>2019-05-23T13:37:34Z</time>
      </trkpt>
      <trkpt lat="40.56583" lon="-8.4468">
        <ele>10.23</ele>
        <time>2019-05-23T13:37:42Z</time>
      </trkpt>
      <trkpt lat="40.56592" lon="-8.44679">
        <ele>9.27</ele>
        <time>2019-05-23T13:37:49Z</time>
      </trkpt>
      <trkpt lat="40.56599" lon="-8.44686">
        <ele>9.27</ele>
        <time>2019-05-23T13:38:04Z</time>
      </trkpt>
      <trkpt lat="40.566" lon="-8.44686">
        <ele>9.75</ele>
        <time>2019-05-23T13:38:21Z</time>
      </trkpt>
      <trkpt lat="40.56612" lon="-8.4469">
        <ele>8.79</ele>
        <time>2019-05-23T13:38:36Z</time>
      </trkpt>
      <trkpt lat="40.5663" lon="-8.44699">
        <ele>9.75</ele>
        <time>2019-05-23T13:38:52Z</time>
      </trkpt>
      <trkpt lat="40.5665" lon="-8.44707">
        <ele>10.23</ele>
        <time>2019-05-23T13:39:09Z</time>
      </trkpt>
      <trkpt lat="40.5667" lon="-8.44714">
        <ele>12.15</ele>
        <time>2019-05-23T13:39:25Z</time>
      </trkpt>
      <trkpt lat="40.56677" lon="-8.44717">
        <ele>8.79</ele>
        <time>2019-05-23T13:39:31Z</time>
      </trkpt>
      <trkpt lat="40.56678" lon="-8.44717">
        <ele>9.27</ele>
        <time>2019-05-23T13:39:32Z</time>
      </trkpt>
      <trkpt lat="40.56701" lon="-8.44727">
        <ele>9.27</ele>
        <time>2019-05-23T13:39:52Z</time>
      </trkpt>
      <trkpt lat="40.56701" lon="-8.44728">
        <ele>10.23</ele>
        <time>2019-05-23T13:40:09Z</time>
      </trkpt>
      <trkpt lat="40.56711" lon="-8.44734">
        <ele>9.75</ele>
        <time>2019-05-23T13:40:33Z</time>
      </trkpt>
      <trkpt lat="40.56718" lon="-8.44734">
        <ele>11.19</ele>
        <time>2019-05-23T13:40:47Z</time>
      </trkpt>
      <trkpt lat="40.56721" lon="-8.44735">
        <ele>10.23</ele>
        <time>2019-05-23T13:40:51Z</time>
      </trkpt>
      <trkpt lat="40.56727" lon="-8.44732">
        <ele>11.67</ele>
        <time>2019-05-23T13:41:03Z</time>
      </trkpt>
      <trkpt lat="40.56733" lon="-8.4473">
        <ele>13.12</ele>
        <time>2019-05-23T13:41:18Z</time>
      </trkpt>
      <trkpt lat="40.56746" lon="-8.44724">
        <ele>14.08</ele>
        <time>2019-05-23T13:41:33Z</time>
      </trkpt>
      <trkpt lat="40.5676" lon="-8.44719">
        <ele>11.67</ele>
        <time>2019-05-23T13:41:46Z</time>
      </trkpt>
      <trkpt lat="40.56778" lon="-8.44729">
        <ele>8.31</ele>
        <time>2019-05-23T13:42:00Z</time>
      </trkpt>
      <trkpt lat="40.56798" lon="-8.44735">
        <ele>10.71</ele>
        <time>2019-05-23T13:42:16Z</time>
      </trkpt>
      <trkpt lat="40.56818" lon="-8.4474">
        <ele>10.23</ele>
        <time>2019-05-23T13:42:32Z</time>
      </trkpt>
      <trkpt lat="40.56841" lon="-8.44745">
        <ele>10.71</ele>
        <time>2019-05-23T13:42:49Z</time>
      </trkpt>
      <trkpt lat="40.56842" lon="-8.44745">
        <ele>10.71</ele>
        <time>2019-05-23T13:42:50Z</time>
      </trkpt>
      <trkpt lat="40.56861" lon="-8.44749">
        <ele>9.75</ele>
        <time>2019-05-23T13:43:05Z</time>
      </trkpt>
      <trkpt lat="40.56874" lon="-8.4475">
        <ele>10.23</ele>
        <time>2019-05-23T13:43:16Z</time>
      </trkpt>
      <trkpt lat="40.56887" lon="-8.44756">
        <ele>8.79</ele>
        <time>2019-05-23T13:43:32Z</time>
      </trkpt>
      <trkpt lat="40.56905" lon="-8.44759">
        <ele>9.75</ele>
        <time>2019-05-23T13:43:49Z</time>
      </trkpt>
      <trkpt lat="40.56915" lon="-8.44761">
        <ele>9.75</ele>
        <time>2019-05-23T13:44:03Z</time>
      </trkpt>
      <trkpt lat="40.5692" lon="-8.44761">
        <ele>10.71</ele>
        <time>2019-05-23T13:44:09Z</time>
      </trkpt>
      <trkpt lat="40.56941" lon="-8.44765">
        <ele>9.75</ele>
        <time>2019-05-23T13:44:25Z</time>
      </trkpt>
      <trkpt lat="40.56956" lon="-8.44762">
        <ele>9.75</ele>
        <time>2019-05-23T13:44:40Z</time>
      </trkpt>
      <trkpt lat="40.56963" lon="-8.44762">
        <ele>10.71</ele>
        <time>2019-05-23T13:44:45Z</time>
      </trkpt>
      <trkpt lat="40.56973" lon="-8.44765">
        <ele>10.71</ele>
        <time>2019-05-23T13:44:54Z</time>
      </trkpt>
      <trkpt lat="40.56983" lon="-8.44773">
        <ele>10.23</ele>
        <time>2019-05-23T13:45:07Z</time>
      </trkpt>
      <trkpt lat="40.56994" lon="-8.44778">
        <ele>10.23</ele>
        <time>2019-05-23T13:45:20Z</time>
      </trkpt>
      <trkpt lat="40.57004" lon="-8.44781">
        <ele>11.67</ele>
        <time>2019-05-23T13:45:31Z</time>
      </trkpt>
      <trkpt lat="40.5702" lon="-8.44775">
        <ele>10.71</ele>
        <time>2019-05-23T13:45:43Z</time>
      </trkpt>
      <trkpt lat="40.57029" lon="-8.44783">
        <ele>10.23</ele>
        <time>2019-05-23T13:45:52Z</time>
      </trkpt>
      <trkpt lat="40.57041" lon="-8.44788">
        <ele>10.23</ele>
        <time>2019-05-23T13:46:04Z</time>
      </trkpt>
      <trkpt lat="40.57045" lon="-8.44789">
        <ele>10.71</ele>
        <time>2019-05-23T13:46:07Z</time>
      </trkpt>
      <trkpt lat="40.57049" lon="-8.44789">
        <ele>10.23</ele>
        <time>2019-05-23T13:46:09Z</time>
      </trkpt>
      <trkpt lat="40.57055" lon="-8.44789">
        <ele>10.23</ele>
        <time>2019-05-23T13:46:14Z</time>
      </trkpt>
      <trkpt lat="40.57058" lon="-8.44789">
        <ele>10.23</ele>
        <time>2019-05-23T13:46:18Z</time>
      </trkpt>
      <trkpt lat="40.57061" lon="-8.44796">
        <ele>10.71</ele>
        <time>2019-05-23T13:46:24Z</time>
      </trkpt>
      <trkpt lat="40.57069" lon="-8.44817">
        <ele>11.67</ele>
        <time>2019-05-23T13:46:38Z</time>
      </trkpt>
      <trkpt lat="40.5708" lon="-8.44828">
        <ele>12.15</ele>
        <time>2019-05-23T13:46:51Z</time>
      </trkpt>
      <trkpt lat="40.57082" lon="-8.4483">
        <ele>13.12</ele>
        <time>2019-05-23T13:46:53Z</time>
      </trkpt>
      <trkpt lat="40.57091" lon="-8.4483">
        <ele>15.04</ele>
        <time>2019-05-23T13:47:02Z</time>
      </trkpt>
      <trkpt lat="40.571" lon="-8.44826">
        <ele>16.48</ele>
        <time>2019-05-23T13:47:17Z</time>
      </trkpt>
      <trkpt lat="40.57106" lon="-8.44817">
        <ele>16.48</ele>
        <time>2019-05-23T13:47:30Z</time>
      </trkpt>
      <trkpt lat="40.57136" lon="-8.44814">
        <ele>16</ele>
        <time>2019-05-23T13:47:44Z</time>
      </trkpt>
      <trkpt lat="40.57153" lon="-8.44808">
        <ele>15.04</ele>
        <time>2019-05-23T13:47:57Z</time>
      </trkpt>
      <trkpt lat="40.57154" lon="-8.44803">
        <ele>15.04</ele>
        <time>2019-05-23T13:48:17Z</time>
      </trkpt>
      <trkpt lat="40.57152" lon="-8.44805">
        <ele>16</ele>
        <time>2019-05-23T13:48:34Z</time>
      </trkpt>
      <trkpt lat="40.57159" lon="-8.44801">
        <ele>15.04</ele>
        <time>2019-05-23T13:48:47Z</time>
      </trkpt>
      <trkpt lat="40.5717" lon="-8.44793">
        <ele>15.04</ele>
        <time>2019-05-23T13:49:02Z</time>
      </trkpt>
      <trkpt lat="40.57174" lon="-8.4479">
        <ele>14.08</ele>
        <time>2019-05-23T13:49:17Z</time>
      </trkpt>
      <trkpt lat="40.57174" lon="-8.44791">
        <ele>13.6</ele>
        <time>2019-05-23T13:49:32Z</time>
      </trkpt>
      <trkpt lat="40.57177" lon="-8.44794">
        <ele>13.6</ele>
        <time>2019-05-23T13:49:47Z</time>
      </trkpt>
      <trkpt lat="40.57179" lon="-8.44795">
        <ele>13.12</ele>
        <time>2019-05-23T13:50:01Z</time>
      </trkpt>
      <trkpt lat="40.57189" lon="-8.44803">
        <ele>12.15</ele>
        <time>2019-05-23T13:50:14Z</time>
      </trkpt>
      <trkpt lat="40.57195" lon="-8.44807">
        <ele>13.12</ele>
        <time>2019-05-23T13:50:30Z</time>
      </trkpt>
      <trkpt lat="40.57195" lon="-8.44807">
        <ele>12.63</ele>
        <time>2019-05-23T13:50:49Z</time>
      </trkpt>
      <trkpt lat="40.57197" lon="-8.44807">
        <ele>12.63</ele>
        <time>2019-05-23T13:51:16Z</time>
      </trkpt>
      <trkpt lat="40.57198" lon="-8.4481">
        <ele>12.63</ele>
        <time>2019-05-23T13:51:39Z</time>
      </trkpt>
      <trkpt lat="40.57195" lon="-8.44805">
        <ele>13.6</ele>
        <time>2019-05-23T13:51:57Z</time>
      </trkpt>
      <trkpt lat="40.57197" lon="-8.44808">
        <ele>12.63</ele>
        <time>2019-05-23T13:52:24Z</time>
      </trkpt>
      <trkpt lat="40.57202" lon="-8.44808">
        <ele>12.63</ele>
        <time>2019-05-23T13:52:44Z</time>
      </trkpt>
      <trkpt lat="40.572" lon="-8.44808">
        <ele>12.63</ele>
        <time>2019-05-23T13:53:03Z</time>
      </trkpt>
      <trkpt lat="40.57201" lon="-8.44812">
        <ele>13.12</ele>
        <time>2019-05-23T13:53:28Z</time>
      </trkpt>
      <trkpt lat="40.57206" lon="-8.44819">
        <ele>13.12</ele>
        <time>2019-05-23T13:54:04Z</time>
      </trkpt>
      <trkpt lat="40.57211" lon="-8.44822">
        <ele>11.67</ele>
        <time>2019-05-23T13:54:32Z</time>
      </trkpt>
      <trkpt lat="40.57206" lon="-8.44837">
        <ele>11.67</ele>
        <time>2019-05-23T13:54:47Z</time>
      </trkpt>
      <trkpt lat="40.57205" lon="-8.4485">
        <ele>11.67</ele>
        <time>2019-05-23T13:55:00Z</time>
      </trkpt>
      <trkpt lat="40.57194" lon="-8.44852">
        <ele>11.67</ele>
        <time>2019-05-23T13:55:14Z</time>
      </trkpt>
      <trkpt lat="40.57193" lon="-8.4485">
        <ele>10.71</ele>
        <time>2019-05-23T13:55:38Z</time>
      </trkpt>
      <trkpt lat="40.57191" lon="-8.44852">
        <ele>10.71</ele>
        <time>2019-05-23T13:56:05Z</time>
      </trkpt>
      <trkpt lat="40.57189" lon="-8.44849">
        <ele>11.67</ele>
        <time>2019-05-23T13:56:37Z</time>
      </trkpt>
      <trkpt lat="40.57189" lon="-8.44846">
        <ele>11.19</ele>
        <time>2019-05-23T13:57:07Z</time>
      </trkpt>
      <trkpt lat="40.5719" lon="-8.44847">
        <ele>11.19</ele>
        <time>2019-05-23T13:57:34Z</time>
      </trkpt>
      <trkpt lat="40.57194" lon="-8.44846">
        <ele>11.19</ele>
        <time>2019-05-23T13:58:09Z</time>
      </trkpt>
      <trkpt lat="40.57193" lon="-8.44846">
        <ele>11.67</ele>
        <time>2019-05-23T13:58:44Z</time>
      </trkpt>
      <trkpt lat="40.57193" lon="-8.44843">
        <ele>11.67</ele>
        <time>2019-05-23T13:59:14Z</time>
      </trkpt>
      <trkpt lat="40.5719" lon="-8.44847">
        <ele>11.67</ele>
        <time>2019-05-23T13:59:44Z</time>
      </trkpt>
      <trkpt lat="40.57189" lon="-8.44849">
        <ele>12.15</ele>
        <time>2019-05-23T14:00:17Z</time>
      </trkpt>
      <trkpt lat="40.57192" lon="-8.44846">
        <ele>11.67</ele>
        <time>2019-05-23T14:00:53Z</time>
      </trkpt>
      <trkpt lat="40.57192" lon="-8.44852">
        <ele>12.15</ele>
        <time>2019-05-23T14:01:28Z</time>
      </trkpt>
      <trkpt lat="40.57187" lon="-8.4485">
        <ele>12.15</ele>
        <time>2019-05-23T14:02:12Z</time>
      </trkpt>
      <trkpt lat="40.57191" lon="-8.44849">
        <ele>11.67</ele>
        <time>2019-05-23T14:02:42Z</time>
      </trkpt>
      <trkpt lat="40.57192" lon="-8.4485">
        <ele>12.15</ele>
        <time>2019-05-23T14:03:21Z</time>
      </trkpt>
      <trkpt lat="40.57188" lon="-8.44854">
        <ele>12.15</ele>
        <time>2019-05-23T14:03:51Z</time>
      </trkpt>
      <trkpt lat="40.57189" lon="-8.44851">
        <ele>12.63</ele>
        <time>2019-05-23T14:04:27Z</time>
      </trkpt>
      <trkpt lat="40.57187" lon="-8.4485">
        <ele>12.15</ele>
        <time>2019-05-23T14:04:56Z</time>
      </trkpt>
      <trkpt lat="40.57189" lon="-8.44848">
        <ele>12.15</ele>
        <time>2019-05-23T14:05:27Z</time>
      </trkpt>
      <trkpt lat="40.57193" lon="-8.44842">
        <ele>12.15</ele>
        <time>2019-05-23T14:06:01Z</time>
      </trkpt>
      <trkpt lat="40.5719" lon="-8.4484">
        <ele>13.12</ele>
        <time>2019-05-23T14:06:33Z</time>
      </trkpt>
      <trkpt lat="40.57189" lon="-8.44842">
        <ele>13.6</ele>
        <time>2019-05-23T14:07:08Z</time>
      </trkpt>
      <trkpt lat="40.57187" lon="-8.44838">
        <ele>13.6</ele>
        <time>2019-05-23T14:07:39Z</time>
      </trkpt>
      <trkpt lat="40.57191" lon="-8.44839">
        <ele>13.6</ele>
        <time>2019-05-23T14:08:08Z</time>
      </trkpt>
      <trkpt lat="40.57195" lon="-8.44843">
        <ele>14.08</ele>
        <time>2019-05-23T14:08:35Z</time>
      </trkpt>
      <trkpt lat="40.57194" lon="-8.44848">
        <ele>14.08</ele>
        <time>2019-05-23T14:08:53Z</time>
      </trkpt>
      <trkpt lat="40.57198" lon="-8.44847">
        <ele>14.56</ele>
        <time>2019-05-23T14:09:07Z</time>
      </trkpt>
      <trkpt lat="40.572" lon="-8.44843">
        <ele>15.04</ele>
        <time>2019-05-23T14:09:13Z</time>
      </trkpt>
      <trkpt lat="40.57201" lon="-8.44839">
        <ele>15.04</ele>
        <time>2019-05-23T14:09:16Z</time>
      </trkpt>
      <trkpt lat="40.572" lon="-8.44829">
        <ele>15.52</ele>
        <time>2019-05-23T14:09:31Z</time>
      </trkpt>
      <trkpt lat="40.57203" lon="-8.44817">
        <ele>15.04</ele>
        <time>2019-05-23T14:09:42Z</time>
      </trkpt>
      <trkpt lat="40.57214" lon="-8.44794">
        <ele>15.52</ele>
        <time>2019-05-23T14:09:56Z</time>
      </trkpt>
      <trkpt lat="40.57233" lon="-8.44795">
        <ele>18.4</ele>
        <time>2019-05-23T14:10:12Z</time>
      </trkpt>
      <trkpt lat="40.57242" lon="-8.44798">
        <ele>19.36</ele>
        <time>2019-05-23T14:10:28Z</time>
      </trkpt>
      <trkpt lat="40.57254" lon="-8.44801">
        <ele>19.84</ele>
        <time>2019-05-23T14:10:45Z</time>
      </trkpt>
      <trkpt lat="40.57277" lon="-8.4481">
        <ele>20.32</ele>
        <time>2019-05-23T14:11:00Z</time>
      </trkpt>
      <trkpt lat="40.57291" lon="-8.44815">
        <ele>21.29</ele>
        <time>2019-05-23T14:11:15Z</time>
      </trkpt>
      <trkpt lat="40.57295" lon="-8.4482">
        <ele>22.25</ele>
        <time>2019-05-23T14:11:33Z</time>
      </trkpt>
      <trkpt lat="40.57317" lon="-8.44819">
        <ele>22.73</ele>
        <time>2019-05-23T14:11:48Z</time>
      </trkpt>
      <trkpt lat="40.57319" lon="-8.44819">
        <ele>23.21</ele>
        <time>2019-05-23T14:11:52Z</time>
      </trkpt>
      <trkpt lat="40.57335" lon="-8.44818">
        <ele>24.65</ele>
        <time>2019-05-23T14:12:07Z</time>
      </trkpt>
      <trkpt lat="40.57347" lon="-8.44818">
        <ele>25.61</ele>
        <time>2019-05-23T14:12:19Z</time>
      </trkpt>
      <trkpt lat="40.57356" lon="-8.44819">
        <ele>26.09</ele>
        <time>2019-05-23T14:12:34Z</time>
      </trkpt>
      <trkpt lat="40.57362" lon="-8.44818">
        <ele>26.09</ele>
        <time>2019-05-23T14:12:38Z</time>
      </trkpt>
      <trkpt lat="40.57364" lon="-8.44818">
        <ele>27.05</ele>
        <time>2019-05-23T14:12:40Z</time>
      </trkpt>
      <trkpt lat="40.57378" lon="-8.44816">
        <ele>27.53</ele>
        <time>2019-05-23T14:12:53Z</time>
      </trkpt>
      <trkpt lat="40.57389" lon="-8.44804">
        <ele>28.5</ele>
        <time>2019-05-23T14:13:07Z</time>
      </trkpt>
      <trkpt lat="40.57397" lon="-8.44801">
        <ele>29.46</ele>
        <time>2019-05-23T14:13:14Z</time>
      </trkpt>
      <trkpt lat="40.57417" lon="-8.44801">
        <ele>29.94</ele>
        <time>2019-05-23T14:13:29Z</time>
      </trkpt>
      <trkpt lat="40.57433" lon="-8.44801">
        <ele>30.42</ele>
        <time>2019-05-23T14:13:46Z</time>
      </trkpt>
      <trkpt lat="40.57432" lon="-8.44807">
        <ele>31.38</ele>
        <time>2019-05-23T14:14:01Z</time>
      </trkpt>
      <trkpt lat="40.57448" lon="-8.44804">
        <ele>31.38</ele>
        <time>2019-05-23T14:14:16Z</time>
      </trkpt>
      <trkpt lat="40.57466" lon="-8.44803">
        <ele>30.9</ele>
        <time>2019-05-23T14:14:31Z</time>
      </trkpt>
      <trkpt lat="40.57481" lon="-8.44804">
        <ele>32.82</ele>
        <time>2019-05-23T14:14:45Z</time>
      </trkpt>
      <trkpt lat="40.57486" lon="-8.44807">
        <ele>32.82</ele>
        <time>2019-05-23T14:15:02Z</time>
      </trkpt>
      <trkpt lat="40.57495" lon="-8.4481">
        <ele>32.82</ele>
        <time>2019-05-23T14:15:20Z</time>
      </trkpt>
      <trkpt lat="40.57518" lon="-8.4482">
        <ele>34.26</ele>
        <time>2019-05-23T14:15:37Z</time>
      </trkpt>
      <trkpt lat="40.57525" lon="-8.4483">
        <ele>35.23</ele>
        <time>2019-05-23T14:15:53Z</time>
      </trkpt>
      <trkpt lat="40.5753" lon="-8.44835">
        <ele>34.26</ele>
        <time>2019-05-23T14:16:00Z</time>
      </trkpt>
      <trkpt lat="40.57541" lon="-8.44848">
        <ele>35.23</ele>
        <time>2019-05-23T14:16:15Z</time>
      </trkpt>
      <trkpt lat="40.57552" lon="-8.44859">
        <ele>35.71</ele>
        <time>2019-05-23T14:16:30Z</time>
      </trkpt>
      <trkpt lat="40.5756" lon="-8.44867">
        <ele>36.67</ele>
        <time>2019-05-23T14:16:44Z</time>
      </trkpt>
      <trkpt lat="40.57569" lon="-8.44873">
        <ele>37.63</ele>
        <time>2019-05-23T14:16:57Z</time>
      </trkpt>
      <trkpt lat="40.57577" lon="-8.44879">
        <ele>38.59</ele>
        <time>2019-05-23T14:17:07Z</time>
      </trkpt>
      <trkpt lat="40.57582" lon="-8.44884">
        <ele>37.15</ele>
        <time>2019-05-23T14:17:16Z</time>
      </trkpt>
      <trkpt lat="40.57585" lon="-8.44886">
        <ele>38.11</ele>
        <time>2019-05-23T14:17:20Z</time>
      </trkpt>
      <trkpt lat="40.57597" lon="-8.44895">
        <ele>38.59</ele>
        <time>2019-05-23T14:17:35Z</time>
      </trkpt>
      <trkpt lat="40.57605" lon="-8.44902">
        <ele>40.03</ele>
        <time>2019-05-23T14:17:45Z</time>
      </trkpt>
      <trkpt lat="40.57626" lon="-8.44914">
        <ele>39.55</ele>
        <time>2019-05-23T14:17:59Z</time>
      </trkpt>
      <trkpt lat="40.57637" lon="-8.44921">
        <ele>40.03</ele>
        <time>2019-05-23T14:18:12Z</time>
      </trkpt>
      <trkpt lat="40.5765" lon="-8.44928">
        <ele>40.03</ele>
        <time>2019-05-23T14:18:24Z</time>
      </trkpt>
      <trkpt lat="40.57658" lon="-8.44936">
        <ele>40.03</ele>
        <time>2019-05-23T14:18:43Z</time>
      </trkpt>
      <trkpt lat="40.57672" lon="-8.44945">
        <ele>41.95</ele>
        <time>2019-05-23T14:19:00Z</time>
      </trkpt>
      <trkpt lat="40.57689" lon="-8.44955">
        <ele>42.44</ele>
        <time>2019-05-23T14:19:15Z</time>
      </trkpt>
      <trkpt lat="40.57705" lon="-8.44964">
        <ele>43.4</ele>
        <time>2019-05-23T14:19:33Z</time>
      </trkpt>
      <trkpt lat="40.57718" lon="-8.44975">
        <ele>43.4</ele>
        <time>2019-05-23T14:19:47Z</time>
      </trkpt>
      <trkpt lat="40.57723" lon="-8.44977">
        <ele>44.84</ele>
        <time>2019-05-23T14:19:51Z</time>
      </trkpt>
      <trkpt lat="40.57739" lon="-8.44984">
        <ele>43.4</ele>
        <time>2019-05-23T14:20:08Z</time>
      </trkpt>
      <trkpt lat="40.57753" lon="-8.44993">
        <ele>45.32</ele>
        <time>2019-05-23T14:20:22Z</time>
      </trkpt>
      <trkpt lat="40.57766" lon="-8.45006">
        <ele>44.36</ele>
        <time>2019-05-23T14:20:34Z</time>
      </trkpt>
      <trkpt lat="40.57777" lon="-8.4502">
        <ele>44.36</ele>
        <time>2019-05-23T14:20:48Z</time>
      </trkpt>
      <trkpt lat="40.57793" lon="-8.45027">
        <ele>46.76</ele>
        <time>2019-05-23T14:21:03Z</time>
      </trkpt>
      <trkpt lat="40.5781" lon="-8.45035">
        <ele>47.72</ele>
        <time>2019-05-23T14:21:19Z</time>
      </trkpt>
      <trkpt lat="40.57823" lon="-8.45046">
        <ele>47.72</ele>
        <time>2019-05-23T14:21:35Z</time>
      </trkpt>
      <trkpt lat="40.57831" lon="-8.45054">
        <ele>48.2</ele>
        <time>2019-05-23T14:21:47Z</time>
      </trkpt>
      <trkpt lat="40.57843" lon="-8.45062">
        <ele>49.16</ele>
        <time>2019-05-23T14:22:01Z</time>
      </trkpt>
      <trkpt lat="40.57851" lon="-8.45063">
        <ele>48.68</ele>
        <time>2019-05-23T14:22:29Z</time>
      </trkpt>
      <trkpt lat="40.57863" lon="-8.45067">
        <ele>49.65</ele>
        <time>2019-05-23T14:22:44Z</time>
      </trkpt>
      <trkpt lat="40.57881" lon="-8.45078">
        <ele>49.65</ele>
        <time>2019-05-23T14:23:02Z</time>
      </trkpt>
      <trkpt lat="40.57897" lon="-8.45087">
        <ele>50.61</ele>
        <time>2019-05-23T14:23:17Z</time>
      </trkpt>
      <trkpt lat="40.57906" lon="-8.4509">
        <ele>51.09</ele>
        <time>2019-05-23T14:23:30Z</time>
      </trkpt>
      <trkpt lat="40.5791" lon="-8.45093">
        <ele>51.09</ele>
        <time>2019-05-23T14:23:39Z</time>
      </trkpt>
      <trkpt lat="40.57919" lon="-8.45094">
        <ele>51.09</ele>
        <time>2019-05-23T14:23:52Z</time>
      </trkpt>
      <trkpt lat="40.57937" lon="-8.45095">
        <ele>53.01</ele>
        <time>2019-05-23T14:24:08Z</time>
      </trkpt>
      <trkpt lat="40.57957" lon="-8.45094">
        <ele>53.01</ele>
        <time>2019-05-23T14:24:21Z</time>
      </trkpt>
      <trkpt lat="40.57974" lon="-8.45095">
        <ele>53.49</ele>
        <time>2019-05-23T14:24:36Z</time>
      </trkpt>
      <trkpt lat="40.57981" lon="-8.45095">
        <ele>53.49</ele>
        <time>2019-05-23T14:24:47Z</time>
      </trkpt>
      <trkpt lat="40.57998" lon="-8.45093">
        <ele>54.45</ele>
        <time>2019-05-23T14:25:02Z</time>
      </trkpt>
      <trkpt lat="40.58009" lon="-8.45093">
        <ele>55.41</ele>
        <time>2019-05-23T14:25:15Z</time>
      </trkpt>
      <trkpt lat="40.58026" lon="-8.45092">
        <ele>55.41</ele>
        <time>2019-05-23T14:25:29Z</time>
      </trkpt>
      <trkpt lat="40.58043" lon="-8.45091">
        <ele>56.37</ele>
        <time>2019-05-23T14:25:44Z</time>
      </trkpt>
      <trkpt lat="40.58057" lon="-8.4509">
        <ele>56.86</ele>
        <time>2019-05-23T14:25:58Z</time>
      </trkpt>
      <trkpt lat="40.58071" lon="-8.45089">
        <ele>57.34</ele>
        <time>2019-05-23T14:26:14Z</time>
      </trkpt>
      <trkpt lat="40.58088" lon="-8.45087">
        <ele>58.78</ele>
        <time>2019-05-23T14:26:30Z</time>
      </trkpt>
      <trkpt lat="40.58113" lon="-8.45087">
        <ele>60.22</ele>
        <time>2019-05-23T14:26:49Z</time>
      </trkpt>
      <trkpt lat="40.58133" lon="-8.45087">
        <ele>59.74</ele>
        <time>2019-05-23T14:27:04Z</time>
      </trkpt>
      <trkpt lat="40.58153" lon="-8.45085">
        <ele>60.7</ele>
        <time>2019-05-23T14:27:20Z</time>
      </trkpt>
      <trkpt lat="40.58168" lon="-8.45083">
        <ele>60.7</ele>
        <time>2019-05-23T14:27:35Z</time>
      </trkpt>
      <trkpt lat="40.58182" lon="-8.45085">
        <ele>62.14</ele>
        <time>2019-05-23T14:27:53Z</time>
      </trkpt>
      <trkpt lat="40.58184" lon="-8.45086">
        <ele>63.58</ele>
        <time>2019-05-23T14:27:56Z</time>
      </trkpt>
      <trkpt lat="40.58187" lon="-8.45088">
        <ele>62.62</ele>
        <time>2019-05-23T14:28:21Z</time>
      </trkpt>
      <trkpt lat="40.58191" lon="-8.45091">
        <ele>62.62</ele>
        <time>2019-05-23T14:28:37Z</time>
      </trkpt>
      <trkpt lat="40.58193" lon="-8.45095">
        <ele>61.66</ele>
        <time>2019-05-23T14:28:48Z</time>
      </trkpt>
      <trkpt lat="40.58197" lon="-8.45103">
        <ele>61.66</ele>
        <time>2019-05-23T14:29:06Z</time>
      </trkpt>
      <trkpt lat="40.58199" lon="-8.45108">
        <ele>61.18</ele>
        <time>2019-05-23T14:29:13Z</time>
      </trkpt>
      <trkpt lat="40.58202" lon="-8.45109">
        <ele>60.22</ele>
        <time>2019-05-23T14:29:16Z</time>
      </trkpt>
      <trkpt lat="40.58207" lon="-8.45112">
        <ele>59.74</ele>
        <time>2019-05-23T14:29:29Z</time>
      </trkpt>
      <trkpt lat="40.58208" lon="-8.45112">
        <ele>59.26</ele>
        <time>2019-05-23T14:29:44Z</time>
      </trkpt>
      <trkpt lat="40.58216" lon="-8.45094">
        <ele>59.26</ele>
        <time>2019-05-23T14:30:12Z</time>
      </trkpt>
      <trkpt lat="40.58215" lon="-8.45092">
        <ele>59.26</ele>
        <time>2019-05-23T14:30:46Z</time>
      </trkpt>
      <trkpt lat="40.58213" lon="-8.45093">
        <ele>59.26</ele>
        <time>2019-05-23T14:31:25Z</time>
      </trkpt>
      <trkpt lat="40.5821" lon="-8.45091">
        <ele>59.26</ele>
        <time>2019-05-23T14:31:54Z</time>
      </trkpt>
      <trkpt lat="40.58205" lon="-8.45091">
        <ele>59.74</ele>
        <time>2019-05-23T14:32:30Z</time>
      </trkpt>
      <trkpt lat="40.58208" lon="-8.45085">
        <ele>60.7</ele>
        <time>2019-05-23T14:32:56Z</time>
      </trkpt>
      <trkpt lat="40.58208" lon="-8.45082">
        <ele>59.74</ele>
        <time>2019-05-23T14:33:24Z</time>
      </trkpt>
      <trkpt lat="40.58204" lon="-8.45093">
        <ele>60.7</ele>
        <time>2019-05-23T14:33:57Z</time>
      </trkpt>
      <trkpt lat="40.58201" lon="-8.45093">
        <ele>61.18</ele>
        <time>2019-05-23T14:34:30Z</time>
      </trkpt>
      <trkpt lat="40.582" lon="-8.45093">
        <ele>61.66</ele>
        <time>2019-05-23T14:35:00Z</time>
      </trkpt>
      <trkpt lat="40.58202" lon="-8.45092">
        <ele>61.66</ele>
        <time>2019-05-23T14:35:30Z</time>
      </trkpt>
      <trkpt lat="40.58203" lon="-8.45091">
        <ele>61.18</ele>
        <time>2019-05-23T14:35:58Z</time>
      </trkpt>
      <trkpt lat="40.58201" lon="-8.45092">
        <ele>61.66</ele>
        <time>2019-05-23T14:36:33Z</time>
      </trkpt>
      <trkpt lat="40.58198" lon="-8.4509">
        <ele>61.66</ele>
        <time>2019-05-23T14:37:00Z</time>
      </trkpt>
      <trkpt lat="40.58198" lon="-8.4508">
        <ele>62.62</ele>
        <time>2019-05-23T14:37:33Z</time>
      </trkpt>
      <trkpt lat="40.58195" lon="-8.45078">
        <ele>62.62</ele>
        <time>2019-05-23T14:38:03Z</time>
      </trkpt>
      <trkpt lat="40.582" lon="-8.45087">
        <ele>63.58</ele>
        <time>2019-05-23T14:38:38Z</time>
      </trkpt>
      <trkpt lat="40.58206" lon="-8.45086">
        <ele>63.1</ele>
        <time>2019-05-23T14:39:14Z</time>
      </trkpt>
      <trkpt lat="40.58203" lon="-8.45085">
        <ele>63.1</ele>
        <time>2019-05-23T14:39:44Z</time>
      </trkpt>
      <trkpt lat="40.58204" lon="-8.45084">
        <ele>64.07</ele>
        <time>2019-05-23T14:40:10Z</time>
      </trkpt>
      <trkpt lat="40.58204" lon="-8.45088">
        <ele>64.07</ele>
        <time>2019-05-23T14:40:41Z</time>
      </trkpt>
      <trkpt lat="40.58203" lon="-8.45092">
        <ele>64.55</ele>
        <time>2019-05-23T14:41:13Z</time>
      </trkpt>
      <trkpt lat="40.58203" lon="-8.45088">
        <ele>65.03</ele>
        <time>2019-05-23T14:41:39Z</time>
      </trkpt>
      <trkpt lat="40.58206" lon="-8.45095">
        <ele>64.55</ele>
        <time>2019-05-23T14:42:00Z</time>
      </trkpt>
      <trkpt lat="40.58198" lon="-8.45122">
        <ele>61.66</ele>
        <time>2019-05-23T14:42:19Z</time>
      </trkpt>
      <trkpt lat="40.58205" lon="-8.45127">
        <ele>60.7</ele>
        <time>2019-05-23T14:42:40Z</time>
      </trkpt>
      <trkpt lat="40.5822" lon="-8.45154">
        <ele>59.26</ele>
        <time>2019-05-23T14:42:52Z</time>
      </trkpt>
      <trkpt lat="40.58247" lon="-8.45192">
        <ele>60.22</ele>
        <time>2019-05-23T14:43:13Z</time>
      </trkpt>
      <trkpt lat="40.58299" lon="-8.4521">
        <ele>61.18</ele>
        <time>2019-05-23T14:43:38Z</time>
      </trkpt>
      <trkpt lat="40.58311" lon="-8.4518">
        <ele>60.7</ele>
        <time>2019-05-23T14:43:57Z</time>
      </trkpt>
      <trkpt lat="40.58313" lon="-8.45133">
        <ele>60.7</ele>
        <time>2019-05-23T14:44:18Z</time>
      </trkpt>
      <trkpt lat="40.58221" lon="-8.45159">
        <ele>58.78</ele>
        <time>2019-05-23T14:51:12Z</time>
      </trkpt>
      <trkpt lat="40.58196" lon="-8.45077">
        <ele>59.74</ele>
        <time>2019-05-23T14:51:18Z</time>
      </trkpt>
      <trkpt lat="40.58162" lon="-8.44991">
        <ele>59.74</ele>
        <time>2019-05-23T14:51:32Z</time>
      </trkpt>
      <trkpt lat="40.58183" lon="-8.45025">
        <ele>60.22</ele>
        <time>2019-05-23T14:51:57Z</time>
      </trkpt>
      <trkpt lat="40.58194" lon="-8.45053">
        <ele>58.78</ele>
        <time>2019-05-23T14:52:11Z</time>
      </trkpt>
      <trkpt lat="40.58212" lon="-8.45114">
        <ele>59.74</ele>
        <time>2019-05-23T14:52:42Z</time>
      </trkpt>
      <trkpt lat="40.58227" lon="-8.45172">
        <ele>60.7</ele>
        <time>2019-05-23T14:54:11Z</time>
      </trkpt>
      <trkpt lat="40.58224" lon="-8.45166">
        <ele>60.22</ele>
        <time>2019-05-23T14:54:39Z</time>
      </trkpt>
      <trkpt lat="40.58224" lon="-8.45169">
        <ele>60.7</ele>
        <time>2019-05-23T14:55:06Z</time>
      </trkpt>
      <trkpt lat="40.58228" lon="-8.45169">
        <ele>60.22</ele>
        <time>2019-05-23T14:55:32Z</time>
      </trkpt>
      <trkpt lat="40.58229" lon="-8.45168">
        <ele>59.74</ele>
        <time>2019-05-23T14:55:58Z</time>
      </trkpt>
    </trkseg>
  </trk>
</gpx>